Wetterdaten: Dienstag, 29.03.2016
Datum Zeit Temp. A. Feuchte A. Luftdruck Regen Wind Richtung Richtung Sonnenschein ET UV Solar Taupunkt Windchill Windben Empfang
29.03.2016 00:00 8,3 C 88 % 1006,9 hPa 0,0 l/m 3,0 km/h (1 Bft) S 178 0 min 0,000 mm 0,0 UV-I 0 W/m 6,4 C 8,3 C 4,8 km/h (1 Bft) 95,65 %
29.03.2016 00:02 8,3 C 87 % 1006,9 hPa 0,0 l/m 3,3 km/h (1 Bft) S-SO 161 0 min 0,000 mm 0,0 UV-I 0 W/m 6,3 C 8,3 C 6,4 km/h (2 Bft) 100,00 %
29.03.2016 00:03 8,2 C 87 % 1006,9 hPa 0,0 l/m 6,2 km/h (2 Bft) S 186 0 min 0,000 mm 0,0 UV-I 0 W/m 6,2 C 8,2 C 8,0 km/h (2 Bft) 100,00 %
29.03.2016 00:04 8,2 C 87 % 1007,0 hPa 0,0 l/m 4,8 km/h (1 Bft) S 187 0 min 0,000 mm 0,0 UV-I 0 W/m 6,2 C 8,2 C 8,0 km/h (2 Bft) 93,33 %
29.03.2016 00:05 8,2 C 87 % 1007,0 hPa 0,0 l/m 3,9 km/h (1 Bft) S 187 0 min 0,000 mm 0,0 UV-I 0 W/m 6,2 C 8,2 C 4,8 km/h (1 Bft) 95,65 %
29.03.2016 00:06 8,2 C 87 % 1007,0 hPa 0,0 l/m 4,6 km/h (1 Bft) S 174 0 min 0,000 mm 0,0 UV-I 0 W/m 6,2 C 8,2 C 6,4 km/h (2 Bft) 100,00 %
29.03.2016 00:07 8,1 C 87 % 1007,0 hPa 0,0 l/m 3,8 km/h (1 Bft) S-SO 168 0 min 0,000 mm 0,0 UV-I 0 W/m 6,1 C 8,1 C 8,0 km/h (2 Bft) 96,15 %
29.03.2016 00:08 8,1 C 87 % 1007,0 hPa 0,0 l/m 4,7 km/h (1 Bft) S-SO 157 0 min 0,000 mm 0,0 UV-I 0 W/m 6,1 C 8,1 C 12,9 km/h (3 Bft) 100,00 %
29.03.2016 00:09 8,1 C 88 % 1006,9 hPa 0,0 l/m 6,7 km/h (2 Bft) S 170 0 min 0,000 mm 0,0 UV-I 0 W/m 6,2 C 7,9 C 11,3 km/h (2 Bft) 100,00 %
29.03.2016 00:10 8,1 C 88 % 1006,9 hPa 0,0 l/m 4,6 km/h (1 Bft) S-SO 161 0 min 0,000 mm 0,0 UV-I 0 W/m 6,2 C 8,1 C 8,0 km/h (2 Bft) 100,00 %
29.03.2016 00:11 8,1 C 87 % 1006,9 hPa 0,0 l/m 5,9 km/h (2 Bft) S-SO 163 0 min 0,000 mm 0,0 UV-I 0 W/m 6,1 C 8,1 C 11,3 km/h (2 Bft) 100,00 %
29.03.2016 00:12 8,1 C 87 % 1007,0 hPa 0,0 l/m 10,2 km/h (2 Bft) S-SW 200 0 min 0,000 mm 0,0 UV-I 0 W/m 6,1 C 5,4 C 14,5 km/h (3 Bft) 95,83 %
29.03.2016 00:13 8,1 C 87 % 1007,1 hPa 0,0 l/m 10,0 km/h (2 Bft) SW 224 0 min 0,000 mm 0,0 UV-I 0 W/m 6,1 C 5,5 C 16,1 km/h (3 Bft) 91,30 %
29.03.2016 00:14 8,1 C 87 % 1007,2 hPa 0,0 l/m 10,9 km/h (2 Bft) S-SO 163 0 min 0,000 mm 0,0 UV-I 0 W/m 6,1 C 4,9 C 17,7 km/h (3 Bft) 100,00 %
29.03.2016 00:15 8,1 C 87 % 1007,1 hPa 0,0 l/m 9,3 km/h (2 Bft) S 175 0 min 0,000 mm 0,0 UV-I 0 W/m 6,1 C 5,9 C 14,5 km/h (3 Bft) 100,00 %
29.03.2016 00:16 8,0 C 87 % 1007,1 hPa 0,0 l/m 9,1 km/h (2 Bft) S-SO 163 0 min 0,000 mm 0,0 UV-I 0 W/m 6,0 C 6,0 C 12,9 km/h (3 Bft) 100,00 %
29.03.2016 00:17 8,0 C 88 % 1006,9 hPa 0,0 l/m 9,5 km/h (2 Bft) O-SO 123 0 min 0,000 mm 0,0 UV-I 0 W/m 6,1 C 5,7 C 14,5 km/h (3 Bft) 100,00 %
29.03.2016 00:18 8,0 C 88 % 1006,9 hPa 0,0 l/m 7,7 km/h (2 Bft) S-SO 157 0 min 0,000 mm 0,0 UV-I 0 W/m 6,1 C 7,0 C 12,9 km/h (3 Bft) 100,00 %
29.03.2016 00:19 8,1 C 88 % 1007,0 hPa 0,0 l/m 11,3 km/h (2 Bft) S-SW 194 0 min 0,000 mm 0,0 UV-I 0 W/m 6,2 C 4,7 C 14,5 km/h (3 Bft) 91,30 %
29.03.2016 00:20 8,2 C 88 % 1007,1 hPa 0,0 l/m 14,5 km/h (3 Bft) S 190 0 min 0,000 mm 0,0 UV-I 0 W/m 6,3 C 3,2 C 19,3 km/h (3 Bft) 95,83 %
29.03.2016 00:21 8,2 C 88 % 1007,1 hPa 0,0 l/m 12,5 km/h (3 Bft) S-SO 151 0 min 0,000 mm 0,0 UV-I 0 W/m 6,3 C 4,2 C 20,9 km/h (4 Bft) 95,65 %
29.03.2016 00:22 8,2 C 88 % 1007,0 hPa 0,0 l/m 8,5 km/h (2 Bft) S-SO 153 0 min 0,000 mm 0,0 UV-I 0 W/m 6,3 C 6,6 C 17,7 km/h (3 Bft) 100,00 %
29.03.2016 00:23 8,3 C 87 % 1007,0 hPa 0,0 l/m 9,0 km/h (2 Bft) SO 133 0 min 0,000 mm 0,0 UV-I 0 W/m 6,3 C 6,4 C 12,9 km/h (3 Bft) 91,30 %
29.03.2016 00:24 8,3 C 87 % 1007,0 hPa 0,0 l/m 10,4 km/h (2 Bft) S-SO 162 0 min 0,000 mm 0,0 UV-I 0 W/m 6,3 C 5,5 C 17,7 km/h (3 Bft) 100,00 %
29.03.2016 00:25 8,3 C 87 % 1007,0 hPa 0,0 l/m 8,0 km/h (2 Bft) S 184 0 min 0,000 mm 0,0 UV-I 0 W/m 6,3 C 7,1 C 14,5 km/h (3 Bft) 95,65 %
29.03.2016 00:26 8,4 C 86 % 1007,0 hPa 0,0 l/m 8,4 km/h (2 Bft) S 178 0 min 0,000 mm 0,0 UV-I 0 W/m 6,2 C 6,9 C 14,5 km/h (3 Bft) 100,00 %
29.03.2016 00:27 8,4 C 86 % 1007,1 hPa 0,0 l/m 12,2 km/h (2 Bft) S-SW 195 0 min 0,000 mm 0,0 UV-I 0 W/m 6,2 C 4,6 C 16,1 km/h (3 Bft) 95,83 %
29.03.2016 00:28 8,5 C 86 % 1007,1 hPa 0,0 l/m 11,3 km/h (2 Bft) S-SW 204 0 min 0,000 mm 0,0 UV-I 0 W/m 6,3 C 5,2 C 17,7 km/h (3 Bft) 91,30 %
29.03.2016 00:29 8,6 C 86 % 1007,1 hPa 0,0 l/m 8,7 km/h (2 Bft) S-SW 207 0 min 0,000 mm 0,0 UV-I 0 W/m 6,4 C 6,9 C 11,3 km/h (2 Bft) 100,00 %
29.03.2016 00:30 8,6 C 86 % 1007,1 hPa 0,0 l/m 8,3 km/h (2 Bft) SW 223 0 min 0,000 mm 0,0 UV-I 0 W/m 6,4 C 7,2 C 11,3 km/h (2 Bft) 91,30 %
29.03.2016 00:31 8,6 C 85 % 1007,1 hPa 0,0 l/m 8,2 km/h (2 Bft) S 175 0 min 0,000 mm 0,0 UV-I 0 W/m 6,2 C 7,2 C 12,9 km/h (3 Bft) 100,00 %
29.03.2016 00:32 8,6 C 86 % 1007,1 hPa 0,0 l/m 7,5 km/h (2 Bft) S 184 0 min 0,000 mm 0,0 UV-I 0 W/m 6,4 C 7,8 C 9,7 km/h (2 Bft) 91,30 %
29.03.2016 00:33 8,6 C 86 % 1007,1 hPa 0,0 l/m 7,4 km/h (2 Bft) S 184 0 min 0,000 mm 0,0 UV-I 0 W/m 6,4 C 7,8 C 11,3 km/h (2 Bft) 100,00 %
29.03.2016 00:34 8,6 C 86 % 1007,0 hPa 0,0 l/m 7,7 km/h (2 Bft) S-SO 162 0 min 0,000 mm 0,0 UV-I 0 W/m 6,4 C 7,6 C 14,5 km/h (3 Bft) 91,30 %
29.03.2016 00:35 8,6 C 86 % 1007,0 hPa 0,0 l/m 8,0 km/h (2 Bft) SO 139 0 min 0,000 mm 0,0 UV-I 0 W/m 6,4 C 7,4 C 12,9 km/h (3 Bft) 100,00 %
29.03.2016 00:36 8,6 C 86 % 1007,0 hPa 0,0 l/m 7,7 km/h (2 Bft) S-SO 156 0 min 0,000 mm 0,0 UV-I 0 W/m 6,4 C 7,6 C 9,7 km/h (2 Bft) 95,65 %
29.03.2016 00:37 8,6 C 85 % 1007,0 hPa 0,0 l/m 5,8 km/h (2 Bft) S-SO 163 0 min 0,000 mm 0,0 UV-I 0 W/m 6,2 C 8,6 C 11,3 km/h (2 Bft) 91,67 %
29.03.2016 00:38 8,7 C 85 % 1006,9 hPa 0,0 l/m 5,1 km/h (1 Bft) S-SW 197 0 min 0,000 mm 0,0 UV-I 0 W/m 6,3 C 8,7 C 9,7 km/h (2 Bft) 100,00 %
29.03.2016 00:39 8,7 C 85 % 1007,0 hPa 0,0 l/m 9,5 km/h (2 Bft) S-SW 196 0 min 0,000 mm 0,0 UV-I 0 W/m 6,3 C 6,5 C 12,9 km/h (3 Bft) 95,83 %
29.03.2016 00:40 8,7 C 85 % 1007,0 hPa 0,0 l/m 10,4 km/h (2 Bft) S-SW 193 0 min 0,000 mm 0,0 UV-I 0 W/m 6,3 C 5,9 C 17,7 km/h (3 Bft) 100,00 %
29.03.2016 00:41 8,7 C 85 % 1006,9 hPa 0,0 l/m 8,6 km/h (2 Bft) S 175 0 min 0,000 mm 0,0 UV-I 0 W/m 6,3 C 7,1 C 12,9 km/h (3 Bft) 95,83 %
29.03.2016 00:42 8,8 C 85 % 1006,9 hPa 0,0 l/m 10,7 km/h (2 Bft) S-SO 166 0 min 0,000 mm 0,0 UV-I 0 W/m 6,4 C 5,9 C 16,1 km/h (3 Bft) 95,65 %
29.03.2016 00:43 8,8 C 85 % 1006,9 hPa 0,0 l/m 11,5 km/h (2 Bft) S 178 0 min 0,000 mm 0,0 UV-I 0 W/m 6,4 C 5,4 C 17,7 km/h (3 Bft) 95,83 %
29.03.2016 00:44 8,8 C 85 % 1006,9 hPa 0,0 l/m 11,6 km/h (2 Bft) S 182 0 min 0,000 mm 0,0 UV-I 0 W/m 6,4 C 5,3 C 17,7 km/h (3 Bft) 100,00 %
29.03.2016 00:45 8,8 C 85 % 1007,0 hPa 0,0 l/m 12,7 km/h (3 Bft) S-SO 153 0 min 0,000 mm 0,0 UV-I 0 W/m 6,4 C 4,8 C 17,7 km/h (3 Bft) 95,83 %
29.03.2016 00:46 8,8 C 85 % 1007,0 hPa 0,0 l/m 12,2 km/h (2 Bft) S 174 0 min 0,000 mm 0,0 UV-I 0 W/m 6,4 C 5,0 C 16,1 km/h (3 Bft) 100,00 %
29.03.2016 00:47 8,8 C 85 % 1007,0 hPa 0,0 l/m 10,3 km/h (2 Bft) S 171 0 min 0,000 mm 0,0 UV-I 0 W/m 6,4 C 6,1 C 16,1 km/h (3 Bft) 96,30 %
29.03.2016 00:48 8,8 C 85 % 1007,0 hPa 0,0 l/m 11,8 km/h (2 Bft) S 184 0 min 0,000 mm 0,0 UV-I 0 W/m 6,4 C 5,2 C 17,7 km/h (3 Bft) 95,83 %
29.03.2016 00:49 8,8 C 84 % 1007,0 hPa 0,0 l/m 11,7 km/h (2 Bft) S 190 0 min 0,000 mm 0,0 UV-I 0 W/m 6,2 C 5,3 C 16,1 km/h (3 Bft) 95,65 %
29.03.2016 00:50 8,8 C 84 % 1007,0 hPa 0,0 l/m 9,7 km/h (2 Bft) S-SW 205 0 min 0,000 mm 0,0 UV-I 0 W/m 6,2 C 6,5 C 12,9 km/h (3 Bft) 95,83 %
29.03.2016 00:51 8,9 C 84 % 1007,0 hPa 0,0 l/m 9,4 km/h (2 Bft) S 177 0 min 0,000 mm 0,0 UV-I 0 W/m 6,3 C 6,8 C 12,9 km/h (3 Bft) 96,15 %
29.03.2016 00:52 8,9 C 84 % 1006,9 hPa 0,0 l/m 7,2 km/h (2 Bft) S-SO 164 0 min 0,000 mm 0,0 UV-I 0 W/m 6,3 C 8,3 C 12,9 km/h (3 Bft) 100,00 %
29.03.2016 00:53 8,9 C 84 % 1007,0 hPa 0,0 l/m 6,6 km/h (2 Bft) S-SW 207 0 min 0,000 mm 0,0 UV-I 0 W/m 6,3 C 8,8 C 11,3 km/h (2 Bft) 91,30 %
29.03.2016 00:54 8,9 C 84 % 1007,0 hPa 0,0 l/m 8,0 km/h (2 Bft) S-SW 194 0 min 0,000 mm 0,0 UV-I 0 W/m 6,3 C 7,7 C 9,7 km/h (2 Bft) 100,00 %
29.03.2016 00:55 8,9 C 84 % 1007,0 hPa 0,0 l/m 6,8 km/h (2 Bft) S-SO 152 0 min 0,000 mm 0,0 UV-I 0 W/m 6,3 C 8,6 C 11,3 km/h (2 Bft) 95,65 %
29.03.2016 00:56 8,9 C 84 % 1007,0 hPa 0,0 l/m 5,2 km/h (1 Bft) S-SO 157 0 min 0,000 mm 0,0 UV-I 0 W/m 6,3 C 8,9 C 9,7 km/h (2 Bft) 100,00 %
29.03.2016 00:57 9,0 C 84 % 1006,9 hPa 0,0 l/m 5,6 km/h (1 Bft) S 189 0 min 0,000 mm 0,0 UV-I 0 W/m 6,4 C 9,0 C 8,0 km/h (2 Bft) 100,00 %
29.03.2016 00:58 9,0 C 84 % 1006,9 hPa 0,0 l/m 9,6 km/h (2 Bft) SW 227 0 min 0,000 mm 0,0 UV-I 0 W/m 6,4 C 6,7 C 11,3 km/h (2 Bft) 100,00 %
29.03.2016 00:59 9,0 C 84 % 1007,0 hPa 0,0 l/m 9,9 km/h (2 Bft) SW 235 0 min 0,000 mm 0,0 UV-I 0 W/m 6,4 C 6,6 C 12,9 km/h (3 Bft) 95,65 %
29.03.2016 01:00 8,9 C 84 % 1007,1 hPa 0,0 l/m 4,5 km/h (1 Bft) S-SW 198 0 min 0,025 mm 0,0 UV-I 0 W/m 6,3 C 8,9 C 8,0 km/h (2 Bft) 100,00 %
29.03.2016 01:02 8,9 C 84 % 1006,9 hPa 0,0 l/m 7,6 km/h (2 Bft) S 177 0 min 0,000 mm 0,0 UV-I 0 W/m 6,3 C 8,0 C 11,3 km/h (2 Bft) 97,87 %
29.03.2016 01:03 8,9 C 84 % 1007,0 hPa 0,0 l/m 5,8 km/h (2 Bft) S 178 0 min 0,000 mm 0,0 UV-I 0 W/m 6,3 C 8,9 C 9,7 km/h (2 Bft) 100,00 %
29.03.2016 01:04 8,8 C 84 % 1007,0 hPa 0,0 l/m 6,4 km/h (2 Bft) S-SW 193 0 min 0,000 mm 0,0 UV-I 0 W/m 6,2 C 8,8 C 9,7 km/h (2 Bft) 100,00 %
29.03.2016 01:05 8,8 C 84 % 1006,9 hPa 0,0 l/m 8,5 km/h (2 Bft) S-SW 196 0 min 0,000 mm 0,0 UV-I 0 W/m 6,2 C 7,2 C 11,3 km/h (2 Bft) 95,83 %
29.03.2016 01:06 8,8 C 84 % 1006,9 hPa 0,0 l/m 8,7 km/h (2 Bft) S-SW 193 0 min 0,000 mm 0,0 UV-I 0 W/m 6,2 C 7,1 C 11,3 km/h (2 Bft) 95,65 %
29.03.2016 01:07 8,8 C 84 % 1006,9 hPa 0,0 l/m 7,5 km/h (2 Bft) SO 144 0 min 0,000 mm 0,0 UV-I 0 W/m 6,2 C 8,0 C 12,9 km/h (3 Bft) 95,83 %
29.03.2016 01:08 8,8 C 84 % 1007,0 hPa 0,0 l/m 8,6 km/h (2 Bft) S-SW 192 0 min 0,000 mm 0,0 UV-I 0 W/m 6,2 C 7,2 C 14,5 km/h (3 Bft) 100,00 %
29.03.2016 01:09 8,8 C 84 % 1007,0 hPa 0,0 l/m 11,1 km/h (2 Bft) S 188 0 min 0,000 mm 0,0 UV-I 0 W/m 6,2 C 5,6 C 14,5 km/h (3 Bft) 100,00 %
29.03.2016 01:10 8,9 C 84 % 1007,0 hPa 0,0 l/m 10,9 km/h (2 Bft) S 175 0 min 0,000 mm 0,0 UV-I 0 W/m 6,3 C 5,9 C 16,1 km/h (3 Bft) 95,65 %
29.03.2016 01:11 8,9 C 84 % 1006,9 hPa 0,0 l/m 9,9 km/h (2 Bft) S-SO 159 0 min 0,000 mm 0,0 UV-I 0 W/m 6,3 C 6,4 C 17,7 km/h (3 Bft) 100,00 %
29.03.2016 01:12 8,9 C 83 % 1006,9 hPa 0,0 l/m 7,2 km/h (2 Bft) S-SO 165 0 min 0,000 mm 0,0 UV-I 0 W/m 6,2 C 8,3 C 11,3 km/h (2 Bft) 95,65 %
29.03.2016 01:13 9,0 C 83 % 1006,9 hPa 0,0 l/m 6,1 km/h (2 Bft) S-SO 158 0 min 0,000 mm 0,0 UV-I 0 W/m 6,3 C 9,0 C 9,7 km/h (2 Bft) 100,00 %
29.03.2016 01:14 9,1 C 83 % 1006,9 hPa 0,0 l/m 5,5 km/h (1 Bft) S-SO 154 0 min 0,000 mm 0,0 UV-I 0 W/m 6,4 C 9,1 C 9,7 km/h (2 Bft) 95,65 %
29.03.2016 01:15 9,1 C 82 % 1006,9 hPa 0,0 l/m 4,2 km/h (1 Bft) S-SO 149 0 min 0,000 mm 0,0 UV-I 0 W/m 6,2 C 9,1 C 8,0 km/h (2 Bft) 100,00 %
29.03.2016 01:16 9,2 C 82 % 1006,9 hPa 0,0 l/m 7,4 km/h (2 Bft) S 174 0 min 0,000 mm 0,0 UV-I 0 W/m 6,3 C 8,4 C 12,9 km/h (3 Bft) 100,00 %
29.03.2016 01:17 9,2 C 82 % 1006,9 hPa 0,0 l/m 6,8 km/h (2 Bft) S 182 0 min 0,000 mm 0,0 UV-I 0 W/m 6,3 C 8,9 C 11,3 km/h (2 Bft) 100,00 %
29.03.2016 01:18 9,2 C 81 % 1006,9 hPa 0,0 l/m 5,6 km/h (1 Bft) S 173 0 min 0,000 mm 0,0 UV-I 0 W/m 6,1 C 9,2 C 11,3 km/h (2 Bft) 100,00 %
29.03.2016 01:19 9,2 C 81 % 1006,9 hPa 0,0 l/m 7,5 km/h (2 Bft) S 183 0 min 0,000 mm 0,0 UV-I 0 W/m 6,1 C 8,4 C 11,3 km/h (2 Bft) 100,00 %
29.03.2016 01:20 9,2 C 81 % 1006,9 hPa 0,0 l/m 4,7 km/h (1 Bft) S 170 0 min 0,000 mm 0,0 UV-I 0 W/m 6,1 C 9,2 C 8,0 km/h (2 Bft) 100,00 %
29.03.2016 01:21 9,1 C 81 % 1007,0 hPa 0,0 l/m 6,4 km/h (2 Bft) SW 216 0 min 0,000 mm 0,0 UV-I 0 W/m 6,0 C 9,1 C 9,7 km/h (2 Bft) 100,00 %
29.03.2016 01:22 9,1 C 82 % 1007,0 hPa 0,0 l/m 6,7 km/h (2 Bft) S-SW 210 0 min 0,000 mm 0,0 UV-I 0 W/m 6,2 C 8,9 C 11,3 km/h (2 Bft) 100,00 %
29.03.2016 01:23 9,1 C 82 % 1007,0 hPa 0,0 l/m 7,2 km/h (2 Bft) SW 227 0 min 0,000 mm 0,0 UV-I 0 W/m 6,2 C 8,5 C 9,7 km/h (2 Bft) 100,00 %
29.03.2016 01:24 8,9 C 82 % 1007,0 hPa 0,0 l/m 4,7 km/h (1 Bft) SW 226 0 min 0,000 mm 0,0 UV-I 0 W/m 6,0 C 8,9 C 8,0 km/h (2 Bft) 95,83 %
29.03.2016 01:25 8,9 C 82 % 1007,0 hPa 0,0 l/m 4,9 km/h (1 Bft) SW 227 0 min 0,000 mm 0,0 UV-I 0 W/m 6,0 C 8,9 C 6,4 km/h (2 Bft) 100,00 %
29.03.2016 01:26 8,8 C 83 % 1007,1 hPa 0,0 l/m 5,1 km/h (1 Bft) SW 230 0 min 0,000 mm 0,0 UV-I 0 W/m 6,1 C 8,8 C 6,4 km/h (2 Bft) 100,00 %
29.03.2016 01:27 8,7 C 83 % 1007,1 hPa 0,0 l/m 3,4 km/h (1 Bft) SW 230 0 min 0,000 mm 0,0 UV-I 0 W/m 6,0 C 8,7 C 4,8 km/h (1 Bft) 100,00 %
29.03.2016 01:28 8,7 C 83 % 1007,0 hPa 0,0 l/m 5,4 km/h (1 Bft) S-SW 200 0 min 0,000 mm 0,0 UV-I 0 W/m 6,0 C 8,7 C 8,0 km/h (2 Bft) 100,00 %
29.03.2016 01:29 8,5 C 84 % 1007,0 hPa 0,0 l/m 6,0 km/h (2 Bft) S-SW 192 0 min 0,000 mm 0,0 UV-I 0 W/m 6,0 C 8,5 C 8,0 km/h (2 Bft) 100,00 %
29.03.2016 01:30 8,4 C 84 % 1007,0 hPa 0,0 l/m 4,7 km/h (1 Bft) S 173 0 min 0,000 mm 0,0 UV-I 0 W/m 5,9 C 8,4 C 8,0 km/h (2 Bft) 95,83 %
29.03.2016 01:31 8,4 C 84 % 1007,0 hPa 0,0 l/m 3,2 km/h (1 Bft) S 178 0 min 0,000 mm 0,0 UV-I 0 W/m 5,9 C 8,4 C 4,8 km/h (1 Bft) 100,00 %
29.03.2016 01:32 8,3 C 85 % 1007,0 hPa 0,0 l/m 4,5 km/h (1 Bft) S-SW 197 0 min 0,000 mm 0,0 UV-I 0 W/m 5,9 C 8,3 C 6,4 km/h (2 Bft) 100,00 %
29.03.2016 01:33 8,3 C 85 % 1007,0 hPa 0,0 l/m 4,0 km/h (1 Bft) SW 223 0 min 0,000 mm 0,0 UV-I 0 W/m 5,9 C 8,3 C 6,4 km/h (2 Bft) 100,00 %
29.03.2016 01:34 8,2 C 85 % 1007,1 hPa 0,0 l/m 7,1 km/h (2 Bft) S-SW 211 0 min 0,000 mm 0,0 UV-I 0 W/m 5,8 C 7,7 C 9,7 km/h (2 Bft) 100,00 %
29.03.2016 01:35 8,2 C 85 % 1007,0 hPa 0,0 l/m 5,9 km/h (2 Bft) S 178 0 min 0,000 mm 0,0 UV-I 0 W/m 5,8 C 8,2 C 6,4 km/h (2 Bft) 95,65 %
29.03.2016 01:36 8,2 C 86 % 1007,1 hPa 0,0 l/m 7,6 km/h (2 Bft) S-SO 168 0 min 0,000 mm 0,0 UV-I 0 W/m 6,0 C 7,3 C 14,5 km/h (3 Bft) 100,00 %
29.03.2016 01:37 8,2 C 86 % 1007,1 hPa 0,0 l/m 5,0 km/h (1 Bft) S-SW 211 0 min 0,000 mm 0,0 UV-I 0 W/m 6,0 C 8,2 C 6,4 km/h (2 Bft) 100,00 %
29.03.2016 01:38 8,2 C 85 % 1007,1 hPa 0,0 l/m 5,6 km/h (1 Bft) SW 229 0 min 0,000 mm 0,0 UV-I 0 W/m 5,8 C 8,2 C 8,0 km/h (2 Bft) 100,00 %
29.03.2016 01:39 8,1 C 85 % 1007,1 hPa 0,0 l/m 5,7 km/h (1 Bft) W-SW 246 0 min 0,000 mm 0,0 UV-I 0 W/m 5,7 C 8,1 C 6,4 km/h (2 Bft) 95,83 %
29.03.2016 01:40 8,1 C 86 % 1007,1 hPa 0,0 l/m 4,7 km/h (1 Bft) SW 232 0 min 0,000 mm 0,0 UV-I 0 W/m 5,9 C 8,1 C 6,4 km/h (2 Bft) 100,00 %
29.03.2016 01:41 8,0 C 86 % 1007,1 hPa 0,0 l/m 2,6 km/h (1 Bft) S-SW 205 0 min 0,000 mm 0,0 UV-I 0 W/m 5,8 C 8,0 C 6,4 km/h (2 Bft) 100,00 %
29.03.2016 01:42 7,9 C 85 % 1007,1 hPa 0,0 l/m 2,8 km/h (1 Bft) SW 214 0 min 0,000 mm 0,0 UV-I 0 W/m 5,5 C 7,9 C 4,8 km/h (1 Bft) 100,00 %
29.03.2016 01:43 7,8 C 85 % 1007,2 hPa 0,0 l/m 3,0 km/h (1 Bft) SW 214 0 min 0,000 mm 0,0 UV-I 0 W/m 5,4 C 7,8 C 4,8 km/h (1 Bft) 100,00 %
29.03.2016 01:44 7,8 C 86 % 1007,2 hPa 0,0 l/m 4,1 km/h (1 Bft) S-SW 210 0 min 0,000 mm 0,0 UV-I 0 W/m 5,6 C 7,8 C 4,8 km/h (1 Bft) 100,00 %
29.03.2016 01:45 7,8 C 86 % 1007,2 hPa 0,0 l/m 2,5 km/h (1 Bft) S-SW 209 0 min 0,000 mm 0,0 UV-I 0 W/m 5,6 C 7,8 C 3,2 km/h (1 Bft) 95,83 %
29.03.2016 01:46 7,8 C 86 % 1007,2 hPa 0,0 l/m 3,8 km/h (1 Bft) SW 233 0 min 0,000 mm 0,0 UV-I 0 W/m 5,6 C 7,8 C 8,0 km/h (2 Bft) 100,00 %
29.03.2016 01:47 7,8 C 86 % 1007,2 hPa 0,0 l/m 6,8 km/h (2 Bft) W-SW 252 0 min 0,000 mm 0,0 UV-I 0 W/m 5,6 C 7,5 C 8,0 km/h (2 Bft) 100,00 %
29.03.2016 01:48 7,8 C 86 % 1007,3 hPa 0,0 l/m 5,2 km/h (1 Bft) SW 214 0 min 0,000 mm 0,0 UV-I 0 W/m 5,6 C 7,8 C 6,4 km/h (2 Bft) 100,00 %
29.03.2016 01:49 7,8 C 86 % 1007,2 hPa 0,0 l/m 4,5 km/h (1 Bft) SW 221 0 min 0,000 mm 0,0 UV-I 0 W/m 5,6 C 7,8 C 6,4 km/h (2 Bft) 95,83 %
29.03.2016 01:50 7,7 C 86 % 1007,2 hPa 0,0 l/m 7,2 km/h (2 Bft) SW 227 0 min 0,000 mm 0,0 UV-I 0 W/m 5,5 C 7,1 C 9,7 km/h (2 Bft) 100,00 %
29.03.2016 01:51 7,8 C 87 % 1007,3 hPa 0,0 l/m 6,2 km/h (2 Bft) SW 224 0 min 0,000 mm 0,0 UV-I 0 W/m 5,8 C 7,8 C 8,0 km/h (2 Bft) 100,00 %
29.03.2016 01:52 7,8 C 87 % 1007,3 hPa 0,0 l/m 4,4 km/h (1 Bft) S-SW 200 0 min 0,000 mm 0,0 UV-I 0 W/m 5,8 C 7,8 C 4,8 km/h (1 Bft) 100,00 %
29.03.2016 01:53 7,8 C 87 % 1007,3 hPa 0,0 l/m 6,5 km/h (2 Bft) SW 226 0 min 0,000 mm 0,0 UV-I 0 W/m 5,8 C 7,7 C 9,7 km/h (2 Bft) 100,00 %
29.03.2016 01:54 7,8 C 86 % 1007,3 hPa 0,0 l/m 7,8 km/h (2 Bft) S-SW 205 0 min 0,000 mm 0,0 UV-I 0 W/m 5,6 C 6,7 C 9,7 km/h (2 Bft) 100,00 %
29.03.2016 01:55 7,9 C 87 % 1007,3 hPa 0,0 l/m 5,4 km/h (1 Bft) W 259 0 min 0,000 mm 0,0 UV-I 0 W/m 5,9 C 7,9 C 6,4 km/h (2 Bft) 100,00 %
29.03.2016 01:56 7,9 C 86 % 1007,3 hPa 0,0 l/m 4,2 km/h (1 Bft) W 259 0 min 0,000 mm 0,0 UV-I 0 W/m 5,7 C 7,9 C 6,4 km/h (2 Bft) 100,00 %
29.03.2016 01:57 8,0 C 86 % 1007,1 hPa 0,0 l/m 2,2 km/h (1 Bft) S-SO 161 0 min 0,000 mm 0,0 UV-I 0 W/m 5,8 C 8,0 C 6,4 km/h (2 Bft) 100,00 %
29.03.2016 01:58 8,0 C 86 % 1007,1 hPa 0,0 l/m 3,2 km/h (1 Bft) S-SO 163 0 min 0,000 mm 0,0 UV-I 0 W/m 5,8 C 8,0 C 6,4 km/h (2 Bft) 95,65 %
29.03.2016 01:59 8,1 C 86 % 1007,2 hPa 0,0 l/m 3,3 km/h (1 Bft) W-SW 248 0 min 0,000 mm 0,0 UV-I 0 W/m 5,9 C 8,1 C 4,8 km/h (1 Bft) 95,83 %
29.03.2016 02:00 8,1 C 86 % 1007,3 hPa 0,0 l/m 3,0 km/h (1 Bft) W-SW 255 0 min 0,000 mm 0,0 UV-I 0 W/m 5,9 C 8,1 C 4,8 km/h (1 Bft) 100,00 %
29.03.2016 02:02 8,1 C 86 % 1007,2 hPa 0,0 l/m 4,2 km/h (1 Bft) SW 220 0 min 0,000 mm 0,0 UV-I 0 W/m 5,9 C 8,1 C 6,4 km/h (2 Bft) 100,00 %
29.03.2016 02:03 8,1 C 86 % 1007,2 hPa 0,0 l/m 6,2 km/h (2 Bft) S 174 0 min 0,000 mm 0,0 UV-I 0 W/m 5,9 C 8,1 C 9,7 km/h (2 Bft) 100,00 %
29.03.2016 02:04 8,1 C 86 % 1007,2 hPa 0,0 l/m 3,1 km/h (1 Bft) S 184 0 min 0,000 mm 0,0 UV-I 0 W/m 5,9 C 8,1 C 4,8 km/h (1 Bft) 100,00 %
29.03.2016 02:05 8,1 C 86 % 1007,2 hPa 0,0 l/m 1,1 km/h (1 Bft) S 184 0 min 0,000 mm 0,0 UV-I 0 W/m 5,9 C 8,1 C 3,2 km/h (1 Bft) 95,65 %
29.03.2016 02:06 8,0 C 86 % 1007,2 hPa 0,0 l/m 3,1 km/h (1 Bft) S 185 0 min 0,000 mm 0,0 UV-I 0 W/m 5,8 C 8,0 C 4,8 km/h (1 Bft) 100,00 %
29.03.2016 02:07 8,0 C 86 % 1007,1 hPa 0,0 l/m 3,4 km/h (1 Bft) SW 227 0 min 0,000 mm 0,0 UV-I 0 W/m 5,8 C 8,0 C 4,8 km/h (1 Bft) 95,65 %
29.03.2016 02:08 7,9 C 86 % 1007,1 hPa 0,0 l/m 3,7 km/h (1 Bft) SW 229 0 min 0,000 mm 0,0 UV-I 0 W/m 5,7 C 7,9 C 4,8 km/h (1 Bft) 95,83 %
29.03.2016 02:09 7,9 C 86 % 1007,2 hPa 0,0 l/m 5,2 km/h (1 Bft) SW 229 0 min 0,000 mm 0,0 UV-I 0 W/m 5,7 C 7,9 C 6,4 km/h (2 Bft) 100,00 %
29.03.2016 02:10 7,9 C 86 % 1007,4 hPa 0,0 l/m 4,9 km/h (1 Bft) W 267 0 min 0,000 mm 0,0 UV-I 0 W/m 5,7 C 7,9 C 6,4 km/h (2 Bft) 100,00 %
29.03.2016 02:11 7,9 C 86 % 1007,5 hPa 0,0 l/m 4,7 km/h (1 Bft) W-SW 243 0 min 0,000 mm 0,0 UV-I 0 W/m 5,7 C 7,9 C 6,4 km/h (2 Bft) 95,65 %
29.03.2016 02:12 7,8 C 86 % 1007,6 hPa 0,0 l/m 5,2 km/h (1 Bft) SW 230 0 min 0,000 mm 0,0 UV-I 0 W/m 5,6 C 7,8 C 6,4 km/h (2 Bft) 100,00 %
29.03.2016 02:13 7,7 C 86 % 1007,6 hPa 0,0 l/m 4,0 km/h (1 Bft) W-SW 258 0 min 0,000 mm 0,0 UV-I 0 W/m 5,5 C 7,7 C 6,4 km/h (2 Bft) 95,65 %
29.03.2016 02:14 7,6 C 86 % 1007,6 hPa 0,0 l/m 4,5 km/h (1 Bft) W 276 0 min 0,000 mm 0,0 UV-I 0 W/m 5,4 C 7,6 C 6,4 km/h (2 Bft) 100,00 %
29.03.2016 02:15 7,6 C 86 % 1007,8 hPa 0,0 l/m 5,8 km/h (2 Bft) W-NW 298 0 min 0,000 mm 0,0 UV-I 0 W/m 5,4 C 7,6 C 11,3 km/h (2 Bft) 100,00 %
29.03.2016 02:16 7,4 C 87 % 1007,8 hPa 0,0 l/m 5,0 km/h (1 Bft) W 261 0 min 0,000 mm 0,0 UV-I 0 W/m 5,4 C 7,4 C 9,7 km/h (2 Bft) 100,00 %
29.03.2016 02:17 7,4 C 87 % 1007,9 hPa 0,0 l/m 11,0 km/h (2 Bft) W-SW 257 0 min 0,000 mm 0,0 UV-I 0 W/m 5,4 C 4,1 C 16,1 km/h (3 Bft) 100,00 %
29.03.2016 02:18 7,4 C 88 % 1007,9 hPa 0,0 l/m 10,8 km/h (2 Bft) W 281 0 min 0,000 mm 0,0 UV-I 0 W/m 5,5 C 4,2 C 16,1 km/h (3 Bft) 95,83 %
29.03.2016 02:19 7,4 C 88 % 1007,8 hPa 0,0 l/m 10,4 km/h (2 Bft) W 279 0 min 0,000 mm 0,0 UV-I 0 W/m 5,5 C 4,5 C 17,7 km/h (3 Bft) 95,65 %
29.03.2016 02:20 7,5 C 88 % 1007,8 hPa 0,0 l/m 8,4 km/h (2 Bft) W 266 0 min 0,000 mm 0,0 UV-I 0 W/m 5,6 C 5,9 C 11,3 km/h (2 Bft) 95,83 %
29.03.2016 02:21 7,6 C 87 % 1007,9 hPa 0,0 l/m 8,4 km/h (2 Bft) W-NW 282 0 min 0,000 mm 0,0 UV-I 0 W/m 5,6 C 6,0 C 14,5 km/h (3 Bft) 100,00 %
29.03.2016 02:22 7,6 C 87 % 1007,8 hPa 0,0 l/m 12,0 km/h (2 Bft) W 259 0 min 0,000 mm 0,0 UV-I 0 W/m 5,6 C 3,8 C 14,5 km/h (3 Bft) 96,15 %
29.03.2016 02:23 7,7 C 87 % 1007,7 hPa 0,0 l/m 9,3 km/h (2 Bft) W 263 0 min 0,000 mm 0,0 UV-I 0 W/m 5,7 C 5,5 C 12,9 km/h (3 Bft) 100,00 %
29.03.2016 02:24 7,7 C 86 % 1007,7 hPa 0,0 l/m 8,3 km/h (2 Bft) W 264 0 min 0,000 mm 0,0 UV-I 0 W/m 5,5 C 6,2 C 12,9 km/h (3 Bft) 95,65 %
29.03.2016 02:25 7,8 C 86 % 1007,7 hPa 0,0 l/m 6,5 km/h (2 Bft) W 261 0 min 0,000 mm 0,0 UV-I 0 W/m 5,6 C 7,7 C 9,7 km/h (2 Bft) 95,83 %
29.03.2016 02:26 7,8 C 86 % 1007,7 hPa 0,0 l/m 8,4 km/h (2 Bft) W 259 0 min 0,000 mm 0,0 UV-I 0 W/m 5,6 C 6,2 C 11,3 km/h (2 Bft) 100,00 %
29.03.2016 02:27 7,8 C 86 % 1007,8 hPa 0,0 l/m 11,4 km/h (2 Bft) W 267 0 min 0,000 mm 0,0 UV-I 0 W/m 5,6 C 4,3 C 14,5 km/h (3 Bft) 95,83 %
29.03.2016 02:28 7,9 C 85 % 1007,8 hPa 0,0 l/m 10,4 km/h (2 Bft) W-SW 253 0 min 0,000 mm 0,0 UV-I 0 W/m 5,5 C 5,0 C 12,9 km/h (3 Bft) 100,00 %
29.03.2016 02:29 7,9 C 85 % 1007,7 hPa 0,0 l/m 9,1 km/h (2 Bft) W-SW 247 0 min 0,000 mm 0,0 UV-I 0 W/m 5,5 C 5,9 C 12,9 km/h (3 Bft) 96,30 %
29.03.2016 02:30 7,9 C 85 % 1007,8 hPa 0,0 l/m 9,3 km/h (2 Bft) W-SW 254 0 min 0,000 mm 0,0 UV-I 0 W/m 5,5 C 5,7 C 11,3 km/h (2 Bft) 95,65 %
29.03.2016 02:31 7,9 C 85 % 1007,9 hPa 0,0 l/m 10,3 km/h (2 Bft) W 268 0 min 0,000 mm 0,0 UV-I 0 W/m 5,5 C 5,1 C 12,9 km/h (3 Bft) 95,83 %
29.03.2016 02:32 7,9 C 85 % 1007,9 hPa 0,0 l/m 10,3 km/h (2 Bft) W 260 0 min 0,000 mm 0,0 UV-I 0 W/m 5,5 C 5,1 C 11,3 km/h (2 Bft) 91,30 %
29.03.2016 02:33 7,9 C 85 % 1007,9 hPa 0,0 l/m 11,3 km/h (2 Bft) W 259 0 min 0,000 mm 0,0 UV-I 0 W/m 5,5 C 4,5 C 12,9 km/h (3 Bft) 100,00 %
29.03.2016 02:34 7,9 C 84 % 1008,0 hPa 0,0 l/m 10,7 km/h (2 Bft) W-SW 244 0 min 0,000 mm 0,0 UV-I 0 W/m 5,4 C 4,8 C 12,9 km/h (3 Bft) 95,65 %
29.03.2016 02:35 7,9 C 84 % 1008,1 hPa 0,0 l/m 11,6 km/h (2 Bft) W 269 0 min 0,000 mm 0,0 UV-I 0 W/m 5,4 C 4,3 C 12,9 km/h (3 Bft) 100,00 %
29.03.2016 02:36 7,9 C 84 % 1008,1 hPa 0,0 l/m 12,0 km/h (2 Bft) W 272 0 min 0,000 mm 0,0 UV-I 0 W/m 5,4 C 4,1 C 14,5 km/h (3 Bft) 95,65 %
29.03.2016 02:37 7,8 C 84 % 1008,1 hPa 0,0 l/m 9,4 km/h (2 Bft) W 272 0 min 0,000 mm 0,0 UV-I 0 W/m 5,3 C 5,6 C 12,9 km/h (3 Bft) 100,00 %
29.03.2016 02:38 7,8 C 84 % 1008,2 hPa 0,0 l/m 10,9 km/h (2 Bft) W 271 0 min 0,000 mm 0,0 UV-I 0 W/m 5,3 C 4,6 C 12,9 km/h (3 Bft) 95,65 %
29.03.2016 02:39 7,8 C 84 % 1008,3 hPa 0,0 l/m 10,3 km/h (2 Bft) W 268 0 min 0,000 mm 0,0 UV-I 0 W/m 5,3 C 5,0 C 12,9 km/h (3 Bft) 95,83 %
29.03.2016 02:40 7,8 C 83 % 1008,3 hPa 0,0 l/m 11,8 km/h (2 Bft) W 265 0 min 0,000 mm 0,0 UV-I 0 W/m 5,1 C 4,1 C 14,5 km/h (3 Bft) 100,00 %
29.03.2016 02:41 7,9 C 83 % 1008,4 hPa 0,0 l/m 11,8 km/h (2 Bft) W 263 0 min 0,000 mm 0,0 UV-I 0 W/m 5,2 C 4,2 C 17,7 km/h (3 Bft) 91,67 %
29.03.2016 02:42 7,9 C 83 % 1008,4 hPa 0,0 l/m 12,9 km/h (3 Bft) W 260 0 min 0,000 mm 0,0 UV-I 0 W/m 5,2 C 3,6 C 17,7 km/h (3 Bft) 100,00 %
29.03.2016 02:43 7,9 C 83 % 1008,4 hPa 0,0 l/m 12,1 km/h (2 Bft) W-NW 291 0 min 0,000 mm 0,0 UV-I 0 W/m 5,2 C 4,0 C 17,7 km/h (3 Bft) 92,86 %
29.03.2016 02:44 7,9 C 82 % 1008,4 hPa 0,0 l/m 12,1 km/h (2 Bft) W 267 0 min 0,000 mm 0,0 UV-I 0 W/m 5,0 C 4,0 C 19,3 km/h (3 Bft) 100,00 %
29.03.2016 02:45 8,0 C 82 % 1008,4 hPa 0,0 l/m 7,7 km/h (2 Bft) W 266 0 min 0,000 mm 0,0 UV-I 0 W/m 5,1 C 7,0 C 11,3 km/h (2 Bft) 96,15 %
29.03.2016 02:46 8,1 C 82 % 1008,4 hPa 0,0 l/m 10,1 km/h (2 Bft) W 270 0 min 0,000 mm 0,0 UV-I 0 W/m 5,2 C 5,4 C 12,9 km/h (3 Bft) 100,00 %
29.03.2016 02:47 8,1 C 81 % 1008,5 hPa 0,0 l/m 11,9 km/h (2 Bft) W-NW 288 0 min 0,000 mm 0,0 UV-I 0 W/m 5,0 C 4,4 C 16,1 km/h (3 Bft) 95,65 %
29.03.2016 02:48 8,2 C 81 % 1008,6 hPa 0,0 l/m 11,5 km/h (2 Bft) W 275 0 min 0,000 mm 0,0 UV-I 0 W/m 5,1 C 4,7 C 22,5 km/h (4 Bft) 95,83 %
29.03.2016 02:49 8,2 C 81 % 1008,5 hPa 0,0 l/m 9,5 km/h (2 Bft) W 263 0 min 0,000 mm 0,0 UV-I 0 W/m 5,1 C 5,9 C 14,5 km/h (3 Bft) 100,00 %
29.03.2016 02:50 8,3 C 81 % 1008,6 hPa 0,0 l/m 8,8 km/h (2 Bft) W 273 0 min 0,000 mm 0,0 UV-I 0 W/m 5,2 C 6,5 C 17,7 km/h (3 Bft) 95,83 %
29.03.2016 02:51 8,3 C 80 % 1008,6 hPa 0,0 l/m 12,2 km/h (2 Bft) NW 304 0 min 0,000 mm 0,0 UV-I 0 W/m 5,1 C 4,4 C 20,9 km/h (4 Bft) 100,00 %
29.03.2016 02:52 8,4 C 80 % 1008,5 hPa 0,0 l/m 11,9 km/h (2 Bft) W 263 0 min 0,000 mm 0,0 UV-I 0 W/m 5,2 C 4,7 C 20,9 km/h (4 Bft) 95,83 %
29.03.2016 02:53 8,4 C 80 % 1008,6 hPa 0,0 l/m 9,0 km/h (2 Bft) W-NW 292 0 min 0,000 mm 0,0 UV-I 0 W/m 5,2 C 6,5 C 12,9 km/h (3 Bft) 100,00 %
29.03.2016 02:54 8,5 C 80 % 1008,5 hPa 0,0 l/m 10,3 km/h (2 Bft) W 269 0 min 0,000 mm 0,0 UV-I 0 W/m 5,3 C 5,8 C 20,9 km/h (4 Bft) 93,33 %
29.03.2016 02:55 8,6 C 79 % 1008,5 hPa 0,0 l/m 9,3 km/h (2 Bft) W 278 0 min 0,000 mm 0,0 UV-I 0 W/m 5,2 C 6,5 C 12,9 km/h (3 Bft) 95,83 %
29.03.2016 02:56 8,6 C 79 % 1008,5 hPa 0,0 l/m 7,6 km/h (2 Bft) W-NW 286 0 min 0,000 mm 0,0 UV-I 0 W/m 5,2 C 7,7 C 12,9 km/h (3 Bft) 100,00 %
29.03.2016 02:57 8,6 C 79 % 1008,6 hPa 0,0 l/m 12,9 km/h (3 Bft) W-SW 257 0 min 0,000 mm 0,0 UV-I 0 W/m 5,2 C 4,4 C 25,7 km/h (4 Bft) 100,00 %
29.03.2016 02:58 8,7 C 79 % 1008,6 hPa 0,0 l/m 12,1 km/h (2 Bft) W 265 0 min 0,000 mm 0,0 UV-I 0 W/m 5,3 C 5,0 C 29,0 km/h (5 Bft) 95,65 %
29.03.2016 02:59 8,7 C 78 % 1008,6 hPa 0,0 l/m 12,9 km/h (3 Bft) NW 325 0 min 0,000 mm 0,0 UV-I 0 W/m 5,1 C 4,6 C 29,0 km/h (5 Bft) 100,00 %
29.03.2016 03:00 8,7 C 78 % 1008,6 hPa 0,0 l/m 11,4 km/h (2 Bft) W-NW 294 0 min 0,026 mm 0,0 UV-I 0 W/m 5,1 C 5,3 C 22,5 km/h (4 Bft) 100,00 %
29.03.2016 03:02 8,7 C 78 % 1008,8 hPa 0,0 l/m 12,4 km/h (3 Bft) W-NW 299 0 min 0,000 mm 0,0 UV-I 0 W/m 5,1 C 4,8 C 20,9 km/h (4 Bft) 93,62 %
29.03.2016 03:03 8,8 C 78 % 1008,7 hPa 0,0 l/m 8,6 km/h (2 Bft) SW 219 0 min 0,000 mm 0,0 UV-I 0 W/m 5,2 C 7,2 C 19,3 km/h (3 Bft) 100,00 %
29.03.2016 03:04 8,8 C 78 % 1008,6 hPa 0,0 l/m 11,8 km/h (2 Bft) W-NW 297 0 min 0,000 mm 0,0 UV-I 0 W/m 5,2 C 5,2 C 22,5 km/h (4 Bft) 100,00 %
29.03.2016 03:05 8,8 C 77 % 1008,7 hPa 0,0 l/m 6,1 km/h (2 Bft) W 271 0 min 0,000 mm 0,0 UV-I 0 W/m 5,0 C 8,8 C 9,7 km/h (2 Bft) 100,00 %
29.03.2016 03:06 8,8 C 77 % 1008,7 hPa 0,0 l/m 14,1 km/h (3 Bft) W 274 0 min 0,000 mm 0,0 UV-I 0 W/m 5,0 C 4,1 C 29,0 km/h (5 Bft) 100,00 %
29.03.2016 03:07 8,8 C 77 % 1008,8 hPa 0,0 l/m 7,9 km/h (2 Bft) W 263 0 min 0,000 mm 0,0 UV-I 0 W/m 5,0 C 7,7 C 12,9 km/h (3 Bft) 100,00 %
29.03.2016 03:08 8,8 C 77 % 1008,7 hPa 0,0 l/m 12,2 km/h (2 Bft) W-NW 289 0 min 0,000 mm 0,0 UV-I 0 W/m 5,0 C 5,0 C 17,7 km/h (3 Bft) 95,65 %
29.03.2016 03:09 8,8 C 77 % 1008,7 hPa 0,0 l/m 10,0 km/h (2 Bft) W-NW 292 0 min 0,000 mm 0,0 UV-I 0 W/m 5,0 C 6,3 C 22,5 km/h (4 Bft) 95,83 %
29.03.2016 03:10 8,8 C 77 % 1008,7 hPa 0,0 l/m 5,4 km/h (1 Bft) NW 325 0 min 0,000 mm 0,0 UV-I 0 W/m 5,0 C 8,8 C 11,3 km/h (2 Bft) 95,65 %
29.03.2016 03:11 8,8 C 77 % 1008,7 hPa 0,0 l/m 10,5 km/h (2 Bft) NW 306 0 min 0,000 mm 0,0 UV-I 0 W/m 5,0 C 6,0 C 20,9 km/h (4 Bft) 100,00 %
29.03.2016 03:12 8,8 C 77 % 1008,7 hPa 0,0 l/m 6,8 km/h (2 Bft) NW 313 0 min 0,000 mm 0,0 UV-I 0 W/m 5,0 C 8,5 C 16,1 km/h (3 Bft) 95,65 %
29.03.2016 03:13 8,7 C 77 % 1008,7 hPa 0,0 l/m 6,0 km/h (2 Bft) W 271 0 min 0,000 mm 0,0 UV-I 0 W/m 4,9 C 8,7 C 14,5 km/h (3 Bft) 100,00 %
29.03.2016 03:14 8,7 C 77 % 1008,7 hPa 0,0 l/m 6,4 km/h (2 Bft) W 261 0 min 0,000 mm 0,0 UV-I 0 W/m 4,9 C 8,7 C 9,7 km/h (2 Bft) 100,00 %
29.03.2016 03:15 8,7 C 77 % 1008,6 hPa 0,0 l/m 4,4 km/h (1 Bft) NW 313 0 min 0,000 mm 0,0 UV-I 0 W/m 4,9 C 8,7 C 6,4 km/h (2 Bft) 100,00 %
29.03.2016 03:16 8,6 C 78 % 1008,7 hPa 0,0 l/m 2,8 km/h (1 Bft) W-NW 303 0 min 0,000 mm 0,0 UV-I 0 W/m 5,0 C 8,6 C 4,8 km/h (1 Bft) 100,00 %
29.03.2016 03:17 8,5 C 78 % 1008,8 hPa 0,0 l/m 6,6 km/h (2 Bft) W-SW 243 0 min 0,000 mm 0,0 UV-I 0 W/m 4,9 C 8,4 C 16,1 km/h (3 Bft) 100,00 %
29.03.2016 03:18 8,4 C 78 % 1008,7 hPa 0,0 l/m 9,6 km/h (2 Bft) W-SW 256 0 min 0,000 mm 0,0 UV-I 0 W/m 4,8 C 6,1 C 16,1 km/h (3 Bft) 100,00 %
29.03.2016 03:19 8,4 C 78 % 1008,7 hPa 0,0 l/m 9,2 km/h (2 Bft) W-NW 302 0 min 0,000 mm 0,0 UV-I 0 W/m 4,8 C 6,3 C 17,7 km/h (3 Bft) 100,00 %
29.03.2016 03:20 8,4 C 78 % 1008,8 hPa 0,0 l/m 6,3 km/h (2 Bft) NW 304 0 min 0,000 mm 0,0 UV-I 0 W/m 4,8 C 8,4 C 11,3 km/h (2 Bft) 100,00 %
29.03.2016 03:21 8,3 C 79 % 1008,8 hPa 0,0 l/m 3,9 km/h (1 Bft) W-NW 296 0 min 0,000 mm 0,0 UV-I 0 W/m 4,9 C 8,3 C 4,8 km/h (1 Bft) 100,00 %
29.03.2016 03:22 8,3 C 79 % 1008,8 hPa 0,0 l/m 4,0 km/h (1 Bft) W 279 0 min 0,000 mm 0,0 UV-I 0 W/m 4,9 C 8,3 C 9,7 km/h (2 Bft) 100,00 %
29.03.2016 03:23 8,2 C 79 % 1008,8 hPa 0,0 l/m 5,2 km/h (1 Bft) N-NW 346 0 min 0,000 mm 0,0 UV-I 0 W/m 4,8 C 8,2 C 8,0 km/h (2 Bft) 100,00 %
29.03.2016 03:24 8,2 C 79 % 1008,8 hPa 0,0 l/m 3,5 km/h (1 Bft) NW 309 0 min 0,000 mm 0,0 UV-I 0 W/m 4,8 C 8,2 C 4,8 km/h (1 Bft) 100,00 %
29.03.2016 03:25 8,1 C 79 % 1008,7 hPa 0,0 l/m 4,4 km/h (1 Bft) W-NW 292 0 min 0,000 mm 0,0 UV-I 0 W/m 4,7 C 8,1 C 8,0 km/h (2 Bft) 100,00 %
29.03.2016 03:26 8,1 C 80 % 1008,6 hPa 0,0 l/m 6,5 km/h (2 Bft) NW 321 0 min 0,000 mm 0,0 UV-I 0 W/m 4,9 C 8,0 C 14,5 km/h (3 Bft) 100,00 %
29.03.2016 03:27 8,1 C 80 % 1008,6 hPa 0,0 l/m 3,4 km/h (1 Bft) W-NW 299 0 min 0,000 mm 0,0 UV-I 0 W/m 4,9 C 8,1 C 4,8 km/h (1 Bft) 95,65 %
29.03.2016 03:28 8,1 C 80 % 1008,6 hPa 0,0 l/m 5,3 km/h (1 Bft) W 275 0 min 0,000 mm 0,0 UV-I 0 W/m 4,9 C 8,1 C 9,7 km/h (2 Bft) 100,00 %
29.03.2016 03:29 8,0 C 80 % 1008,6 hPa 0,0 l/m 2,4 km/h (1 Bft) NW 306 0 min 0,000 mm 0,0 UV-I 0 W/m 4,8 C 8,0 C 4,8 km/h (1 Bft) 100,00 %
29.03.2016 03:30 7,9 C 80 % 1008,6 hPa 0,0 l/m 2,9 km/h (1 Bft) NW 311 0 min 0,000 mm 0,0 UV-I 0 W/m 4,7 C 7,9 C 4,8 km/h (1 Bft) 100,00 %
29.03.2016 03:31 7,9 C 80 % 1008,7 hPa 0,0 l/m 4,1 km/h (1 Bft) W-NW 299 0 min 0,000 mm 0,0 UV-I 0 W/m 4,7 C 7,9 C 9,7 km/h (2 Bft) 100,00 %
29.03.2016 03:32 7,8 C 81 % 1008,7 hPa 0,0 l/m 3,5 km/h (1 Bft) W-NW 302 0 min 0,000 mm 0,0 UV-I 0 W/m 4,7 C 7,8 C 6,4 km/h (2 Bft) 100,00 %
29.03.2016 03:33 7,8 C 81 % 1008,7 hPa 0,0 l/m 2,9 km/h (1 Bft) W 269 0 min 0,000 mm 0,0 UV-I 0 W/m 4,7 C 7,8 C 4,8 km/h (1 Bft) 95,65 %
29.03.2016 03:34 7,8 C 81 % 1008,8 hPa 0,0 l/m 4,8 km/h (1 Bft) W-NW 295 0 min 0,000 mm 0,0 UV-I 0 W/m 4,7 C 7,8 C 8,0 km/h (2 Bft) 100,00 %
29.03.2016 03:35 7,7 C 81 % 1008,7 hPa 0,0 l/m 4,3 km/h (1 Bft) NW 315 0 min 0,000 mm 0,0 UV-I 0 W/m 4,7 C 7,7 C 9,7 km/h (2 Bft) 100,00 %
29.03.2016 03:36 7,7 C 82 % 1008,8 hPa 0,0 l/m 3,8 km/h (1 Bft) W 277 0 min 0,000 mm 0,0 UV-I 0 W/m 4,8 C 7,7 C 4,8 km/h (1 Bft) 100,00 %
29.03.2016 03:37 7,7 C 82 % 1008,8 hPa 0,0 l/m 3,8 km/h (1 Bft) W 269 0 min 0,000 mm 0,0 UV-I 0 W/m 4,8 C 7,7 C 6,4 km/h (2 Bft) 100,00 %
29.03.2016 03:38 7,7 C 82 % 1008,7 hPa 0,0 l/m 5,6 km/h (1 Bft) W 274 0 min 0,000 mm 0,0 UV-I 0 W/m 4,8 C 7,7 C 12,9 km/h (3 Bft) 100,00 %
29.03.2016 03:39 7,7 C 81 % 1008,7 hPa 0,0 l/m 6,8 km/h (2 Bft) SW 215 0 min 0,000 mm 0,0 UV-I 0 W/m 4,7 C 7,4 C 9,7 km/h (2 Bft) 100,00 %
29.03.2016 03:40 7,7 C 81 % 1008,7 hPa 0,0 l/m 6,8 km/h (2 Bft) W 273 0 min 0,000 mm 0,0 UV-I 0 W/m 4,7 C 7,4 C 11,3 km/h (2 Bft) 100,00 %
29.03.2016 03:41 7,7 C 81 % 1008,7 hPa 0,0 l/m 4,9 km/h (1 Bft) W 263 0 min 0,000 mm 0,0 UV-I 0 W/m 4,7 C 7,7 C 6,4 km/h (2 Bft) 95,83 %
29.03.2016 03:42 7,8 C 81 % 1008,7 hPa 0,0 l/m 5,1 km/h (1 Bft) W-NW 298 0 min 0,000 mm 0,0 UV-I 0 W/m 4,7 C 7,8 C 9,7 km/h (2 Bft) 100,00 %
29.03.2016 03:43 7,8 C 81 % 1008,7 hPa 0,0 l/m 3,2 km/h (1 Bft) W 275 0 min 0,000 mm 0,0 UV-I 0 W/m 4,7 C 7,8 C 4,8 km/h (1 Bft) 100,00 %
29.03.2016 03:44 7,8 C 81 % 1008,7 hPa 0,0 l/m 3,1 km/h (1 Bft) W 278 0 min 0,000 mm 0,0 UV-I 0 W/m 4,7 C 7,8 C 4,8 km/h (1 Bft) 100,00 %
29.03.2016 03:45 7,8 C 81 % 1008,8 hPa 0,0 l/m 3,5 km/h (1 Bft) W-SW 245 0 min 0,000 mm 0,0 UV-I 0 W/m 4,7 C 7,8 C 6,4 km/h (2 Bft) 100,00 %
29.03.2016 03:46 7,8 C 81 % 1008,7 hPa 0,0 l/m 3,8 km/h (1 Bft) W-SW 244 0 min 0,000 mm 0,0 UV-I 0 W/m 4,7 C 7,8 C 4,8 km/h (1 Bft) 96,15 %
29.03.2016 03:47 7,8 C 81 % 1008,7 hPa 0,0 l/m 4,5 km/h (1 Bft) W 276 0 min 0,000 mm 0,0 UV-I 0 W/m 4,7 C 7,8 C 9,7 km/h (2 Bft) 100,00 %
29.03.2016 03:48 7,8 C 81 % 1008,7 hPa 0,0 l/m 5,5 km/h (1 Bft) W-SW 248 0 min 0,000 mm 0,0 UV-I 0 W/m 4,7 C 7,8 C 9,7 km/h (2 Bft) 100,00 %
29.03.2016 03:49 7,8 C 81 % 1008,7 hPa 0,0 l/m 3,3 km/h (1 Bft) W 261 0 min 0,000 mm 0,0 UV-I 0 W/m 4,7 C 7,8 C 6,4 km/h (2 Bft) 100,00 %
29.03.2016 03:50 7,9 C 80 % 1008,7 hPa 0,0 l/m 4,9 km/h (1 Bft) W 261 0 min 0,000 mm 0,0 UV-I 0 W/m 4,7 C 7,9 C 6,4 km/h (2 Bft) 100,00 %
29.03.2016 03:51 7,9 C 80 % 1008,8 hPa 0,0 l/m 6,5 km/h (2 Bft) W-SW 237 0 min 0,000 mm 0,0 UV-I 0 W/m 4,7 C 7,8 C 11,3 km/h (2 Bft) 100,00 %
29.03.2016 03:52 7,9 C 80 % 1008,8 hPa 0,0 l/m 7,8 km/h (2 Bft) W-SW 252 0 min 0,000 mm 0,0 UV-I 0 W/m 4,7 C 6,8 C 11,3 km/h (2 Bft) 100,00 %
29.03.2016 03:53 7,9 C 80 % 1008,8 hPa 0,0 l/m 5,3 km/h (1 Bft) SW 236 0 min 0,000 mm 0,0 UV-I 0 W/m 4,7 C 7,9 C 8,0 km/h (2 Bft) 100,00 %
29.03.2016 03:54 7,9 C 80 % 1008,8 hPa 0,0 l/m 5,7 km/h (1 Bft) SW 224 0 min 0,000 mm 0,0 UV-I 0 W/m 4,7 C 7,9 C 11,3 km/h (2 Bft) 100,00 %
29.03.2016 03:55 7,9 C 80 % 1008,9 hPa 0,0 l/m 6,5 km/h (2 Bft) SW 227 0 min 0,000 mm 0,0 UV-I 0 W/m 4,7 C 7,8 C 8,0 km/h (2 Bft) 100,00 %
29.03.2016 03:56 7,9 C 80 % 1008,9 hPa 0,0 l/m 7,1 km/h (2 Bft) W-SW 247 0 min 0,000 mm 0,0 UV-I 0 W/m 4,7 C 7,3 C 9,7 km/h (2 Bft) 100,00 %
29.03.2016 03:57 7,8 C 80 % 1008,8 hPa 0,0 l/m 5,0 km/h (1 Bft) W-SW 240 0 min 0,000 mm 0,0 UV-I 0 W/m 4,6 C 7,8 C 6,4 km/h (2 Bft) 92,59 %
29.03.2016 03:58 7,8 C 81 % 1008,8 hPa 0,0 l/m 5,6 km/h (1 Bft) W-SW 246 0 min 0,000 mm 0,0 UV-I 0 W/m 4,7 C 7,8 C 8,0 km/h (2 Bft) 100,00 %
29.03.2016 03:59 7,8 C 80 % 1008,8 hPa 0,0 l/m 4,0 km/h (1 Bft) SW 229 0 min 0,000 mm 0,0 UV-I 0 W/m 4,6 C 7,8 C 4,8 km/h (1 Bft) 100,00 %
29.03.2016 04:00 7,8 C 81 % 1008,8 hPa 0,0 l/m 5,1 km/h (1 Bft) W-SW 258 0 min 0,025 mm 0,0 UV-I 0 W/m 4,7 C 7,8 C 9,7 km/h (2 Bft) 100,00 %
29.03.2016 04:02 7,8 C 81 % 1008,8 hPa 0,0 l/m 3,5 km/h (1 Bft) W-SW 258 0 min 0,000 mm 0,0 UV-I 0 W/m 4,7 C 7,8 C 6,4 km/h (2 Bft) 100,00 %
29.03.2016 04:03 7,8 C 81 % 1008,9 hPa 0,0 l/m 3,7 km/h (1 Bft) W-SW 253 0 min 0,000 mm 0,0 UV-I 0 W/m 4,7 C 7,8 C 4,8 km/h (1 Bft) 100,00 %
29.03.2016 04:04 7,8 C 81 % 1008,9 hPa 0,0 l/m 5,6 km/h (1 Bft) SW 221 0 min 0,000 mm 0,0 UV-I 0 W/m 4,7 C 7,8 C 8,0 km/h (2 Bft) 100,00 %
29.03.2016 04:05 7,8 C 81 % 1008,9 hPa 0,0 l/m 4,8 km/h (1 Bft) S-SW 198 0 min 0,000 mm 0,0 UV-I 0 W/m 4,7 C 7,8 C 8,0 km/h (2 Bft) 100,00 %
29.03.2016 04:06 7,8 C 81 % 1009,0 hPa 0,0 l/m 7,6 km/h (2 Bft) S 190 0 min 0,000 mm 0,0 UV-I 0 W/m 4,7 C 6,8 C 9,7 km/h (2 Bft) 100,00 %
29.03.2016 04:07 7,8 C 81 % 1009,0 hPa 0,0 l/m 6,8 km/h (2 Bft) S 184 0 min 0,000 mm 0,0 UV-I 0 W/m 4,7 C 7,5 C 9,7 km/h (2 Bft) 91,30 %
29.03.2016 04:08 7,8 C 81 % 1009,1 hPa 0,0 l/m 6,8 km/h (2 Bft) S 191 0 min 0,000 mm 0,0 UV-I 0 W/m 4,7 C 7,5 C 9,7 km/h (2 Bft) 100,00 %
29.03.2016 04:09 7,8 C 81 % 1009,1 hPa 0,0 l/m 8,2 km/h (2 Bft) S 190 0 min 0,000 mm 0,0 UV-I 0 W/m 4,7 C 6,4 C 11,3 km/h (2 Bft) 100,00 %
29.03.2016 04:10 7,8 C 81 % 1009,2 hPa 0,0 l/m 8,6 km/h (2 Bft) S 175 0 min 0,000 mm 0,0 UV-I 0 W/m 4,7 C 6,1 C 9,7 km/h (2 Bft) 100,00 %
29.03.2016 04:11 7,8 C 81 % 1009,2 hPa 0,0 l/m 8,9 km/h (2 Bft) S-SW 198 0 min 0,000 mm 0,0 UV-I 0 W/m 4,7 C 5,9 C 11,3 km/h (2 Bft) 100,00 %
29.03.2016 04:12 7,8 C 81 % 1009,2 hPa 0,0 l/m 8,5 km/h (2 Bft) S 170 0 min 0,000 mm 0,0 UV-I 0 W/m 4,7 C 6,2 C 12,9 km/h (3 Bft) 95,83 %
29.03.2016 04:13 7,8 C 81 % 1009,1 hPa 0,0 l/m 9,0 km/h (2 Bft) S-SO 152 0 min 0,000 mm 0,0 UV-I 0 W/m 4,7 C 5,8 C 14,5 km/h (3 Bft) 100,00 %
29.03.2016 04:14 7,8 C 82 % 1009,0 hPa 0,0 l/m 6,6 km/h (2 Bft) S 188 0 min 0,000 mm 0,0 UV-I 0 W/m 4,9 C 7,7 C 12,9 km/h (3 Bft) 100,00 %
29.03.2016 04:15 7,8 C 82 % 1009,0 hPa 0,0 l/m 7,9 km/h (2 Bft) S 169 0 min 0,000 mm 0,0 UV-I 0 W/m 4,9 C 6,6 C 12,9 km/h (3 Bft) 100,00 %
29.03.2016 04:16 7,8 C 82 % 1009,0 hPa 0,0 l/m 8,7 km/h (2 Bft) SO 144 0 min 0,000 mm 0,0 UV-I 0 W/m 4,9 C 6,0 C 12,9 km/h (3 Bft) 100,00 %
29.03.2016 04:17 7,8 C 82 % 1009,0 hPa 0,0 l/m 10,3 km/h (2 Bft) S 191 0 min 0,000 mm 0,0 UV-I 0 W/m 4,9 C 5,0 C 17,7 km/h (3 Bft) 100,00 %
29.03.2016 04:18 7,8 C 82 % 1009,1 hPa 0,0 l/m 10,5 km/h (2 Bft) S-SO 152 0 min 0,000 mm 0,0 UV-I 0 W/m 4,9 C 4,9 C 16,1 km/h (3 Bft) 100,00 %
29.03.2016 04:19 7,8 C 82 % 1009,1 hPa 0,0 l/m 8,0 km/h (2 Bft) S 175 0 min 0,000 mm 0,0 UV-I 0 W/m 4,9 C 6,5 C 12,9 km/h (3 Bft) 100,00 %
29.03.2016 04:20 7,7 C 82 % 1009,1 hPa 0,0 l/m 7,8 km/h (2 Bft) S 183 0 min 0,000 mm 0,0 UV-I 0 W/m 4,8 C 6,6 C 11,3 km/h (2 Bft) 100,00 %
29.03.2016 04:21 7,8 C 82 % 1009,1 hPa 0,0 l/m 9,4 km/h (2 Bft) S-SW 193 0 min 0,000 mm 0,0 UV-I 0 W/m 4,9 C 5,6 C 12,9 km/h (3 Bft) 100,00 %
29.03.2016 04:22 7,8 C 82 % 1009,1 hPa 0,0 l/m 9,7 km/h (2 Bft) S 177 0 min 0,000 mm 0,0 UV-I 0 W/m 4,9 C 5,4 C 14,5 km/h (3 Bft) 96,15 %
29.03.2016 04:23 7,8 C 82 % 1009,0 hPa 0,0 l/m 7,3 km/h (2 Bft) S 190 0 min 0,000 mm 0,0 UV-I 0 W/m 4,9 C 7,1 C 9,7 km/h (2 Bft) 95,83 %
29.03.2016 04:24 7,8 C 82 % 1009,1 hPa 0,0 l/m 9,4 km/h (2 Bft) SW 214 0 min 0,000 mm 0,0 UV-I 0 W/m 4,9 C 5,6 C 11,3 km/h (2 Bft) 95,65 %
29.03.2016 04:25 7,8 C 82 % 1009,2 hPa 0,0 l/m 8,6 km/h (2 Bft) S-SW 197 0 min 0,000 mm 0,0 UV-I 0 W/m 4,9 C 6,1 C 12,9 km/h (3 Bft) 95,83 %
29.03.2016 04:26 7,8 C 82 % 1009,1 hPa 0,0 l/m 9,0 km/h (2 Bft) S-SO 152 0 min 0,000 mm 0,0 UV-I 0 W/m 4,9 C 5,8 C 11,3 km/h (2 Bft) 100,00 %
29.03.2016 04:27 7,8 C 82 % 1009,2 hPa 0,0 l/m 6,5 km/h (2 Bft) S-SW 205 0 min 0,000 mm 0,0 UV-I 0 W/m 4,9 C 7,7 C 11,3 km/h (2 Bft) 91,67 %
29.03.2016 04:28 7,8 C 82 % 1009,2 hPa 0,0 l/m 7,4 km/h (2 Bft) S-SW 195 0 min 0,000 mm 0,0 UV-I 0 W/m 4,9 C 7,0 C 9,7 km/h (2 Bft) 100,00 %
29.03.2016 04:29 7,8 C 82 % 1009,1 hPa 0,0 l/m 4,0 km/h (1 Bft) S 171 0 min 0,000 mm 0,0 UV-I 0 W/m 4,9 C 7,8 C 8,0 km/h (2 Bft) 96,30 %
29.03.2016 04:30 7,8 C 82 % 1009,1 hPa 0,0 l/m 4,8 km/h (1 Bft) S 191 0 min 0,000 mm 0,0 UV-I 0 W/m 4,9 C 7,8 C 8,0 km/h (2 Bft) 100,00 %
29.03.2016 04:31 7,8 C 81 % 1009,1 hPa 0,0 l/m 5,7 km/h (1 Bft) S 176 0 min 0,000 mm 0,0 UV-I 0 W/m 4,7 C 7,8 C 11,3 km/h (2 Bft) 95,83 %
29.03.2016 04:32 7,8 C 81 % 1009,1 hPa 0,0 l/m 7,7 km/h (2 Bft) S 187 0 min 0,000 mm 0,0 UV-I 0 W/m 4,7 C 6,8 C 9,7 km/h (2 Bft) 95,65 %
29.03.2016 04:33 7,8 C 81 % 1009,1 hPa 0,0 l/m 5,2 km/h (1 Bft) S 176 0 min 0,000 mm 0,0 UV-I 0 W/m 4,7 C 7,8 C 8,0 km/h (2 Bft) 100,00 %
29.03.2016 04:34 7,8 C 81 % 1009,1 hPa 0,0 l/m 4,8 km/h (1 Bft) S-SO 166 0 min 0,000 mm 0,0 UV-I 0 W/m 4,7 C 7,8 C 6,4 km/h (2 Bft) 91,30 %
29.03.2016 04:35 7,8 C 81 % 1009,1 hPa 0,0 l/m 5,8 km/h (2 Bft) S 174 0 min 0,000 mm 0,0 UV-I 0 W/m 4,7 C 7,8 C 9,7 km/h (2 Bft) 100,00 %
29.03.2016 04:36 7,7 C 81 % 1009,0 hPa 0,0 l/m 4,6 km/h (1 Bft) S 170 0 min 0,000 mm 0,0 UV-I 0 W/m 4,7 C 7,7 C 6,4 km/h (2 Bft) 91,30 %
29.03.2016 04:37 7,7 C 81 % 1009,1 hPa 0,0 l/m 5,0 km/h (1 Bft) S-SO 167 0 min 0,000 mm 0,0 UV-I 0 W/m 4,7 C 7,7 C 8,0 km/h (2 Bft) 100,00 %
29.03.2016 04:38 7,7 C 81 % 1009,1 hPa 0,0 l/m 4,2 km/h (1 Bft) S 172 0 min 0,000 mm 0,0 UV-I 0 W/m 4,7 C 7,7 C 8,0 km/h (2 Bft) 95,65 %
29.03.2016 04:39 7,7 C 82 % 1009,1 hPa 0,0 l/m 5,3 km/h (1 Bft) S-SO 156 0 min 0,000 mm 0,0 UV-I 0 W/m 4,8 C 7,7 C 9,7 km/h (2 Bft) 100,00 %
29.03.2016 04:40 7,7 C 81 % 1009,1 hPa 0,0 l/m 3,7 km/h (1 Bft) S-SO 167 0 min 0,000 mm 0,0 UV-I 0 W/m 4,7 C 7,7 C 8,0 km/h (2 Bft) 95,83 %
29.03.2016 04:41 7,7 C 81 % 1009,2 hPa 0,0 l/m 5,0 km/h (1 Bft) S-SO 161 0 min 0,000 mm 0,0 UV-I 0 W/m 4,7 C 7,7 C 8,0 km/h (2 Bft) 96,15 %
29.03.2016 04:42 7,7 C 82 % 1009,2 hPa 0,0 l/m 5,0 km/h (1 Bft) S-SO 165 0 min 0,000 mm 0,0 UV-I 0 W/m 4,8 C 7,7 C 8,0 km/h (2 Bft) 100,00 %
29.03.2016 04:43 7,7 C 81 % 1009,1 hPa 0,0 l/m 4,4 km/h (1 Bft) S 175 0 min 0,000 mm 0,0 UV-I 0 W/m 4,7 C 7,7 C 11,3 km/h (2 Bft) 91,30 %
29.03.2016 04:44 7,7 C 81 % 1009,2 hPa 0,0 l/m 6,9 km/h (2 Bft) S-SO 149 0 min 0,000 mm 0,0 UV-I 0 W/m 4,7 C 7,3 C 11,3 km/h (2 Bft) 100,00 %
29.03.2016 04:45 7,7 C 81 % 1009,1 hPa 0,0 l/m 4,3 km/h (1 Bft) S-SO 165 0 min 0,000 mm 0,0 UV-I 0 W/m 4,7 C 7,7 C 8,0 km/h (2 Bft) 96,15 %
29.03.2016 04:46 7,7 C 81 % 1009,1 hPa 0,0 l/m 3,4 km/h (1 Bft) S-SO 157 0 min 0,000 mm 0,0 UV-I 0 W/m 4,7 C 7,7 C 6,4 km/h (2 Bft) 100,00 %
29.03.2016 04:47 7,7 C 81 % 1009,1 hPa 0,0 l/m 3,0 km/h (1 Bft) S-SO 167 0 min 0,000 mm 0,0 UV-I 0 W/m 4,7 C 7,7 C 6,4 km/h (2 Bft) 95,65 %
29.03.2016 04:48 7,7 C 81 % 1009,1 hPa 0,0 l/m 4,8 km/h (1 Bft) S 170 0 min 0,000 mm 0,0 UV-I 0 W/m 4,7 C 7,7 C 8,0 km/h (2 Bft) 100,00 %
29.03.2016 04:49 7,7 C 81 % 1009,1 hPa 0,0 l/m 3,1 km/h (1 Bft) S-SO 161 0 min 0,000 mm 0,0 UV-I 0 W/m 4,7 C 7,7 C 6,4 km/h (2 Bft) 91,30 %
29.03.2016 04:50 7,7 C 81 % 1009,1 hPa 0,0 l/m 3,4 km/h (1 Bft) S-SO 165 0 min 0,000 mm 0,0 UV-I 0 W/m 4,7 C 7,7 C 6,4 km/h (2 Bft) 95,83 %
29.03.2016 04:51 7,7 C 81 % 1009,2 hPa 0,0 l/m 3,0 km/h (1 Bft) S 171 0 min 0,000 mm 0,0 UV-I 0 W/m 4,7 C 7,7 C 4,8 km/h (1 Bft) 100,00 %
29.03.2016 04:52 7,7 C 81 % 1009,1 hPa 0,0 l/m 2,8 km/h (1 Bft) S-SO 163 0 min 0,000 mm 0,0 UV-I 0 W/m 4,7 C 7,7 C 3,2 km/h (1 Bft) 95,83 %
29.03.2016 04:53 7,7 C 81 % 1009,1 hPa 0,0 l/m 4,7 km/h (1 Bft) S-SO 148 0 min 0,000 mm 0,0 UV-I 0 W/m 4,7 C 7,7 C 9,7 km/h (2 Bft) 100,00 %
29.03.2016 04:54 7,7 C 81 % 1009,0 hPa 0,0 l/m 3,8 km/h (1 Bft) S-SO 156 0 min 0,000 mm 0,0 UV-I 0 W/m 4,7 C 7,7 C 6,4 km/h (2 Bft) 93,33 %
29.03.2016 04:55 7,7 C 81 % 1008,9 hPa 0,0 l/m 5,1 km/h (1 Bft) S-SO 153 0 min 0,000 mm 0,0 UV-I 0 W/m 4,7 C 7,7 C 8,0 km/h (2 Bft) 96,30 %
29.03.2016 04:56 7,6 C 81 % 1009,0 hPa 0,0 l/m 4,8 km/h (1 Bft) S-SO 155 0 min 0,000 mm 0,0 UV-I 0 W/m 4,6 C 7,6 C 9,7 km/h (2 Bft) 95,65 %
29.03.2016 04:57 7,6 C 81 % 1009,0 hPa 0,0 l/m 5,6 km/h (1 Bft) S-SO 162 0 min 0,000 mm 0,0 UV-I 0 W/m 4,6 C 7,6 C 9,7 km/h (2 Bft) 100,00 %
29.03.2016 04:58 7,6 C 81 % 1009,0 hPa 0,0 l/m 4,9 km/h (1 Bft) S-SO 148 0 min 0,000 mm 0,0 UV-I 0 W/m 4,6 C 7,6 C 9,7 km/h (2 Bft) 91,30 %
29.03.2016 04:59 7,6 C 81 % 1008,9 hPa 0,0 l/m 5,0 km/h (1 Bft) S 178 0 min 0,000 mm 0,0 UV-I 0 W/m 4,6 C 7,6 C 8,0 km/h (2 Bft) 100,00 %
29.03.2016 05:00 7,6 C 81 % 1008,8 hPa 0,0 l/m 4,5 km/h (1 Bft) S-SO 157 0 min 0,026 mm 0,0 UV-I 0 W/m 4,6 C 7,6 C 8,0 km/h (2 Bft) 100,00 %
29.03.2016 05:02 7,6 C 81 % 1008,8 hPa 0,0 l/m 5,4 km/h (1 Bft) S 183 0 min 0,000 mm 0,0 UV-I 0 W/m 4,6 C 7,6 C 9,7 km/h (2 Bft) 100,00 %
29.03.2016 05:03 7,7 C 81 % 1008,8 hPa 0,0 l/m 5,4 km/h (1 Bft) S 181 0 min 0,000 mm 0,0 UV-I 0 W/m 4,7 C 7,7 C 9,7 km/h (2 Bft) 100,00 %
29.03.2016 05:04 7,7 C 81 % 1008,9 hPa 0,0 l/m 6,8 km/h (2 Bft) S 170 0 min 0,000 mm 0,0 UV-I 0 W/m 4,7 C 7,4 C 11,3 km/h (2 Bft) 100,00 %
29.03.2016 05:05 7,7 C 81 % 1008,8 hPa 0,0 l/m 6,8 km/h (2 Bft) S 169 0 min 0,000 mm 0,0 UV-I 0 W/m 4,7 C 7,4 C 12,9 km/h (3 Bft) 100,00 %
29.03.2016 05:06 7,7 C 81 % 1008,8 hPa 0,0 l/m 5,8 km/h (2 Bft) S 169 0 min 0,000 mm 0,0 UV-I 0 W/m 4,7 C 7,7 C 9,7 km/h (2 Bft) 95,65 %
29.03.2016 05:07 7,7 C 81 % 1008,8 hPa 0,0 l/m 4,3 km/h (1 Bft) S 169 0 min 0,000 mm 0,0 UV-I 0 W/m 4,7 C 7,7 C 8,0 km/h (2 Bft) 95,83 %
29.03.2016 05:08 7,7 C 81 % 1008,8 hPa 0,0 l/m 6,5 km/h (2 Bft) S-SW 196 0 min 0,000 mm 0,0 UV-I 0 W/m 4,7 C 7,6 C 9,7 km/h (2 Bft) 100,00 %
29.03.2016 05:09 7,8 C 81 % 1008,9 hPa 0,0 l/m 7,3 km/h (2 Bft) S 186 0 min 0,000 mm 0,0 UV-I 0 W/m 4,7 C 7,1 C 9,7 km/h (2 Bft) 100,00 %
29.03.2016 05:10 7,8 C 81 % 1008,9 hPa 0,0 l/m 5,7 km/h (1 Bft) S 173 0 min 0,000 mm 0,0 UV-I 0 W/m 4,7 C 7,8 C 8,0 km/h (2 Bft) 100,00 %
29.03.2016 05:11 7,8 C 80 % 1009,0 hPa 0,0 l/m 3,8 km/h (1 Bft) S 176 0 min 0,000 mm 0,0 UV-I 0 W/m 4,6 C 7,8 C 6,4 km/h (2 Bft) 95,83 %
29.03.2016 05:12 7,8 C 81 % 1008,9 hPa 0,0 l/m 4,2 km/h (1 Bft) S 176 0 min 0,000 mm 0,0 UV-I 0 W/m 4,7 C 7,8 C 4,8 km/h (1 Bft) 100,00 %
29.03.2016 05:13 7,8 C 80 % 1008,8 hPa 0,0 l/m 2,6 km/h (1 Bft) S 171 0 min 0,000 mm 0,0 UV-I 0 W/m 4,6 C 7,8 C 4,8 km/h (1 Bft) 95,83 %
29.03.2016 05:14 7,8 C 81 % 1008,9 hPa 0,0 l/m 4,0 km/h (1 Bft) S-SO 165 0 min 0,000 mm 0,0 UV-I 0 W/m 4,7 C 7,8 C 11,3 km/h (2 Bft) 100,00 %
29.03.2016 05:15 7,8 C 80 % 1008,9 hPa 0,0 l/m 6,7 km/h (2 Bft) S-SO 148 0 min 0,000 mm 0,0 UV-I 0 W/m 4,6 C 7,6 C 9,7 km/h (2 Bft) 95,65 %
29.03.2016 05:16 7,8 C 81 % 1008,9 hPa 0,0 l/m 2,4 km/h (1 Bft) S 172 0 min 0,000 mm 0,0 UV-I 0 W/m 4,7 C 7,8 C 4,8 km/h (1 Bft) 100,00 %
29.03.2016 05:17 7,8 C 80 % 1008,9 hPa 0,0 l/m 3,6 km/h (1 Bft) S-SO 161 0 min 0,000 mm 0,0 UV-I 0 W/m 4,6 C 7,8 C 6,4 km/h (2 Bft) 100,00 %
29.03.2016 05:18 7,8 C 80 % 1008,9 hPa 0,0 l/m 3,8 km/h (1 Bft) S 178 0 min 0,000 mm 0,0 UV-I 0 W/m 4,6 C 7,8 C 8,0 km/h (2 Bft) 100,00 %
29.03.2016 05:19 7,9 C 80 % 1008,9 hPa 0,0 l/m 5,4 km/h (1 Bft) S 189 0 min 0,000 mm 0,0 UV-I 0 W/m 4,7 C 7,9 C 8,0 km/h (2 Bft) 100,00 %
29.03.2016 05:20 7,9 C 80 % 1008,9 hPa 0,0 l/m 9,5 km/h (2 Bft) S-SO 160 0 min 0,000 mm 0,0 UV-I 0 W/m 4,7 C 5,6 C 11,3 km/h (2 Bft) 95,83 %
29.03.2016 05:21 7,9 C 80 % 1008,9 hPa 0,0 l/m 4,6 km/h (1 Bft) S 178 0 min 0,000 mm 0,0 UV-I 0 W/m 4,7 C 7,9 C 8,0 km/h (2 Bft) 95,65 %
29.03.2016 05:22 7,9 C 80 % 1008,9 hPa 0,0 l/m 4,3 km/h (1 Bft) S-SO 167 0 min 0,000 mm 0,0 UV-I 0 W/m 4,7 C 7,9 C 8,0 km/h (2 Bft) 100,00 %
29.03.2016 05:23 7,9 C 80 % 1008,9 hPa 0,0 l/m 3,9 km/h (1 Bft) S-SO 163 0 min 0,000 mm 0,0 UV-I 0 W/m 4,7 C 7,9 C 8,0 km/h (2 Bft) 95,65 %
29.03.2016 05:24 7,9 C 80 % 1009,0 hPa 0,0 l/m 6,3 km/h (2 Bft) S 179 0 min 0,000 mm 0,0 UV-I 0 W/m 4,7 C 7,9 C 9,7 km/h (2 Bft) 100,00 %
29.03.2016 05:25 7,9 C 80 % 1009,0 hPa 0,0 l/m 5,3 km/h (1 Bft) S 185 0 min 0,000 mm 0,0 UV-I 0 W/m 4,7 C 7,9 C 8,0 km/h (2 Bft) 100,00 %
29.03.2016 05:26 7,9 C 80 % 1009,0 hPa 0,0 l/m 7,1 km/h (2 Bft) S-SO 168 0 min 0,000 mm 0,0 UV-I 0 W/m 4,7 C 7,3 C 9,7 km/h (2 Bft) 100,00 %
29.03.2016 05:27 7,9 C 80 % 1009,0 hPa 0,0 l/m 6,2 km/h (2 Bft) S-SO 164 0 min 0,000 mm 0,0 UV-I 0 W/m 4,7 C 7,9 C 9,7 km/h (2 Bft) 100,00 %
29.03.2016 05:28 7,8 C 80 % 1009,0 hPa 0,0 l/m 5,7 km/h (1 Bft) S-SO 156 0 min 0,000 mm 0,0 UV-I 0 W/m 4,6 C 7,8 C 8,0 km/h (2 Bft) 100,00 %
29.03.2016 05:29 7,8 C 80 % 1008,9 hPa 0,0 l/m 5,6 km/h (1 Bft) S-SO 161 0 min 0,000 mm 0,0 UV-I 0 W/m 4,6 C 7,8 C 9,7 km/h (2 Bft) 100,00 %
29.03.2016 05:30 7,8 C 80 % 1008,8 hPa 0,0 l/m 7,6 km/h (2 Bft) SO 144 0 min 0,000 mm 0,0 UV-I 0 W/m 4,6 C 6,8 C 11,3 km/h (2 Bft) 100,00 %
29.03.2016 05:31 7,8 C 81 % 1008,9 hPa 0,0 l/m 5,8 km/h (2 Bft) S 182 0 min 0,000 mm 0,0 UV-I 0 W/m 4,7 C 7,8 C 9,7 km/h (2 Bft) 100,00 %
29.03.2016 05:32 7,8 C 81 % 1008,9 hPa 0,0 l/m 5,6 km/h (1 Bft) S 184 0 min 0,000 mm 0,0 UV-I 0 W/m 4,7 C 7,8 C 8,0 km/h (2 Bft) 100,00 %
29.03.2016 05:33 7,8 C 80 % 1008,8 hPa 0,0 l/m 5,0 km/h (1 Bft) S-SO 163 0 min 0,000 mm 0,0 UV-I 0 W/m 4,6 C 7,8 C 8,0 km/h (2 Bft) 95,65 %
29.03.2016 05:34 7,9 C 80 % 1008,8 hPa 0,0 l/m 2,0 km/h (1 Bft) S-SO 159 0 min 0,000 mm 0,0 UV-I 0 W/m 4,7 C 7,9 C 4,8 km/h (1 Bft) 100,00 %
29.03.2016 05:35 7,9 C 80 % 1008,8 hPa 0,0 l/m 3,1 km/h (1 Bft) S-SW 194 0 min 0,000 mm 0,0 UV-I 0 W/m 4,7 C 7,9 C 6,4 km/h (2 Bft) 100,00 %
29.03.2016 05:36 7,9 C 80 % 1008,8 hPa 0,0 l/m 1,8 km/h (1 Bft) S-SW 194 0 min 0,000 mm 0,0 UV-I 0 W/m 4,7 C 7,9 C 3,2 km/h (1 Bft) 100,00 %
29.03.2016 05:37 7,9 C 80 % 1008,8 hPa 0,0 l/m 2,0 km/h (1 Bft) S-SW 194 0 min 0,000 mm 0,0 UV-I 0 W/m 4,7 C 7,9 C 3,2 km/h (1 Bft) 100,00 %
29.03.2016 05:38 7,9 C 80 % 1008,9 hPa 0,0 l/m 4,7 km/h (1 Bft) SW 229 0 min 0,000 mm 0,0 UV-I 0 W/m 4,7 C 7,9 C 6,4 km/h (2 Bft) 100,00 %
29.03.2016 05:39 7,9 C 80 % 1008,8 hPa 0,0 l/m 2,3 km/h (1 Bft) SW 228 0 min 0,000 mm 0,0 UV-I 0 W/m 4,7 C 7,9 C 3,2 km/h (1 Bft) 100,00 %
29.03.2016 05:40 7,9 C 80 % 1008,8 hPa 0,0 l/m 5,5 km/h (1 Bft) S-SO 160 0 min 0,000 mm 0,0 UV-I 0 W/m 4,7 C 7,9 C 9,7 km/h (2 Bft) 100,00 %
29.03.2016 05:41 7,9 C 80 % 1008,8 hPa 0,0 l/m 4,4 km/h (1 Bft) S-SO 167 0 min 0,000 mm 0,0 UV-I 0 W/m 4,7 C 7,9 C 8,0 km/h (2 Bft) 100,00 %
29.03.2016 05:42 7,9 C 80 % 1008,8 hPa 0,0 l/m 8,6 km/h (2 Bft) S 175 0 min 0,000 mm 0,0 UV-I 0 W/m 4,7 C 6,2 C 11,3 km/h (2 Bft) 95,65 %
29.03.2016 05:43 7,9 C 80 % 1008,8 hPa 0,0 l/m 5,3 km/h (1 Bft) S-SO 165 0 min 0,000 mm 0,0 UV-I 0 W/m 4,7 C 7,9 C 11,3 km/h (2 Bft) 100,00 %
29.03.2016 05:44 7,9 C 80 % 1008,8 hPa 0,0 l/m 8,9 km/h (2 Bft) S 178 0 min 0,000 mm 0,0 UV-I 0 W/m 4,7 C 6,0 C 14,5 km/h (3 Bft) 100,00 %
29.03.2016 05:45 7,8 C 80 % 1008,9 hPa 0,0 l/m 6,6 km/h (2 Bft) S 169 0 min 0,000 mm 0,0 UV-I 0 W/m 4,6 C 7,7 C 9,7 km/h (2 Bft) 100,00 %
29.03.2016 05:46 7,8 C 80 % 1008,8 hPa 0,0 l/m 7,6 km/h (2 Bft) S-SW 212 0 min 0,000 mm 0,0 UV-I 0 W/m 4,6 C 6,8 C 12,9 km/h (3 Bft) 100,00 %
29.03.2016 05:47 7,8 C 80 % 1008,9 hPa 0,0 l/m 5,0 km/h (1 Bft) W-SW 256 0 min 0,000 mm 0,0 UV-I 0 W/m 4,6 C 7,8 C 8,0 km/h (2 Bft) 95,83 %
29.03.2016 05:48 7,8 C 80 % 1009,0 hPa 0,0 l/m 4,6 km/h (1 Bft) W-NW 296 0 min 0,000 mm 0,0 UV-I 0 W/m 4,6 C 7,8 C 8,0 km/h (2 Bft) 95,65 %
29.03.2016 05:49 7,7 C 81 % 1009,0 hPa 0,0 l/m 3,1 km/h (1 Bft) W-NW 300 0 min 0,000 mm 0,0 UV-I 0 W/m 4,7 C 7,7 C 4,8 km/h (1 Bft) 100,00 %
29.03.2016 05:50 7,6 C 81 % 1009,0 hPa 0,0 l/m 3,2 km/h (1 Bft) SW 232 0 min 0,000 mm 0,0 UV-I 0 W/m 4,6 C 7,6 C 4,8 km/h (1 Bft) 95,65 %
29.03.2016 05:51 7,4 C 82 % 1008,9 hPa 0,0 l/m 4,4 km/h (1 Bft) W 272 0 min 0,000 mm 0,0 UV-I 0 W/m 4,5 C 7,4 C 6,4 km/h (2 Bft) 100,00 %
29.03.2016 05:52 7,3 C 82 % 1008,9 hPa 0,0 l/m 4,0 km/h (1 Bft) W 272 0 min 0,000 mm 0,0 UV-I 0 W/m 4,4 C 7,3 C 4,8 km/h (1 Bft) 100,00 %
29.03.2016 05:53 7,3 C 82 % 1009,0 hPa 0,0 l/m 3,6 km/h (1 Bft) W-SW 243 0 min 0,000 mm 0,0 UV-I 0 W/m 4,4 C 7,3 C 4,8 km/h (1 Bft) 100,00 %
29.03.2016 05:54 7,2 C 83 % 1008,9 hPa 0,0 l/m 4,6 km/h (1 Bft) S-SW 192 0 min 0,000 mm 0,0 UV-I 0 W/m 4,5 C 7,2 C 6,4 km/h (2 Bft) 100,00 %
29.03.2016 05:55 7,2 C 83 % 1008,9 hPa 0,0 l/m 5,9 km/h (2 Bft) S-SW 200 0 min 0,000 mm 0,0 UV-I 0 W/m 4,5 C 7,2 C 8,0 km/h (2 Bft) 100,00 %
29.03.2016 05:56 7,2 C 83 % 1008,9 hPa 0,0 l/m 5,2 km/h (1 Bft) S 175 0 min 0,000 mm 0,0 UV-I 0 W/m 4,5 C 7,2 C 6,4 km/h (2 Bft) 92,31 %
29.03.2016 05:57 7,1 C 83 % 1008,9 hPa 0,0 l/m 3,6 km/h (1 Bft) S-SO 167 0 min 0,000 mm 0,0 UV-I 0 W/m 4,4 C 7,1 C 8,0 km/h (2 Bft) 100,00 %
29.03.2016 05:58 7,1 C 83 % 1008,9 hPa 0,0 l/m 5,9 km/h (2 Bft) S 181 0 min 0,000 mm 0,0 UV-I 0 W/m 4,4 C 7,1 C 8,0 km/h (2 Bft) 95,65 %
29.03.2016 05:59 7,1 C 83 % 1008,9 hPa 0,0 l/m 7,8 km/h (2 Bft) S-SW 194 0 min 0,000 mm 0,0 UV-I 0 W/m 4,4 C 6,0 C 11,3 km/h (2 Bft) 100,00 %
29.03.2016 06:00 7,2 C 83 % 1008,9 hPa 0,0 l/m 7,4 km/h (2 Bft) S 179 0 min 0,025 mm 0,0 UV-I 0 W/m 4,5 C 6,4 C 11,3 km/h (2 Bft) 100,00 %
29.03.2016 06:02 7,2 C 82 % 1008,8 hPa 0,0 l/m 6,2 km/h (2 Bft) S-SO 161 0 min 0,000 mm 0,0 UV-I 0 W/m 4,3 C 7,2 C 9,7 km/h (2 Bft) 100,00 %
29.03.2016 06:03 7,3 C 82 % 1008,9 hPa 0,0 l/m 5,9 km/h (2 Bft) S 171 0 min 0,000 mm 0,0 UV-I 0 W/m 4,4 C 7,3 C 8,0 km/h (2 Bft) 100,00 %
29.03.2016 06:04 7,3 C 82 % 1008,8 hPa 0,0 l/m 4,1 km/h (1 Bft) S-SO 163 0 min 0,000 mm 0,0 UV-I 0 W/m 4,4 C 7,3 C 6,4 km/h (2 Bft) 100,00 %
29.03.2016 06:05 7,4 C 82 % 1008,8 hPa 0,0 l/m 4,5 km/h (1 Bft) S 169 0 min 0,000 mm 0,0 UV-I 0 W/m 4,5 C 7,4 C 8,0 km/h (2 Bft) 100,00 %
29.03.2016 06:06 7,4 C 81 % 1008,8 hPa 0,0 l/m 6,7 km/h (2 Bft) S 191 0 min 0,000 mm 0,0 UV-I 0 W/m 4,4 C 7,2 C 8,0 km/h (2 Bft) 100,00 %
29.03.2016 06:07 7,4 C 81 % 1008,9 hPa 0,0 l/m 6,3 km/h (2 Bft) S-SW 193 0 min 0,000 mm 0,0 UV-I 0 W/m 4,4 C 7,4 C 8,0 km/h (2 Bft) 100,00 %
29.03.2016 06:08 7,4 C 81 % 1008,8 hPa 0,0 l/m 6,2 km/h (2 Bft) S-SO 167 0 min 0,000 mm 0,0 UV-I 0 W/m 4,4 C 7,4 C 9,7 km/h (2 Bft) 100,00 %
29.03.2016 06:09 7,4 C 81 % 1008,8 hPa 0,0 l/m 4,0 km/h (1 Bft) S 171 0 min 0,000 mm 0,0 UV-I 0 W/m 4,4 C 7,4 C 9,7 km/h (2 Bft) 100,00 %
29.03.2016 06:10 7,4 C 81 % 1008,8 hPa 0,0 l/m 3,2 km/h (1 Bft) S 185 0 min 0,000 mm 0,0 UV-I 0 W/m 4,4 C 7,4 C 4,8 km/h (1 Bft) 100,00 %
29.03.2016 06:11 7,4 C 81 % 1008,8 hPa 0,0 l/m 3,1 km/h (1 Bft) S 179 0 min 0,000 mm 0,0 UV-I 0 W/m 4,4 C 7,4 C 4,8 km/h (1 Bft) 100,00 %
29.03.2016 06:12 7,4 C 81 % 1008,8 hPa 0,0 l/m 6,0 km/h (2 Bft) S 179 0 min 0,000 mm 0,0 UV-I 0 W/m 4,4 C 7,4 C 9,7 km/h (2 Bft) 100,00 %
29.03.2016 06:13 7,4 C 81 % 1008,8 hPa 0,0 l/m 5,2 km/h (1 Bft) S-SO 155 0 min 0,000 mm 0,0 UV-I 0 W/m 4,4 C 7,4 C 8,0 km/h (2 Bft) 100,00 %
29.03.2016 06:14 7,4 C 81 % 1008,8 hPa 0,0 l/m 6,0 km/h (2 Bft) S-SO 158 0 min 0,000 mm 0,0 UV-I 0 W/m 4,4 C 7,4 C 8,0 km/h (2 Bft) 100,00 %
29.03.2016 06:15 7,4 C 81 % 1008,8 hPa 0,0 l/m 7,2 km/h (2 Bft) S-SO 166 0 min 0,000 mm 0,0 UV-I 0 W/m 4,4 C 6,8 C 9,7 km/h (2 Bft) 100,00 %
29.03.2016 06:16 7,4 C 81 % 1008,8 hPa 0,0 l/m 4,2 km/h (1 Bft) S-SO 161 0 min 0,000 mm 0,0 UV-I 0 W/m 4,4 C 7,4 C 6,4 km/h (2 Bft) 100,00 %
29.03.2016 06:17 7,4 C 81 % 1008,8 hPa 0,0 l/m 5,5 km/h (1 Bft) S 177 0 min 0,000 mm 0,0 UV-I 0 W/m 4,4 C 7,4 C 8,0 km/h (2 Bft) 100,00 %
29.03.2016 06:18 7,5 C 81 % 1008,8 hPa 0,0 l/m 4,0 km/h (1 Bft) S-SO 166 0 min 0,000 mm 0,0 UV-I 0 W/m 4,5 C 7,5 C 6,4 km/h (2 Bft) 95,65 %
29.03.2016 06:19 7,5 C 81 % 1008,8 hPa 0,0 l/m 2,4 km/h (1 Bft) S-SO 152 0 min 0,000 mm 0,0 UV-I 0 W/m 4,5 C 7,5 C 4,8 km/h (1 Bft) 100,00 %
29.03.2016 06:20 7,5 C 81 % 1008,8 hPa 0,0 l/m 4,0 km/h (1 Bft) S-SO 167 0 min 0,000 mm 0,0 UV-I 0 W/m 4,5 C 7,5 C 6,4 km/h (2 Bft) 100,00 %
29.03.2016 06:21 7,5 C 81 % 1008,8 hPa 0,0 l/m 4,6 km/h (1 Bft) S 190 0 min 0,000 mm 0,0 UV-I 0 W/m 4,5 C 7,5 C 6,4 km/h (2 Bft) 100,00 %
29.03.2016 06:22 7,4 C 81 % 1008,9 hPa 0,0 l/m 3,8 km/h (1 Bft) S-SW 199 0 min 0,000 mm 0,0 UV-I 0 W/m 4,4 C 7,4 C 4,8 km/h (1 Bft) 100,00 %
29.03.2016 06:23 7,4 C 81 % 1008,9 hPa 0,0 l/m 3,8 km/h (1 Bft) S-SW 204 0 min 0,000 mm 0,0 UV-I 0 W/m 4,4 C 7,4 C 6,4 km/h (2 Bft) 100,00 %
29.03.2016 06:24 7,4 C 81 % 1008,9 hPa 0,0 l/m 3,5 km/h (1 Bft) S-SW 204 0 min 0,000 mm 0,0 UV-I 0 W/m 4,4 C 7,4 C 4,8 km/h (1 Bft) 95,65 %
29.03.2016 06:25 7,3 C 81 % 1008,9 hPa 0,0 l/m 3,4 km/h (1 Bft) S-SW 204 0 min 0,000 mm 0,0 UV-I 0 W/m 4,3 C 7,3 C 4,8 km/h (1 Bft) 95,83 %
29.03.2016 06:26 7,2 C 82 % 1008,9 hPa 0,0 l/m 4,5 km/h (1 Bft) S 182 0 min 0,000 mm 0,0 UV-I 0 W/m 4,3 C 7,2 C 6,4 km/h (2 Bft) 100,00 %
29.03.2016 06:27 7,1 C 82 % 1008,9 hPa 0,0 l/m 6,1 km/h (2 Bft) S-SO 163 0 min 0,000 mm 0,0 UV-I 0 W/m 4,2 C 7,1 C 8,0 km/h (2 Bft) 100,00 %
29.03.2016 06:28 7,0 C 82 % 1008,9 hPa 0,0 l/m 4,4 km/h (1 Bft) S-SO 165 0 min 0,000 mm 0,0 UV-I 0 W/m 4,1 C 7,0 C 8,0 km/h (2 Bft) 91,30 %
29.03.2016 06:29 7,0 C 83 % 1008,9 hPa 0,0 l/m 3,6 km/h (1 Bft) S 170 0 min 0,000 mm 0,0 UV-I 0 W/m 4,3 C 7,0 C 6,4 km/h (2 Bft) 91,67 %
29.03.2016 06:30 7,0 C 83 % 1008,9 hPa 0,0 l/m 6,7 km/h (2 Bft) S-SW 197 0 min 0,000 mm 0,0 UV-I 0 W/m 4,3 C 6,8 C 8,0 km/h (2 Bft) 100,00 %
29.03.2016 06:31 7,0 C 83 % 1008,9 hPa 0,0 l/m 6,0 km/h (2 Bft) SW 223 0 min 0,000 mm 0,0 UV-I 0 W/m 4,3 C 7,0 C 11,3 km/h (2 Bft) 95,83 %
29.03.2016 06:32 7,0 C 83 % 1008,9 hPa 0,0 l/m 3,0 km/h (1 Bft) S 191 0 min 0,000 mm 0,0 UV-I 0 W/m 4,3 C 7,0 C 4,8 km/h (1 Bft) 100,00 %
29.03.2016 06:33 7,1 C 83 % 1008,9 hPa 0,0 l/m 3,6 km/h (1 Bft) S 180 0 min 0,000 mm 0,0 UV-I 0 W/m 4,4 C 7,1 C 6,4 km/h (2 Bft) 95,83 %
29.03.2016 06:34 7,1 C 83 % 1008,9 hPa 0,0 l/m 5,1 km/h (1 Bft) S-SW 196 0 min 0,000 mm 0,0 UV-I 0 W/m 4,4 C 7,1 C 6,4 km/h (2 Bft) 100,00 %
29.03.2016 06:35 7,0 C 83 % 1008,9 hPa 0,0 l/m 3,5 km/h (1 Bft) S 173 0 min 0,000 mm 0,0 UV-I 0 W/m 4,3 C 7,0 C 4,8 km/h (1 Bft) 95,83 %
29.03.2016 06:36 7,0 C 83 % 1008,9 hPa 0,0 l/m 5,1 km/h (1 Bft) S-SO 167 0 min 0,000 mm 0,0 UV-I 0 W/m 4,3 C 7,0 C 8,0 km/h (2 Bft) 95,83 %
29.03.2016 06:37 6,9 C 83 % 1008,9 hPa 0,0 l/m 5,6 km/h (1 Bft) S-SO 165 0 min 0,000 mm 0,0 UV-I 0 W/m 4,2 C 6,9 C 8,0 km/h (2 Bft) 100,00 %
29.03.2016 06:38 6,9 C 83 % 1008,9 hPa 0,0 l/m 4,2 km/h (1 Bft) S 169 0 min 0,000 mm 0,0 UV-I 0 W/m 4,2 C 6,9 C 8,0 km/h (2 Bft) 95,83 %
29.03.2016 06:39 6,9 C 83 % 1008,9 hPa 0,0 l/m 6,6 km/h (2 Bft) S 186 0 min 0,000 mm 0,0 UV-I 0 W/m 4,2 C 6,8 C 9,7 km/h (2 Bft) 100,00 %
29.03.2016 06:40 6,9 C 83 % 1008,9 hPa 0,0 l/m 7,2 km/h (2 Bft) S 186 0 min 0,000 mm 0,0 UV-I 0 W/m 4,2 C 6,2 C 9,7 km/h (2 Bft) 95,83 %
29.03.2016 06:41 6,8 C 83 % 1008,9 hPa 0,0 l/m 5,5 km/h (1 Bft) S-SW 196 0 min 0,000 mm 0,0 UV-I 0 W/m 4,1 C 6,8 C 6,4 km/h (2 Bft) 100,00 %
29.03.2016 06:42 6,8 C 83 % 1008,9 hPa 0,0 l/m 6,0 km/h (2 Bft) S-SW 192 0 min 0,000 mm 0,0 UV-I 0 W/m 4,1 C 6,8 C 8,0 km/h (2 Bft) 95,83 %
29.03.2016 06:43 6,8 C 84 % 1009,0 hPa 0,0 l/m 6,0 km/h (2 Bft) S 177 0 min 0,000 mm 0,0 UV-I 0 W/m 4,3 C 6,8 C 8,0 km/h (2 Bft) 95,65 %
29.03.2016 06:44 6,9 C 84 % 1009,0 hPa 0,0 l/m 6,3 km/h (2 Bft) S 178 0 min 0,000 mm 0,0 UV-I 0 W/m 4,4 C 6,9 C 8,0 km/h (2 Bft) 95,83 %
29.03.2016 06:45 6,9 C 84 % 1009,0 hPa 0,0 l/m 6,6 km/h (2 Bft) S-SW 193 0 min 0,000 mm 0,0 UV-I 0 W/m 4,4 C 6,8 C 9,7 km/h (2 Bft) 95,65 %
29.03.2016 06:46 6,9 C 83 % 1009,0 hPa 0,0 l/m 6,2 km/h (2 Bft) S 190 0 min 0,000 mm 0,0 UV-I 0 W/m 4,2 C 6,9 C 9,7 km/h (2 Bft) 100,00 %
29.03.2016 06:47 6,9 C 83 % 1009,0 hPa 0,0 l/m 4,9 km/h (1 Bft) S 189 0 min 0,000 mm 0,0 UV-I 3 W/m 4,2 C 6,9 C 8,0 km/h (2 Bft) 91,30 %
29.03.2016 06:48 6,9 C 83 % 1009,1 hPa 0,0 l/m 5,1 km/h (1 Bft) SW 234 0 min 0,000 mm 0,0 UV-I 5 W/m 4,2 C 6,9 C 6,4 km/h (2 Bft) 100,00 %
29.03.2016 06:49 6,9 C 83 % 1009,1 hPa 0,0 l/m 5,0 km/h (1 Bft) S-SW 205 0 min 0,000 mm 0,0 UV-I 5 W/m 4,2 C 6,9 C 6,4 km/h (2 Bft) 91,30 %
29.03.2016 06:50 6,9 C 83 % 1009,2 hPa 0,0 l/m 3,0 km/h (1 Bft) S-SW 205 0 min 0,000 mm 0,0 UV-I 5 W/m 4,2 C 6,9 C 4,8 km/h (1 Bft) 95,83 %
29.03.2016 06:51 6,9 C 83 % 1009,2 hPa 0,0 l/m 5,9 km/h (2 Bft) S-SW 205 0 min 0,000 mm 0,0 UV-I 5 W/m 4,2 C 6,9 C 8,0 km/h (2 Bft) 100,00 %
29.03.2016 06:52 6,9 C 83 % 1009,2 hPa 0,0 l/m 7,1 km/h (2 Bft) SW 214 0 min 0,000 mm 0,0 UV-I 6 W/m 4,2 C 6,3 C 9,7 km/h (2 Bft) 95,83 %
29.03.2016 06:53 6,9 C 83 % 1009,2 hPa 0,0 l/m 7,0 km/h (2 Bft) SW 223 0 min 0,000 mm 0,0 UV-I 7 W/m 4,2 C 6,4 C 9,7 km/h (2 Bft) 100,00 %
29.03.2016 06:54 6,9 C 83 % 1009,3 hPa 0,0 l/m 5,6 km/h (1 Bft) S-SW 209 0 min 0,000 mm 0,0 UV-I 7 W/m 4,2 C 6,9 C 8,0 km/h (2 Bft) 91,67 %
29.03.2016 06:55 6,9 C 83 % 1009,3 hPa 0,0 l/m 4,1 km/h (1 Bft) SW 219 0 min 0,000 mm 0,0 UV-I 7 W/m 4,2 C 6,9 C 6,4 km/h (2 Bft) 100,00 %
29.03.2016 06:56 6,8 C 83 % 1009,3 hPa 0,0 l/m 6,5 km/h (2 Bft) SW 236 0 min 0,000 mm 0,0 UV-I 8 W/m 4,1 C 6,7 C 9,7 km/h (2 Bft) 91,30 %
29.03.2016 06:57 6,8 C 84 % 1009,3 hPa 0,0 l/m 5,9 km/h (2 Bft) W-SW 245 0 min 0,000 mm 0,0 UV-I 9 W/m 4,3 C 6,8 C 8,0 km/h (2 Bft) 100,00 %
29.03.2016 06:58 6,8 C 84 % 1009,3 hPa 0,0 l/m 6,3 km/h (2 Bft) W 267 1 min 0,000 mm 0,0 UV-I 9 W/m 4,3 C 6,8 C 9,7 km/h (2 Bft) 100,00 %
29.03.2016 06:59 6,7 C 84 % 1009,4 hPa 0,0 l/m 4,8 km/h (1 Bft) W-SW 258 0 min 0,000 mm 0,0 UV-I 10 W/m 4,2 C 6,7 C 6,4 km/h (2 Bft) 100,00 %
29.03.2016 07:00 6,7 C 84 % 1009,5 hPa 0,0 l/m 4,8 km/h (1 Bft) W-SW 237 0 min 0,000 mm 0,0 UV-I 12 W/m 4,2 C 6,7 C 6,4 km/h (2 Bft) 100,00 %
29.03.2016 07:02 6,6 C 85 % 1009,5 hPa 0,0 l/m 5,5 km/h (1 Bft) W-SW 254 2 min 0,000 mm 0,0 UV-I 17 W/m 4,3 C 6,6 C 9,7 km/h (2 Bft) 97,87 %
29.03.2016 07:03 6,6 C 85 % 1009,6 hPa 0,0 l/m 8,7 km/h (2 Bft) W 263 1 min 0,000 mm 0,0 UV-I 22 W/m 4,3 C 4,8 C 12,9 km/h (3 Bft) 95,83 %
29.03.2016 07:04 6,6 C 85 % 1009,6 hPa 0,0 l/m 8,4 km/h (2 Bft) SW 228 1 min 0,000 mm 0,0 UV-I 26 W/m 4,3 C 5,0 C 11,3 km/h (2 Bft) 100,00 %
29.03.2016 07:05 6,7 C 85 % 1009,6 hPa 0,0 l/m 7,6 km/h (2 Bft) SW 214 1 min 0,000 mm 0,0 UV-I 28 W/m 4,4 C 5,7 C 11,3 km/h (2 Bft) 100,00 %
29.03.2016 07:06 6,7 C 85 % 1009,6 hPa 0,0 l/m 7,8 km/h (2 Bft) S 174 1 min 0,000 mm 0,0 UV-I 28 W/m 4,4 C 5,5 C 12,9 km/h (3 Bft) 100,00 %
29.03.2016 07:07 6,7 C 85 % 1009,5 hPa 0,0 l/m 7,6 km/h (2 Bft) SW 230 1 min 0,000 mm 0,0 UV-I 26 W/m 4,4 C 5,7 C 14,5 km/h (3 Bft) 100,00 %
29.03.2016 07:08 6,8 C 85 % 1009,5 hPa 0,0 l/m 9,8 km/h (2 Bft) W-SW 238 1 min 0,000 mm 0,0 UV-I 26 W/m 4,5 C 4,2 C 12,9 km/h (3 Bft) 100,00 %
29.03.2016 07:09 6,8 C 85 % 1009,5 hPa 0,0 l/m 8,5 km/h (2 Bft) S-SW 198 0 min 0,000 mm 0,0 UV-I 26 W/m 4,5 C 5,1 C 12,9 km/h (3 Bft) 100,00 %
29.03.2016 07:10 6,9 C 85 % 1009,6 hPa 0,0 l/m 7,7 km/h (2 Bft) W-SW 247 0 min 0,000 mm 0,0 UV-I 26 W/m 4,6 C 5,8 C 12,9 km/h (3 Bft) 100,00 %
29.03.2016 07:11 7,0 C 85 % 1009,7 hPa 0,0 l/m 7,7 km/h (2 Bft) W-SW 243 0 min 0,000 mm 0,0 UV-I 26 W/m 4,7 C 5,9 C 12,9 km/h (3 Bft) 100,00 %
29.03.2016 07:12 7,1 C 84 % 1009,7 hPa 0,0 l/m 5,2 km/h (1 Bft) W-SW 246 0 min 0,000 mm 0,0 UV-I 25 W/m 4,6 C 7,1 C 8,0 km/h (2 Bft) 95,65 %
29.03.2016 07:13 7,2 C 84 % 1009,7 hPa 0,0 l/m 8,0 km/h (2 Bft) W-NW 284 0 min 0,000 mm 0,0 UV-I 23 W/m 4,7 C 5,9 C 12,9 km/h (3 Bft) 100,00 %
29.03.2016 07:14 7,2 C 84 % 1009,8 hPa 0,0 l/m 3,9 km/h (1 Bft) W-NW 298 0 min 0,000 mm 0,0 UV-I 24 W/m 4,7 C 7,2 C 6,4 km/h (2 Bft) 100,00 %
29.03.2016 07:15 7,3 C 84 % 1009,8 hPa 0,0 l/m 6,8 km/h (2 Bft) W-NW 286 0 min 0,000 mm 0,0 UV-I 26 W/m 4,8 C 7,0 C 11,3 km/h (2 Bft) 100,00 %
29.03.2016 07:16 7,3 C 84 % 1009,7 hPa 0,0 l/m 4,3 km/h (1 Bft) W 273 0 min 0,000 mm 0,0 UV-I 30 W/m 4,8 C 7,3 C 6,4 km/h (2 Bft) 95,65 %
29.03.2016 07:17 7,3 C 84 % 1009,9 hPa 0,0 l/m 4,5 km/h (1 Bft) W-NW 292 0 min 0,000 mm 0,0 UV-I 34 W/m 4,8 C 7,3 C 11,3 km/h (2 Bft) 100,00 %
29.03.2016 07:18 7,3 C 84 % 1009,9 hPa 0,0 l/m 7,6 km/h (2 Bft) W 259 0 min 0,000 mm 0,0 UV-I 35 W/m 4,8 C 6,3 C 12,9 km/h (3 Bft) 100,00 %
29.03.2016 07:19 7,3 C 84 % 1010,0 hPa 0,0 l/m 8,4 km/h (2 Bft) W 273 0 min 0,000 mm 0,0 UV-I 34 W/m 4,8 C 5,7 C 12,9 km/h (3 Bft) 100,00 %
29.03.2016 07:20 7,4 C 83 % 1010,0 hPa 0,0 l/m 8,9 km/h (2 Bft) W 269 0 min 0,000 mm 0,0 UV-I 31 W/m 4,7 C 5,5 C 12,9 km/h (3 Bft) 100,00 %
29.03.2016 07:21 7,4 C 83 % 1010,0 hPa 0,0 l/m 8,5 km/h (2 Bft) W 277 0 min 0,000 mm 0,0 UV-I 29 W/m 4,7 C 5,8 C 14,5 km/h (3 Bft) 100,00 %
29.03.2016 07:22 7,5 C 83 % 1010,1 hPa 0,0 l/m 6,2 km/h (2 Bft) W 259 0 min 0,000 mm 0,0 UV-I 28 W/m 4,8 C 7,5 C 9,7 km/h (2 Bft) 100,00 %
29.03.2016 07:23 7,5 C 83 % 1010,1 hPa 0,0 l/m 7,8 km/h (2 Bft) W-SW 244 0 min 0,000 mm 0,0 UV-I 26 W/m 4,8 C 6,4 C 9,7 km/h (2 Bft) 100,00 %
29.03.2016 07:24 7,6 C 83 % 1010,1 hPa 0,0 l/m 9,7 km/h (2 Bft) W-SW 253 0 min 0,000 mm 0,0 UV-I 26 W/m 4,9 C 5,1 C 14,5 km/h (3 Bft) 100,00 %
29.03.2016 07:25 7,6 C 83 % 1010,1 hPa 0,0 l/m 11,9 km/h (2 Bft) W 261 0 min 0,000 mm 0,0 UV-I 23 W/m 4,9 C 3,8 C 14,5 km/h (3 Bft) 100,00 %
29.03.2016 07:26 7,6 C 83 % 1010,1 hPa 0,0 l/m 9,6 km/h (2 Bft) W-SW 250 0 min 0,000 mm 0,0 UV-I 23 W/m 4,9 C 5,2 C 12,9 km/h (3 Bft) 100,00 %
29.03.2016 07:27 7,6 C 83 % 1010,2 hPa 0,0 l/m 10,8 km/h (2 Bft) W-SW 248 0 min 0,000 mm 0,0 UV-I 23 W/m 4,9 C 4,4 C 12,9 km/h (3 Bft) 95,65 %
29.03.2016 07:28 7,7 C 83 % 1010,2 hPa 0,0 l/m 9,3 km/h (2 Bft) W 273 0 min 0,000 mm 0,0 UV-I 24 W/m 5,0 C 5,5 C 12,9 km/h (3 Bft) 100,00 %
29.03.2016 07:29 7,7 C 83 % 1010,2 hPa 0,0 l/m 6,1 km/h (2 Bft) W-SW 258 0 min 0,000 mm 0,0 UV-I 26 W/m 5,0 C 7,7 C 11,3 km/h (2 Bft) 100,00 %
29.03.2016 07:30 7,7 C 83 % 1010,2 hPa 0,0 l/m 10,6 km/h (2 Bft) W-SW 254 0 min 0,000 mm 0,0 UV-I 28 W/m 5,0 C 4,7 C 12,9 km/h (3 Bft) 100,00 %
29.03.2016 07:31 7,7 C 82 % 1010,2 hPa 0,0 l/m 8,4 km/h (2 Bft) W 275 0 min 0,000 mm 0,0 UV-I 30 W/m 4,8 C 6,1 C 11,3 km/h (2 Bft) 100,00 %
29.03.2016 07:32 7,8 C 82 % 1010,3 hPa 0,0 l/m 7,4 km/h (2 Bft) W 269 0 min 0,000 mm 0,0 UV-I 30 W/m 4,9 C 7,0 C 11,3 km/h (2 Bft) 100,00 %
29.03.2016 07:33 7,8 C 82 % 1010,3 hPa 0,0 l/m 8,8 km/h (2 Bft) W-SW 256 0 min 0,000 mm 0,0 UV-I 31 W/m 4,9 C 6,0 C 11,3 km/h (2 Bft) 100,00 %
29.03.2016 07:34 7,8 C 82 % 1010,3 hPa 0,0 l/m 10,1 km/h (2 Bft) W-NW 294 0 min 0,000 mm 0,0 UV-I 33 W/m 4,9 C 5,1 C 14,5 km/h (3 Bft) 100,00 %
29.03.2016 07:35 7,9 C 82 % 1010,3 hPa 0,0 l/m 10,2 km/h (2 Bft) W 263 0 min 0,000 mm 0,0 UV-I 36 W/m 5,0 C 5,1 C 16,1 km/h (3 Bft) 95,83 %
29.03.2016 07:36 7,9 C 81 % 1010,3 hPa 0,0 l/m 10,8 km/h (2 Bft) W 271 0 min 0,000 mm 0,0 UV-I 40 W/m 4,8 C 4,8 C 16,1 km/h (3 Bft) 100,00 %
29.03.2016 07:37 8,0 C 81 % 1010,3 hPa 0,0 l/m 10,0 km/h (2 Bft) W-NW 285 0 min 0,000 mm 0,0 UV-I 44 W/m 4,9 C 5,4 C 12,9 km/h (3 Bft) 100,00 %
29.03.2016 07:38 8,1 C 81 % 1010,3 hPa 0,0 l/m 14,1 km/h (3 Bft) W 260 0 min 0,000 mm 0,0 UV-I 50 W/m 5,0 C 3,3 C 20,9 km/h (4 Bft) 96,15 %
29.03.2016 07:39 8,2 C 79 % 1010,3 hPa 0,0 l/m 8,0 km/h (2 Bft) W-NW 283 0 min 0,000 mm 0,0 UV-I 56 W/m 4,8 C 7,0 C 12,9 km/h (3 Bft) 100,00 %
29.03.2016 07:40 8,3 C 79 % 1010,3 hPa 0,0 l/m 8,0 km/h (2 Bft) W-NW 290 0 min 0,000 mm 0,0 UV-I 61 W/m 4,9 C 7,1 C 12,9 km/h (3 Bft) 100,00 %
29.03.2016 07:41 8,3 C 79 % 1010,3 hPa 0,0 l/m 9,4 km/h (2 Bft) SW 230 0 min 0,000 mm 0,0 UV-I 63 W/m 4,9 C 6,1 C 12,9 km/h (3 Bft) 100,00 %
29.03.2016 07:42 8,4 C 78 % 1010,3 hPa 0,0 l/m 9,7 km/h (2 Bft) W 262 0 min 0,000 mm 0,0 UV-I 68 W/m 4,8 C 6,0 C 14,5 km/h (3 Bft) 100,00 %
29.03.2016 07:43 8,5 C 78 % 1010,3 hPa 0,0 l/m 10,1 km/h (2 Bft) W 271 0 min 0,000 mm 0,0 UV-I 73 W/m 4,9 C 5,9 C 16,1 km/h (3 Bft) 100,00 %
29.03.2016 07:44 8,6 C 78 % 1010,3 hPa 0,0 l/m 5,3 km/h (1 Bft) W-SW 250 0 min 0,000 mm 0,0 UV-I 79 W/m 5,0 C 8,6 C 8,0 km/h (2 Bft) 100,00 %
29.03.2016 07:45 8,6 C 77 % 1010,4 hPa 0,0 l/m 8,4 km/h (2 Bft) W 260 1 min 0,000 mm 0,0 UV-I 86 W/m 4,8 C 7,1 C 16,1 km/h (3 Bft) 100,00 %
29.03.2016 07:46 8,7 C 78 % 1010,5 hPa 0,0 l/m 6,3 km/h (2 Bft) W-NW 284 1 min 0,000 mm 0,0 UV-I 93 W/m 5,1 C 8,7 C 11,3 km/h (2 Bft) 100,00 %
29.03.2016 07:47 8,7 C 78 % 1010,6 hPa 0,0 l/m 9,3 km/h (2 Bft) W 262 1 min 0,000 mm 0,0 UV-I 98 W/m 5,1 C 6,6 C 12,9 km/h (3 Bft) 100,00 %
29.03.2016 07:48 8,8 C 77 % 1010,6 hPa 0,0 l/m 11,8 km/h (2 Bft) W-SW 251 1 min 0,000 mm 0,0 UV-I 102 W/m 5,0 C 5,2 C 17,7 km/h (3 Bft) 95,65 %
29.03.2016 07:49 8,8 C 77 % 1010,6 hPa 0,0 l/m 13,5 km/h (3 Bft) W 261 1 min 0,000 mm 0,0 UV-I 101 W/m 5,0 C 4,4 C 17,7 km/h (3 Bft) 100,00 %
29.03.2016 07:50 8,8 C 76 % 1010,7 hPa 0,0 l/m 9,1 km/h (2 Bft) W-SW 249 1 min 0,000 mm 0,0 UV-I 103 W/m 4,8 C 6,8 C 16,1 km/h (3 Bft) 95,65 %
29.03.2016 07:51 8,9 C 77 % 1010,7 hPa 0,0 l/m 12,7 km/h (3 Bft) W 265 1 min 0,000 mm 0,0 UV-I 105 W/m 5,1 C 4,9 C 17,7 km/h (3 Bft) 100,00 %
29.03.2016 07:52 8,9 C 76 % 1010,7 hPa 0,0 l/m 10,3 km/h (2 Bft) W-SW 245 1 min 0,000 mm 0,0 UV-I 106 W/m 4,9 C 6,2 C 16,1 km/h (3 Bft) 100,00 %
29.03.2016 07:53 8,9 C 76 % 1010,8 hPa 0,0 l/m 10,7 km/h (2 Bft) W-NW 292 1 min 0,000 mm 0,0 UV-I 113 W/m 4,9 C 6,0 C 16,1 km/h (3 Bft) 100,00 %
29.03.2016 07:54 8,9 C 76 % 1010,8 hPa 0,0 l/m 15,0 km/h (3 Bft) W-NW 284 1 min 0,000 mm 0,0 UV-I 121 W/m 4,9 C 3,8 C 25,7 km/h (4 Bft) 100,00 %
29.03.2016 07:55 9,0 C 76 % 1010,8 hPa 0,0 l/m 14,8 km/h (3 Bft) W-NW 285 1 min 0,000 mm 0,0 UV-I 128 W/m 5,0 C 4,0 C 22,5 km/h (4 Bft) 100,00 %
29.03.2016 07:56 9,0 C 76 % 1010,9 hPa 0,0 l/m 11,8 km/h (2 Bft) NW 324 1 min 0,000 mm 0,0 UV-I 133 W/m 5,0 C 5,5 C 16,1 km/h (3 Bft) 100,00 %
29.03.2016 07:57 9,1 C 76 % 1011,0 hPa 0,0 l/m 14,2 km/h (3 Bft) W-NW 290 1 min 0,000 mm 0,0 UV-I 124 W/m 5,1 C 4,4 C 27,4 km/h (4 Bft) 100,00 %
29.03.2016 07:58 9,1 C 75 % 1010,9 hPa 0,0 l/m 12,2 km/h (2 Bft) W 273 1 min 0,000 mm 0,0 UV-I 106 W/m 4,9 C 5,4 C 17,7 km/h (3 Bft) 100,00 %
29.03.2016 07:59 9,1 C 75 % 1010,9 hPa 0,0 l/m 13,4 km/h (3 Bft) W 279 0 min 0,000 mm 0,0 UV-I 101 W/m 4,9 C 4,8 C 20,9 km/h (4 Bft) 100,00 %
29.03.2016 08:00 9,1 C 75 % 1010,9 hPa 0,0 l/m 11,0 km/h (2 Bft) W-SW 257 0 min 0,051 mm 0,0 UV-I 68 W/m 4,9 C 6,0 C 25,7 km/h (4 Bft) 100,00 %
29.03.2016 08:02 9,2 C 75 % 1011,0 hPa 0,0 l/m 10,8 km/h (2 Bft) W 274 0 min 0,000 mm 0,0 UV-I 56 W/m 5,0 C 6,2 C 20,9 km/h (4 Bft) 95,74 %
29.03.2016 08:03 9,2 C 75 % 1011,0 hPa 0,0 l/m 8,6 km/h (2 Bft) NW 306 0 min 0,000 mm 0,0 UV-I 68 W/m 5,0 C 7,6 C 16,1 km/h (3 Bft) 100,00 %
29.03.2016 08:04 9,2 C 76 % 1011,1 hPa 0,0 l/m 10,0 km/h (2 Bft) W-NW 285 0 min 0,000 mm 0,0 UV-I 57 W/m 5,2 C 6,7 C 16,1 km/h (3 Bft) 100,00 %
29.03.2016 08:05 9,1 C 76 % 1011,0 hPa 0,0 l/m 16,3 km/h (3 Bft) W-SW 248 0 min 0,000 mm 0,0 UV-I 62 W/m 5,1 C 3,5 C 25,7 km/h (4 Bft) 100,00 %
29.03.2016 08:06 9,1 C 76 % 1011,1 hPa 0,0 l/m 8,9 km/h (2 Bft) SW 218 0 min 0,000 mm 0,0 UV-I 74 W/m 5,1 C 7,3 C 16,1 km/h (3 Bft) 100,00 %
29.03.2016 08:07 9,1 C 76 % 1011,1 hPa 0,0 l/m 7,3 km/h (2 Bft) W-SW 241 0 min 0,000 mm 0,0 UV-I 86 W/m 5,1 C 8,4 C 12,9 km/h (3 Bft) 96,15 %
29.03.2016 08:08 9,0 C 77 % 1011,1 hPa 0,0 l/m 15,2 km/h (3 Bft) W-SW 241 0 min 0,000 mm 0,0 UV-I 91 W/m 5,2 C 3,8 C 24,1 km/h (4 Bft) 100,00 %
29.03.2016 08:09 8,9 C 77 % 1011,1 hPa 0,0 l/m 9,7 km/h (2 Bft) W 275 0 min 0,000 mm 0,0 UV-I 92 W/m 5,1 C 6,6 C 17,7 km/h (3 Bft) 100,00 %
29.03.2016 08:10 8,9 C 77 % 1011,1 hPa 0,0 l/m 16,3 km/h (3 Bft) W 271 0 min 0,000 mm 0,0 UV-I 96 W/m 5,1 C 3,2 C 30,6 km/h (5 Bft) 100,00 %
29.03.2016 08:11 8,9 C 77 % 1011,1 hPa 0,0 l/m 13,3 km/h (3 Bft) W-NW 290 0 min 0,000 mm 0,0 UV-I 104 W/m 5,1 C 4,6 C 20,9 km/h (4 Bft) 100,00 %
29.03.2016 08:12 8,9 C 77 % 1011,1 hPa 0,0 l/m 9,7 km/h (2 Bft) W 275 0 min 0,000 mm 0,0 UV-I 106 W/m 5,1 C 6,6 C 16,1 km/h (3 Bft) 100,00 %
29.03.2016 08:13 8,9 C 77 % 1011,1 hPa 0,0 l/m 12,9 km/h (3 Bft) W 269 0 min 0,000 mm 0,0 UV-I 101 W/m 5,1 C 4,8 C 22,5 km/h (4 Bft) 95,65 %
29.03.2016 08:14 8,9 C 77 % 1011,1 hPa 0,0 l/m 12,5 km/h (3 Bft) W 260 0 min 0,000 mm 0,0 UV-I 88 W/m 5,1 C 5,0 C 19,3 km/h (3 Bft) 95,83 %
29.03.2016 08:15 8,9 C 77 % 1011,2 hPa 0,0 l/m 10,4 km/h (2 Bft) W-NW 284 0 min 0,000 mm 0,0 UV-I 76 W/m 5,1 C 6,1 C 12,9 km/h (3 Bft) 100,00 %
29.03.2016 08:16 8,9 C 77 % 1011,2 hPa 0,0 l/m 8,7 km/h (2 Bft) W 274 0 min 0,000 mm 0,0 UV-I 64 W/m 5,1 C 7,2 C 22,5 km/h (4 Bft) 100,00 %
29.03.2016 08:17 8,9 C 78 % 1011,2 hPa 0,0 l/m 15,7 km/h (3 Bft) W 277 0 min 0,000 mm 0,0 UV-I 56 W/m 5,3 C 3,5 C 20,9 km/h (4 Bft) 100,00 %
29.03.2016 08:18 8,9 C 77 % 1011,2 hPa 0,0 l/m 10,4 km/h (2 Bft) W 259 0 min 0,000 mm 0,0 UV-I 55 W/m 5,1 C 6,1 C 22,5 km/h (4 Bft) 95,65 %
29.03.2016 08:19 8,9 C 77 % 1011,1 hPa 0,0 l/m 12,9 km/h (3 Bft) W 274 0 min 0,000 mm 0,0 UV-I 49 W/m 5,1 C 4,8 C 20,9 km/h (4 Bft) 100,00 %
29.03.2016 08:20 8,8 C 77 % 1011,1 hPa 0,0 l/m 12,3 km/h (3 Bft) W 259 0 min 0,000 mm 0,0 UV-I 45 W/m 5,0 C 5,0 C 19,3 km/h (3 Bft) 100,00 %
29.03.2016 08:21 8,8 C 78 % 1011,2 hPa 0,0 l/m 11,3 km/h (2 Bft) W-SW 246 0 min 0,000 mm 0,0 UV-I 40 W/m 5,2 C 5,5 C 16,1 km/h (3 Bft) 100,00 %
29.03.2016 08:22 8,8 C 78 % 1011,2 hPa 0,0 l/m 14,8 km/h (3 Bft) W 267 0 min 0,000 mm 0,0 UV-I 37 W/m 5,2 C 3,8 C 17,7 km/h (3 Bft) 100,00 %
29.03.2016 08:23 8,8 C 78 % 1011,3 hPa 0,0 l/m 13,5 km/h (3 Bft) W-NW 284 0 min 0,000 mm 0,0 UV-I 33 W/m 5,2 C 4,4 C 17,7 km/h (3 Bft) 100,00 %
29.03.2016 08:24 8,8 C 78 % 1011,3 hPa 0,0 l/m 11,3 km/h (2 Bft) W 261 0 min 0,000 mm 0,0 UV-I 33 W/m 5,2 C 5,5 C 14,5 km/h (3 Bft) 100,00 %
29.03.2016 08:25 8,8 C 78 % 1011,4 hPa 0,0 l/m 10,4 km/h (2 Bft) W 271 0 min 0,000 mm 0,0 UV-I 32 W/m 5,2 C 6,0 C 12,9 km/h (3 Bft) 100,00 %
29.03.2016 08:26 8,7 C 79 % 1011,3 hPa 0,0 l/m 9,1 km/h (2 Bft) W-SW 255 0 min 0,000 mm 0,0 UV-I 31 W/m 5,3 C 6,7 C 14,5 km/h (3 Bft) 100,00 %
29.03.2016 08:27 8,7 C 79 % 1011,3 hPa 0,0 l/m 11,0 km/h (2 Bft) W-SW 254 0 min 0,000 mm 0,0 UV-I 28 W/m 5,3 C 5,6 C 17,7 km/h (3 Bft) 92,59 %
29.03.2016 08:28 8,7 C 79 % 1011,3 hPa 0,0 l/m 9,2 km/h (2 Bft) W-SW 249 0 min 0,000 mm 0,0 UV-I 26 W/m 5,3 C 6,7 C 12,9 km/h (3 Bft) 95,65 %
29.03.2016 08:29 8,7 C 79 % 1011,3 hPa 0,0 l/m 9,2 km/h (2 Bft) W 279 0 min 0,000 mm 0,0 UV-I 26 W/m 5,3 C 6,7 C 12,9 km/h (3 Bft) 92,59 %
29.03.2016 08:30 8,6 C 79 % 1011,3 hPa 0,0 l/m 9,4 km/h (2 Bft) W-SW 241 0 min 0,000 mm 0,0 UV-I 27 W/m 5,2 C 6,4 C 14,5 km/h (3 Bft) 100,00 %
29.03.2016 08:31 8,6 C 79 % 1011,3 hPa 0,0 l/m 11,8 km/h (2 Bft) W-NW 290 0 min 0,000 mm 0,0 UV-I 32 W/m 5,2 C 5,0 C 16,1 km/h (3 Bft) 95,83 %
29.03.2016 08:32 8,6 C 79 % 1011,3 hPa 0,0 l/m 5,6 km/h (1 Bft) W 273 0 min 0,000 mm 0,0 UV-I 39 W/m 5,2 C 8,6 C 9,7 km/h (2 Bft) 100,00 %
29.03.2016 08:33 8,6 C 80 % 1011,3 hPa 0,0 l/m 8,6 km/h (2 Bft) W 259 0 min 0,000 mm 0,0 UV-I 49 W/m 5,3 C 7,0 C 16,1 km/h (3 Bft) 95,83 %
29.03.2016 08:34 8,6 C 79 % 1011,3 hPa 0,0 l/m 9,5 km/h (2 Bft) W 270 0 min 0,000 mm 0,0 UV-I 59 W/m 5,2 C 6,4 C 14,5 km/h (3 Bft) 95,65 %
29.03.2016 08:35 8,6 C 79 % 1011,4 hPa 0,0 l/m 11,6 km/h (2 Bft) W-SW 239 0 min 0,000 mm 0,0 UV-I 58 W/m 5,2 C 5,1 C 16,1 km/h (3 Bft) 100,00 %
29.03.2016 08:36 8,6 C 79 % 1011,4 hPa 0,0 l/m 10,4 km/h (2 Bft) W-SW 246 0 min 0,000 mm 0,0 UV-I 50 W/m 5,2 C 5,8 C 14,5 km/h (3 Bft) 95,65 %
29.03.2016 08:37 8,6 C 79 % 1011,4 hPa 0,0 l/m 14,3 km/h (3 Bft) W-SW 258 0 min 0,000 mm 0,0 UV-I 40 W/m 5,2 C 3,8 C 16,1 km/h (3 Bft) 100,00 %
29.03.2016 08:38 8,6 C 79 % 1011,4 hPa 0,0 l/m 11,1 km/h (2 Bft) W-SW 239 0 min 0,000 mm 0,0 UV-I 34 W/m 5,2 C 5,4 C 16,1 km/h (3 Bft) 95,83 %
29.03.2016 08:39 8,6 C 79 % 1011,4 hPa 0,0 l/m 10,6 km/h (2 Bft) W 263 0 min 0,000 mm 0,0 UV-I 31 W/m 5,2 C 5,7 C 17,7 km/h (3 Bft) 100,00 %
29.03.2016 08:40 8,7 C 79 % 1011,4 hPa 0,0 l/m 9,5 km/h (2 Bft) SW 230 0 min 0,000 mm 0,0 UV-I 26 W/m 5,3 C 6,5 C 12,9 km/h (3 Bft) 95,83 %
29.03.2016 08:41 8,7 C 79 % 1011,5 hPa 0,0 l/m 10,4 km/h (2 Bft) W-SW 247 0 min 0,000 mm 0,0 UV-I 25 W/m 5,3 C 5,9 C 14,5 km/h (3 Bft) 100,00 %
29.03.2016 08:42 8,7 C 79 % 1011,5 hPa 0,0 l/m 11,3 km/h (2 Bft) S-SW 205 0 min 0,000 mm 0,0 UV-I 26 W/m 5,3 C 5,4 C 14,5 km/h (3 Bft) 95,83 %
29.03.2016 08:43 8,7 C 78 % 1011,5 hPa 0,0 l/m 9,5 km/h (2 Bft) W-SW 238 0 min 0,000 mm 0,0 UV-I 30 W/m 5,1 C 6,5 C 12,9 km/h (3 Bft) 95,65 %
29.03.2016 08:44 8,7 C 78 % 1011,5 hPa 0,0 l/m 12,3 km/h (3 Bft) W-SW 248 0 min 0,000 mm 0,0 UV-I 36 W/m 5,1 C 4,9 C 17,7 km/h (3 Bft) 95,83 %
29.03.2016 08:45 8,7 C 78 % 1011,5 hPa 0,0 l/m 8,9 km/h (2 Bft) SW 231 0 min 0,000 mm 0,0 UV-I 39 W/m 5,1 C 6,9 C 12,9 km/h (3 Bft) 91,30 %
29.03.2016 08:46 8,7 C 78 % 1011,5 hPa 0,0 l/m 11,3 km/h (2 Bft) W-SW 244 0 min 0,000 mm 0,0 UV-I 39 W/m 5,1 C 5,4 C 14,5 km/h (3 Bft) 100,00 %
29.03.2016 08:47 8,7 C 78 % 1011,5 hPa 0,0 l/m 9,9 km/h (2 Bft) SW 228 0 min 0,000 mm 0,0 UV-I 40 W/m 5,1 C 6,2 C 12,9 km/h (3 Bft) 95,65 %
29.03.2016 08:48 8,8 C 78 % 1011,5 hPa 0,0 l/m 8,8 km/h (2 Bft) SW 225 0 min 0,000 mm 0,0 UV-I 44 W/m 5,2 C 7,0 C 11,3 km/h (2 Bft) 100,00 %
29.03.2016 08:49 8,8 C 78 % 1011,6 hPa 0,0 l/m 8,7 km/h (2 Bft) W-SW 250 0 min 0,000 mm 0,0 UV-I 48 W/m 5,2 C 7,1 C 12,9 km/h (3 Bft) 95,65 %
29.03.2016 08:50 8,8 C 77 % 1011,5 hPa 0,0 l/m 10,9 km/h (2 Bft) W-SW 243 0 min 0,000 mm 0,0 UV-I 52 W/m 5,0 C 5,7 C 17,7 km/h (3 Bft) 100,00 %
29.03.2016 08:52 8,8 C 78 % 1011,5 hPa 0,0 l/m 12,5 km/h (3 Bft) SW 229 0 min 0,000 mm 0,0 UV-I 60 W/m 5,2 C 4,9 C 20,9 km/h (4 Bft) 95,74 %
29.03.2016 08:53 8,8 C 77 % 1011,6 hPa 0,0 l/m 17,8 km/h (3 Bft) SW 217 0 min 0,000 mm 0,0 UV-I 58 W/m 5,0 C 2,5 C 24,1 km/h (4 Bft) 100,00 %
29.03.2016 08:54 8,8 C 77 % 1011,5 hPa 0,0 l/m 11,2 km/h (2 Bft) SW 227 0 min 0,000 mm 0,0 UV-I 55 W/m 5,0 C 5,6 C 14,5 km/h (3 Bft) 95,83 %
29.03.2016 08:55 8,8 C 77 % 1011,5 hPa 0,0 l/m 8,9 km/h (2 Bft) S-SW 207 0 min 0,000 mm 0,0 UV-I 54 W/m 5,0 C 7,0 C 14,5 km/h (3 Bft) 100,00 %
29.03.2016 08:56 8,9 C 77 % 1011,5 hPa 0,0 l/m 13,7 km/h (3 Bft) SW 226 0 min 0,000 mm 0,0 UV-I 53 W/m 5,1 C 4,4 C 17,7 km/h (3 Bft) 95,65 %
29.03.2016 08:57 8,9 C 76 % 1011,6 hPa 0,0 l/m 13,3 km/h (3 Bft) SW 225 0 min 0,000 mm 0,0 UV-I 50 W/m 4,9 C 4,6 C 17,7 km/h (3 Bft) 100,00 %
29.03.2016 08:58 8,9 C 76 % 1011,6 hPa 0,0 l/m 14,6 km/h (3 Bft) SW 229 0 min 0,000 mm 0,0 UV-I 46 W/m 4,9 C 4,0 C 17,7 km/h (3 Bft) 91,30 %
29.03.2016 08:59 8,9 C 76 % 1011,7 hPa 0,0 l/m 9,7 km/h (2 Bft) W-SW 246 0 min 0,000 mm 0,0 UV-I 41 W/m 4,9 C 6,6 C 12,9 km/h (3 Bft) 100,00 %
29.03.2016 09:00 8,9 C 77 % 1011,7 hPa 0,0 l/m 10,7 km/h (2 Bft) SW 234 0 min 0,000 mm 0,0 UV-I 40 W/m 5,1 C 6,0 C 14,5 km/h (3 Bft) 95,65 %
29.03.2016 09:02 8,9 C 77 % 1011,8 hPa 0,0 l/m 11,4 km/h (2 Bft) W-SW 242 0 min 0,051 mm 0,0 UV-I 42 W/m 5,1 C 5,6 C 16,1 km/h (3 Bft) 100,00 %
29.03.2016 09:03 8,8 C 77 % 1011,9 hPa 0,0 l/m 11,9 km/h (2 Bft) SW 227 0 min 0,000 mm 0,0 UV-I 40 W/m 5,0 C 5,2 C 16,1 km/h (3 Bft) 100,00 %
29.03.2016 09:04 8,8 C 77 % 1011,9 hPa 0,0 l/m 11,3 km/h (2 Bft) SW 225 0 min 0,000 mm 0,0 UV-I 39 W/m 5,0 C 5,5 C 14,5 km/h (3 Bft) 100,00 %
29.03.2016 09:05 8,8 C 78 % 1011,9 hPa 0,0 l/m 10,1 km/h (2 Bft) W-SW 240 0 min 0,000 mm 0,0 UV-I 39 W/m 5,2 C 6,2 C 14,5 km/h (3 Bft) 93,33 %
29.03.2016 09:06 8,8 C 77 % 1011,9 hPa 0,0 l/m 9,8 km/h (2 Bft) W-SW 248 0 min 0,000 mm 0,0 UV-I 45 W/m 5,0 C 6,4 C 12,9 km/h (3 Bft) 95,65 %
29.03.2016 09:07 8,8 C 77 % 1011,9 hPa 0,0 l/m 10,0 km/h (2 Bft) W-SW 240 0 min 0,000 mm 0,0 UV-I 52 W/m 5,0 C 6,3 C 14,5 km/h (3 Bft) 100,00 %
29.03.2016 09:08 8,8 C 77 % 1011,9 hPa 0,0 l/m 6,8 km/h (2 Bft) W-SW 248 0 min 0,000 mm 0,0 UV-I 52 W/m 5,0 C 8,5 C 9,7 km/h (2 Bft) 95,65 %
29.03.2016 09:09 8,8 C 77 % 1012,0 hPa 0,0 l/m 9,9 km/h (2 Bft) SW 225 0 min 0,000 mm 0,0 UV-I 47 W/m 5,0 C 6,3 C 14,5 km/h (3 Bft) 96,15 %
29.03.2016 09:10 8,8 C 78 % 1012,0 hPa 0,0 l/m 10,6 km/h (2 Bft) W-SW 246 0 min 0,000 mm 0,0 UV-I 39 W/m 5,2 C 5,9 C 14,5 km/h (3 Bft) 96,15 %
29.03.2016 09:11 8,8 C 77 % 1012,0 hPa 0,0 l/m 11,2 km/h (2 Bft) SW 228 0 min 0,000 mm 0,0 UV-I 36 W/m 5,0 C 5,6 C 14,5 km/h (3 Bft) 100,00 %
29.03.2016 09:12 8,8 C 77 % 1012,0 hPa 0,0 l/m 8,1 km/h (2 Bft) SW 226 0 min 0,000 mm 0,0 UV-I 43 W/m 5,0 C 7,5 C 12,9 km/h (3 Bft) 95,65 %
29.03.2016 09:13 8,8 C 78 % 1012,0 hPa 0,0 l/m 10,0 km/h (2 Bft) SW 227 0 min 0,000 mm 0,0 UV-I 56 W/m 5,2 C 6,3 C 12,9 km/h (3 Bft) 100,00 %
29.03.2016 09:14 8,8 C 78 % 1011,9 hPa 0,0 l/m 8,9 km/h (2 Bft) SW 234 0 min 0,000 mm 0,0 UV-I 75 W/m 5,2 C 7,0 C 11,3 km/h (2 Bft) 100,00 %
29.03.2016 09:15 8,8 C 77 % 1012,1 hPa 0,0 l/m 10,1 km/h (2 Bft) SW 227 0 min 0,000 mm 0,0 UV-I 95 W/m 5,0 C 6,2 C 14,5 km/h (3 Bft) 95,83 %
29.03.2016 09:16 8,8 C 77 % 1012,0 hPa 0,0 l/m 12,4 km/h (3 Bft) SW 224 0 min 0,000 mm 0,0 UV-I 94 W/m 5,0 C 4,9 C 20,9 km/h (4 Bft) 100,00 %
29.03.2016 09:17 8,9 C 77 % 1012,1 hPa 0,0 l/m 14,8 km/h (3 Bft) W-SW 238 0 min 0,000 mm 0,0 UV-I 82 W/m 5,1 C 3,9 C 19,3 km/h (3 Bft) 100,00 %
29.03.2016 09:18 8,9 C 76 % 1012,0 hPa 0,0 l/m 11,6 km/h (2 Bft) S-SW 213 0 min 0,000 mm 0,0 UV-I 80 W/m 4,9 C 5,5 C 17,7 km/h (3 Bft) 100,00 %
29.03.2016 09:19 9,0 C 76 % 1012,1 hPa 0,0 l/m 6,8 km/h (2 Bft) SW 234 0 min 0,000 mm 0,0 UV-I 85 W/m 5,0 C 8,7 C 9,7 km/h (2 Bft) 100,00 %
29.03.2016 09:20 9,0 C 77 % 1012,1 hPa 0,0 l/m 8,7 km/h (2 Bft) SW 227 0 min 0,000 mm 0,0 UV-I 90 W/m 5,2 C 7,3 C 12,9 km/h (3 Bft) 100,00 %
29.03.2016 09:21 9,0 C 77 % 1012,0 hPa 0,0 l/m 11,7 km/h (2 Bft) SW 223 0 min 0,000 mm 0,0 UV-I 99 W/m 5,2 C 5,5 C 14,5 km/h (3 Bft) 96,55 %
29.03.2016 09:22 9,0 C 77 % 1012,1 hPa 0,0 l/m 10,2 km/h (2 Bft) SW 217 0 min 0,000 mm 0,0 UV-I 104 W/m 5,2 C 6,4 C 16,1 km/h (3 Bft) 100,00 %
29.03.2016 09:23 9,1 C 77 % 1012,1 hPa 0,0 l/m 7,2 km/h (2 Bft) W-SW 238 0 min 0,000 mm 0,0 UV-I 96 W/m 5,3 C 8,5 C 14,5 km/h (3 Bft) 100,00 %
29.03.2016 09:24 9,1 C 77 % 1012,1 hPa 0,0 l/m 5,2 km/h (1 Bft) W-SW 237 0 min 0,000 mm 0,0 UV-I 90 W/m 5,3 C 9,1 C 6,4 km/h (2 Bft) 100,00 %
29.03.2016 09:25 9,1 C 78 % 1012,1 hPa 0,0 l/m 7,8 km/h (2 Bft) W 271 0 min 0,000 mm 0,0 UV-I 92 W/m 5,5 C 8,1 C 14,5 km/h (3 Bft) 100,00 %
29.03.2016 09:26 9,1 C 78 % 1012,1 hPa 0,0 l/m 11,1 km/h (2 Bft) SW 225 0 min 0,000 mm 0,0 UV-I 95 W/m 5,5 C 6,0 C 20,9 km/h (4 Bft) 100,00 %
29.03.2016 09:27 9,1 C 77 % 1012,0 hPa 0,0 l/m 14,3 km/h (3 Bft) SW 234 0 min 0,000 mm 0,0 UV-I 100 W/m 5,3 C 4,4 C 19,3 km/h (3 Bft) 95,65 %
29.03.2016 09:28 9,1 C 76 % 1012,0 hPa 0,0 l/m 10,5 km/h (2 Bft) S-SW 195 0 min 0,000 mm 0,0 UV-I 102 W/m 5,1 C 6,3 C 12,9 km/h (3 Bft) 91,67 %
29.03.2016 09:31 9,2 C 76 % 1012,1 hPa 0,0 l/m 15,4 km/h (3 Bft) SW 236 0 min 0,000 mm 0,6 UV-I 151 W/m 5,2 C 4,0 C 17,7 km/h (3 Bft) 100,00 %
29.03.2016 09:32 9,3 C 76 % 1012,1 hPa 0,0 l/m 9,2 km/h (2 Bft) SW 227 0 min 0,000 mm 0,6 UV-I 155 W/m 5,3 C 7,3 C 12,9 km/h (3 Bft) 100,00 %
29.03.2016 09:33 9,3 C 75 % 1012,1 hPa 0,0 l/m 9,4 km/h (2 Bft) W 259 0 min 0,000 mm 0,7 UV-I 150 W/m 5,1 C 7,2 C 14,5 km/h (3 Bft) 100,00 %
29.03.2016 09:34 9,4 C 75 % 1012,1 hPa 0,0 l/m 11,6 km/h (2 Bft) SW 215 0 min 0,000 mm 0,7 UV-I 165 W/m 5,2 C 6,0 C 16,1 km/h (3 Bft) 100,00 %
29.03.2016 09:35 9,4 C 75 % 1012,1 hPa 0,0 l/m 10,8 km/h (2 Bft) SW 227 0 min 0,000 mm 0,9 UV-I 185 W/m 5,2 C 6,5 C 14,5 km/h (3 Bft) 91,67 %
29.03.2016 09:36 9,5 C 76 % 1012,0 hPa 0,0 l/m 9,9 km/h (2 Bft) SW 233 1 min 0,000 mm 1,1 UV-I 348 W/m 5,5 C 7,1 C 14,5 km/h (3 Bft) 100,00 %
29.03.2016 09:37 9,6 C 75 % 1012,1 hPa 0,0 l/m 5,5 km/h (1 Bft) S 188 1 min 0,000 mm 1,1 UV-I 436 W/m 5,4 C 9,6 C 8,0 km/h (2 Bft) 100,00 %
29.03.2016 09:38 9,7 C 74 % 1012,1 hPa 0,0 l/m 8,9 km/h (2 Bft) SW 236 1 min 0,000 mm 1,1 UV-I 543 W/m 5,3 C 7,9 C 12,9 km/h (3 Bft) 100,00 %
29.03.2016 09:39 9,8 C 74 % 1012,1 hPa 0,0 l/m 7,5 km/h (2 Bft) S-SW 192 1 min 0,000 mm 1,1 UV-I 584 W/m 5,4 C 9,0 C 12,9 km/h (3 Bft) 100,00 %
29.03.2016 09:40 9,9 C 75 % 1012,1 hPa 0,0 l/m 10,6 km/h (2 Bft) S-SW 201 1 min 0,000 mm 1,1 UV-I 616 W/m 5,7 C 7,1 C 17,7 km/h (3 Bft) 100,00 %
29.03.2016 09:41 10,1 C 74 % 1012,0 hPa 0,0 l/m 12,9 km/h (3 Bft) S 190 1 min 0,000 mm 1,1 UV-I 599 W/m 5,7 C 6,2 C 20,9 km/h (4 Bft) 97,62 %
29.03.2016 09:42 10,1 C 74 % 1012,0 hPa 0,0 l/m 12,5 km/h (3 Bft) S-SW 213 1 min 0,000 mm 1,0 UV-I 532 W/m 5,7 C 6,4 C 19,3 km/h (3 Bft) 100,00 %
29.03.2016 09:43 10,2 C 74 % 1012,0 hPa 0,0 l/m 10,3 km/h (2 Bft) W-SW 240 1 min 0,000 mm 1,0 UV-I 500 W/m 5,8 C 7,6 C 14,5 km/h (3 Bft) 100,00 %
29.03.2016 09:44 10,3 C 73 % 1012,1 hPa 0,0 l/m 8,1 km/h (2 Bft) SW 229 1 min 0,000 mm 0,8 UV-I 503 W/m 5,7 C 9,1 C 14,5 km/h (3 Bft) 100,00 %
29.03.2016 09:45 10,3 C 73 % 1012,2 hPa 0,0 l/m 13,7 km/h (3 Bft) S 190 0 min 0,000 mm 0,7 UV-I 195 W/m 5,7 C 6,1 C 20,9 km/h (4 Bft) 98,41 %
29.03.2016 09:46 10,3 C 72 % 1012,2 hPa 0,0 l/m 15,0 km/h (3 Bft) S-SW 196 0 min 0,000 mm 0,7 UV-I 196 W/m 5,5 C 5,5 C 24,1 km/h (4 Bft) 100,00 %
29.03.2016 09:47 10,2 C 71 % 1012,2 hPa 0,0 l/m 15,4 km/h (3 Bft) W-SW 239 0 min 0,000 mm 0,7 UV-I 215 W/m 5,2 C 5,2 C 20,9 km/h (4 Bft) 100,00 %
29.03.2016 09:48 10,2 C 73 % 1012,2 hPa 0,0 l/m 17,1 km/h (3 Bft) SW 230 0 min 0,000 mm 0,7 UV-I 224 W/m 5,6 C 4,5 C 22,5 km/h (4 Bft) 100,00 %
29.03.2016 09:49 10,2 C 73 % 1012,2 hPa 0,0 l/m 8,5 km/h (2 Bft) S-SW 192 0 min 0,000 mm 0,8 UV-I 237 W/m 5,6 C 8,7 C 16,1 km/h (3 Bft) 100,00 %
29.03.2016 09:50 10,2 C 73 % 1012,2 hPa 0,0 l/m 15,4 km/h (3 Bft) W-SW 252 1 min 0,000 mm 0,9 UV-I 285 W/m 5,6 C 5,2 C 22,5 km/h (4 Bft) 100,00 %
29.03.2016 09:51 10,2 C 73 % 1012,1 hPa 0,0 l/m 13,0 km/h (3 Bft) W-SW 240 1 min 0,000 mm 0,8 UV-I 300 W/m 5,6 C 6,3 C 17,7 km/h (3 Bft) 100,00 %
29.03.2016 09:52 10,2 C 72 % 1012,1 hPa 0,0 l/m 11,1 km/h (2 Bft) W 269 1 min 0,000 mm 0,9 UV-I 350 W/m 5,4 C 7,2 C 14,5 km/h (3 Bft) 100,00 %
29.03.2016 09:53 10,3 C 74 % 1012,0 hPa 0,0 l/m 14,1 km/h (3 Bft) W-SW 250 1 min 0,000 mm 0,9 UV-I 336 W/m 5,9 C 5,9 C 19,3 km/h (3 Bft) 100,00 %
29.03.2016 09:54 10,3 C 73 % 1012,0 hPa 0,0 l/m 12,2 km/h (2 Bft) S-SW 211 1 min 0,000 mm 0,8 UV-I 281 W/m 5,7 C 6,8 C 17,7 km/h (3 Bft) 100,00 %
29.03.2016 09:55 10,4 C 73 % 1012,0 hPa 0,0 l/m 12,6 km/h (3 Bft) W-SW 247 0 min 0,000 mm 0,8 UV-I 231 W/m 5,8 C 6,7 C 16,1 km/h (3 Bft) 100,00 %
29.03.2016 09:56 10,4 C 73 % 1012,1 hPa 0,0 l/m 10,5 km/h (2 Bft) W-SW 252 0 min 0,000 mm 0,8 UV-I 195 W/m 5,8 C 7,8 C 14,5 km/h (3 Bft) 100,00 %
29.03.2016 09:57 10,3 C 73 % 1012,1 hPa 0,0 l/m 9,8 km/h (2 Bft) S-SW 199 0 min 0,000 mm 0,8 UV-I 191 W/m 5,7 C 8,0 C 16,1 km/h (3 Bft) 100,00 %
29.03.2016 09:58 10,3 C 73 % 1012,1 hPa 0,0 l/m 9,7 km/h (2 Bft) S-SW 192 0 min 0,000 mm 0,8 UV-I 208 W/m 5,7 C 8,1 C 14,5 km/h (3 Bft) 100,00 %
29.03.2016 09:59 10,3 C 72 % 1012,1 hPa 0,0 l/m 11,5 km/h (2 Bft) S-SW 211 0 min 0,000 mm 0,8 UV-I 194 W/m 5,5 C 7,1 C 12,9 km/h (3 Bft) 100,00 %
29.03.2016 10:00 10,3 C 73 % 1012,1 hPa 0,0 l/m 11,6 km/h (2 Bft) SW 220 0 min 0,127 mm 0,9 UV-I 167 W/m 5,7 C 7,1 C 17,7 km/h (3 Bft) 100,00 %
29.03.2016 10:02 10,3 C 73 % 1012,2 hPa 0,0 l/m 12,0 km/h (2 Bft) SW 234 0 min 0,000 mm 0,9 UV-I 217 W/m 5,7 C 6,9 C 19,3 km/h (3 Bft) 100,00 %
29.03.2016 10:03 10,2 C 73 % 1012,2 hPa 0,0 l/m 10,8 km/h (2 Bft) S-SW 195 0 min 0,000 mm 0,9 UV-I 158 W/m 5,6 C 7,4 C 16,1 km/h (3 Bft) 100,00 %
29.03.2016 10:04 10,2 C 73 % 1012,4 hPa 0,0 l/m 9,4 km/h (2 Bft) S-SW 206 0 min 0,000 mm 1,0 UV-I 213 W/m 5,6 C 8,2 C 14,5 km/h (3 Bft) 100,00 %
29.03.2016 10:05 10,2 C 74 % 1012,2 hPa 0,0 l/m 16,1 km/h (3 Bft) S-SO 165 0 min 0,000 mm 1,1 UV-I 213 W/m 5,8 C 4,9 C 19,3 km/h (3 Bft) 100,00 %
29.03.2016 10:06 10,2 C 74 % 1012,2 hPa 0,0 l/m 14,3 km/h (3 Bft) S 175 1 min 0,000 mm 1,4 UV-I 508 W/m 5,8 C 5,7 C 22,5 km/h (4 Bft) 96,30 %
29.03.2016 10:07 10,3 C 73 % 1012,2 hPa 0,0 l/m 12,8 km/h (3 Bft) S-SO 167 1 min 0,000 mm 1,4 UV-I 582 W/m 5,7 C 6,5 C 17,7 km/h (3 Bft) 100,00 %
29.03.2016 10:08 10,3 C 74 % 1012,2 hPa 0,0 l/m 13,7 km/h (3 Bft) W-SW 240 1 min 0,000 mm 1,3 UV-I 577 W/m 5,9 C 6,1 C 19,3 km/h (3 Bft) 96,15 %
29.03.2016 10:09 10,3 C 73 % 1012,2 hPa 0,0 l/m 10,1 km/h (2 Bft) S-SW 207 1 min 0,000 mm 1,4 UV-I 534 W/m 5,7 C 7,9 C 12,9 km/h (3 Bft) 100,00 %
29.03.2016 10:10 10,4 C 73 % 1012,2 hPa 0,0 l/m 11,6 km/h (2 Bft) S 171 1 min 0,000 mm 1,5 UV-I 589 W/m 5,8 C 7,2 C 19,3 km/h (3 Bft) 100,00 %
29.03.2016 10:11 10,5 C 73 % 1012,2 hPa 0,0 l/m 15,6 km/h (3 Bft) W-SW 238 1 min 0,000 mm 1,5 UV-I 589 W/m 5,9 C 5,5 C 19,3 km/h (3 Bft) 96,30 %
29.03.2016 10:12 10,6 C 72 % 1012,2 hPa 0,0 l/m 12,9 km/h (3 Bft) S-SW 211 1 min 0,000 mm 1,4 UV-I 589 W/m 5,8 C 6,8 C 17,7 km/h (3 Bft) 100,00 %
29.03.2016 10:13 10,6 C 73 % 1012,3 hPa 0,0 l/m 11,1 km/h (2 Bft) W-NW 285 1 min 0,000 mm 1,3 UV-I 589 W/m 6,0 C 7,7 C 14,5 km/h (3 Bft) 100,00 %
29.03.2016 10:14 10,6 C 72 % 1012,3 hPa 0,0 l/m 11,4 km/h (2 Bft) W-SW 252 1 min 0,000 mm 1,2 UV-I 549 W/m 5,8 C 7,5 C 16,1 km/h (3 Bft) 100,00 %
29.03.2016 10:15 10,6 C 72 % 1012,3 hPa 0,0 l/m 10,5 km/h (2 Bft) S-SW 204 1 min 0,000 mm 1,2 UV-I 307 W/m 5,8 C 8,0 C 14,5 km/h (3 Bft) 97,62 %
29.03.2016 10:16 10,6 C 72 % 1012,3 hPa 0,0 l/m 10,8 km/h (2 Bft) S-SO 167 1 min 0,000 mm 1,2 UV-I 331 W/m 5,8 C 7,8 C 16,1 km/h (3 Bft) 100,00 %
29.03.2016 10:17 10,7 C 73 % 1012,3 hPa 0,0 l/m 13,4 km/h (3 Bft) S-SW 213 1 min 0,000 mm 1,4 UV-I 395 W/m 6,1 C 6,7 C 19,3 km/h (3 Bft) 100,00 %
29.03.2016 10:18 10,7 C 72 % 1012,3 hPa 0,0 l/m 12,5 km/h (3 Bft) S 177 1 min 0,000 mm 1,6 UV-I 438 W/m 5,9 C 7,1 C 19,3 km/h (3 Bft) 100,00 %
29.03.2016 10:19 10,8 C 72 % 1012,4 hPa 0,0 l/m 13,3 km/h (3 Bft) SW 219 1 min 0,000 mm 1,7 UV-I 438 W/m 6,0 C 6,8 C 20,9 km/h (4 Bft) 100,00 %
29.03.2016 10:20 10,9 C 73 % 1012,3 hPa 0,0 l/m 12,4 km/h (3 Bft) S-SW 211 1 min 0,000 mm 1,6 UV-I 659 W/m 6,3 C 7,4 C 17,7 km/h (3 Bft) 100,00 %
29.03.2016 10:21 10,9 C 73 % 1012,3 hPa 0,0 l/m 12,7 km/h (3 Bft) S 190 1 min 0,000 mm 1,4 UV-I 659 W/m 6,3 C 7,2 C 22,5 km/h (4 Bft) 100,00 %
29.03.2016 10:22 11,0 C 72 % 1012,3 hPa 0,0 l/m 14,1 km/h (3 Bft) W-SW 244 1 min 0,000 mm 1,3 UV-I 585 W/m 6,2 C 6,7 C 20,9 km/h (4 Bft) 100,00 %
29.03.2016 10:23 11,0 C 71 % 1012,3 hPa 0,0 l/m 13,6 km/h (3 Bft) SW 235 1 min 0,000 mm 1,5 UV-I 469 W/m 5,9 C 6,9 C 17,7 km/h (3 Bft) 100,00 %
29.03.2016 10:24 11,1 C 72 % 1012,4 hPa 0,0 l/m 16,3 km/h (3 Bft) S-SW 209 1 min 0,000 mm 1,7 UV-I 648 W/m 6,2 C 6,0 C 24,1 km/h (4 Bft) 100,00 %
29.03.2016 10:25 11,1 C 72 % 1012,4 hPa 0,0 l/m 11,0 km/h (2 Bft) S 169 1 min 0,000 mm 1,4 UV-I 707 W/m 6,2 C 8,3 C 16,1 km/h (3 Bft) 100,00 %
29.03.2016 10:26 11,2 C 72 % 1012,4 hPa 0,0 l/m 9,7 km/h (2 Bft) W-SW 244 1 min 0,000 mm 1,2 UV-I 662 W/m 6,3 C 9,1 C 14,5 km/h (3 Bft) 91,30 %
29.03.2016 10:27 11,2 C 71 % 1012,4 hPa 0,0 l/m 11,3 km/h (2 Bft) S 180 1 min 0,000 mm 1,2 UV-I 351 W/m 6,1 C 8,2 C 17,7 km/h (3 Bft) 100,00 %
29.03.2016 10:28 11,2 C 71 % 1012,4 hPa 0,0 l/m 13,3 km/h (3 Bft) SW 232 1 min 0,000 mm 1,2 UV-I 335 W/m 6,1 C 7,3 C 19,3 km/h (3 Bft) 96,15 %
29.03.2016 10:29 11,2 C 68 % 1012,3 hPa 0,0 l/m 14,3 km/h (3 Bft) S-SW 212 0 min 0,000 mm 1,0 UV-I 263 W/m 5,5 C 6,9 C 22,5 km/h (4 Bft) 96,67 %
29.03.2016 10:30 11,1 C 70 % 1012,4 hPa 0,0 l/m 14,4 km/h (3 Bft) W-SW 241 0 min 0,000 mm 0,8 UV-I 192 W/m 5,8 C 6,7 C 20,9 km/h (4 Bft) 100,00 %
29.03.2016 10:31 11,1 C 70 % 1012,4 hPa 0,0 l/m 12,5 km/h (3 Bft) S-SW 200 0 min 0,000 mm 0,7 UV-I 176 W/m 5,8 C 7,5 C 19,3 km/h (3 Bft) 96,15 %
29.03.2016 10:32 10,9 C 70 % 1012,5 hPa 0,0 l/m 11,1 km/h (2 Bft) W-SW 248 0 min 0,000 mm 0,6 UV-I 170 W/m 5,6 C 8,0 C 17,7 km/h (3 Bft) 96,15 %
29.03.2016 10:33 10,9 C 71 % 1012,5 hPa 0,0 l/m 15,3 km/h (3 Bft) W 260 0 min 0,000 mm 0,6 UV-I 164 W/m 5,9 C 6,1 C 29,0 km/h (5 Bft) 91,67 %
29.03.2016 10:34 10,8 C 69 % 1012,4 hPa 0,0 l/m 22,9 km/h (4 Bft) W-SW 240 0 min 0,000 mm 0,6 UV-I 163 W/m 5,3 C 3,5 C 32,2 km/h (5 Bft) 100,00 %
29.03.2016 10:35 10,8 C 67 % 1012,4 hPa 0,0 l/m 16,1 km/h (3 Bft) W-SW 239 0 min 0,000 mm 0,6 UV-I 146 W/m 4,9 C 5,7 C 30,6 km/h (5 Bft) 95,65 %
29.03.2016 10:36 10,8 C 67 % 1012,4 hPa 0,0 l/m 14,7 km/h (3 Bft) W-SW 254 0 min 0,000 mm 0,5 UV-I 128 W/m 4,9 C 6,2 C 20,9 km/h (4 Bft) 100,00 %
29.03.2016 10:37 10,8 C 68 % 1012,4 hPa 0,0 l/m 13,8 km/h (3 Bft) W 259 0 min 0,000 mm 0,5 UV-I 127 W/m 5,1 C 6,6 C 16,1 km/h (3 Bft) 96,15 %
29.03.2016 10:38 10,8 C 69 % 1012,5 hPa 0,0 l/m 11,0 km/h (2 Bft) SW 222 0 min 0,000 mm 0,5 UV-I 130 W/m 5,3 C 7,9 C 19,3 km/h (3 Bft) 100,00 %
29.03.2016 10:39 10,8 C 69 % 1012,5 hPa 0,0 l/m 12,8 km/h (3 Bft) W 262 0 min 0,000 mm 0,5 UV-I 128 W/m 5,3 C 7,1 C 17,7 km/h (3 Bft) 96,15 %
29.03.2016 10:40 10,8 C 69 % 1012,5 hPa 0,0 l/m 14,8 km/h (3 Bft) SW 234 0 min 0,000 mm 0,5 UV-I 138 W/m 5,3 C 6,2 C 24,1 km/h (4 Bft) 96,30 %
29.03.2016 10:41 10,7 C 67 % 1012,5 hPa 0,0 l/m 16,7 km/h (3 Bft) W-SW 244 0 min 0,000 mm 0,6 UV-I 166 W/m 4,8 C 5,3 C 25,7 km/h (4 Bft) 100,00 %
29.03.2016 10:42 10,7 C 68 % 1012,5 hPa 0,0 l/m 17,5 km/h (3 Bft) W-SW 243 0 min 0,000 mm 0,8 UV-I 197 W/m 5,0 C 5,0 C 24,1 km/h (4 Bft) 97,56 %
29.03.2016 10:43 10,7 C 69 % 1012,5 hPa 0,0 l/m 17,0 km/h (3 Bft) W 262 0 min 0,000 mm 0,7 UV-I 186 W/m 5,2 C 5,2 C 24,1 km/h (4 Bft) 100,00 %
29.03.2016 10:44 10,7 C 67 % 1012,5 hPa 0,0 l/m 20,4 km/h (4 Bft) W 260 0 min 0,000 mm 0,7 UV-I 180 W/m 4,8 C 4,1 C 29,0 km/h (5 Bft) 93,33 %
29.03.2016 10:45 10,7 C 66 % 1012,5 hPa 0,0 l/m 18,1 km/h (3 Bft) SW 217 0 min 0,000 mm 0,8 UV-I 176 W/m 4,6 C 4,8 C 27,4 km/h (4 Bft) 98,44 %
29.03.2016 10:46 10,7 C 65 % 1012,4 hPa 0,0 l/m 25,1 km/h (4 Bft) W-SW 243 0 min 0,000 mm 0,8 UV-I 176 W/m 4,4 C 2,8 C 29,0 km/h (5 Bft) 97,73 %
29.03.2016 10:47 10,7 C 64 % 1012,4 hPa 0,0 l/m 15,2 km/h (3 Bft) W-SW 254 0 min 0,000 mm 0,8 UV-I 151 W/m 4,2 C 5,9 C 20,9 km/h (4 Bft) 95,65 %
29.03.2016 10:48 10,7 C 65 % 1012,4 hPa 0,0 l/m 14,2 km/h (3 Bft) W-SW 252 0 min 0,000 mm 0,8 UV-I 128 W/m 4,4 C 6,3 C 25,7 km/h (4 Bft) 100,00 %
29.03.2016 10:49 10,7 C 63 % 1012,4 hPa 0,0 l/m 21,7 km/h (4 Bft) W 271 0 min 0,000 mm 0,9 UV-I 128 W/m 3,9 C 3,7 C 33,8 km/h (5 Bft) 96,15 %
29.03.2016 10:50 10,7 C 63 % 1012,4 hPa 0,0 l/m 10,9 km/h (2 Bft) W-SW 254 0 min 0,000 mm 1,0 UV-I 167 W/m 3,9 C 7,9 C 19,3 km/h (3 Bft) 100,00 %
29.03.2016 10:51 10,7 C 63 % 1012,4 hPa 0,0 l/m 22,0 km/h (4 Bft) W 273 0 min 0,000 mm 1,2 UV-I 217 W/m 3,9 C 3,6 C 29,0 km/h (5 Bft) 93,33 %
29.03.2016 10:52 10,8 C 63 % 1012,5 hPa 0,0 l/m 20,2 km/h (4 Bft) W-SW 244 0 min 0,000 mm 1,6 UV-I 253 W/m 4,0 C 4,3 C 27,4 km/h (4 Bft) 100,00 %
29.03.2016 10:53 10,9 C 64 % 1012,5 hPa 0,0 l/m 12,6 km/h (3 Bft) W 263 0 min 0,000 mm 2,1 UV-I 253 W/m 4,4 C 7,3 C 24,1 km/h (4 Bft) 96,15 %
29.03.2016 10:54 11,1 C 64 % 1012,5 hPa 0,0 l/m 16,7 km/h (3 Bft) W 262 1 min 0,000 mm 1,8 UV-I 663 W/m 4,6 C 5,8 C 22,5 km/h (4 Bft) 100,00 %
29.03.2016 10:55 11,2 C 65 % 1012,5 hPa 0,0 l/m 13,5 km/h (3 Bft) SW 223 1 min 0,000 mm 1,5 UV-I 800 W/m 4,9 C 7,2 C 20,9 km/h (4 Bft) 96,30 %
29.03.2016 10:56 11,3 C 63 % 1012,6 hPa 0,0 l/m 8,7 km/h (2 Bft) S-SW 213 1 min 0,000 mm 1,5 UV-I 352 W/m 4,5 C 9,8 C 17,7 km/h (3 Bft) 96,15 %
29.03.2016 10:57 11,4 C 63 % 1012,5 hPa 0,0 l/m 14,4 km/h (3 Bft) W 277 1 min 0,000 mm 2,1 UV-I 352 W/m 4,6 C 7,1 C 19,3 km/h (3 Bft) 100,00 %
29.03.2016 10:58 11,6 C 63 % 1012,6 hPa 0,0 l/m 18,0 km/h (3 Bft) W 266 1 min 0,000 mm 2,1 UV-I 566 W/m 4,8 C 6,0 C 24,1 km/h (4 Bft) 97,14 %
29.03.2016 10:59 11,8 C 65 % 1012,5 hPa 0,0 l/m 15,3 km/h (3 Bft) W-SW 257 1 min 0,000 mm 2,2 UV-I 837 W/m 5,4 C 7,2 C 20,9 km/h (4 Bft) 100,00 %
29.03.2016 11:00 12,0 C 66 % 1012,6 hPa 0,0 l/m 17,1 km/h (3 Bft) W 267 1 min 0,228 mm 2,0 UV-I 851 W/m 5,8 C 6,8 C 27,4 km/h (4 Bft) 100,00 %
29.03.2016 11:02 12,1 C 59 % 1012,5 hPa 0,0 l/m 17,3 km/h (3 Bft) S-SW 211 2 min 0,000 mm 1,5 UV-I 851 W/m 4,3 C 6,9 C 25,7 km/h (4 Bft) 100,00 %
29.03.2016 11:03 12,0 C 61 % 1012,5 hPa 0,0 l/m 21,2 km/h (4 Bft) W-SW 239 1 min 0,000 mm 1,9 UV-I 851 W/m 4,7 C 5,5 C 27,4 km/h (4 Bft) 100,00 %
29.03.2016 11:04 11,9 C 62 % 1012,6 hPa 0,0 l/m 15,3 km/h (3 Bft) SW 229 1 min 0,000 mm 1,4 UV-I 561 W/m 4,9 C 7,3 C 25,7 km/h (4 Bft) 100,00 %
29.03.2016 11:05 11,8 C 62 % 1012,6 hPa 0,0 l/m 25,4 km/h (4 Bft) SW 225 0 min 0,000 mm 1,5 UV-I 304 W/m 4,8 C 4,2 C 32,2 km/h (5 Bft) 95,83 %
29.03.2016 11:06 11,7 C 63 % 1012,7 hPa 0,0 l/m 14,2 km/h (3 Bft) SW 231 0 min 0,000 mm 1,5 UV-I 312 W/m 4,9 C 7,5 C 20,9 km/h (4 Bft) 100,00 %
29.03.2016 11:07 11,7 C 65 % 1012,7 hPa 0,0 l/m 11,5 km/h (2 Bft) W-SW 237 0 min 0,000 mm 1,4 UV-I 308 W/m 5,3 C 8,7 C 19,3 km/h (3 Bft) 100,00 %
29.03.2016 11:08 11,6 C 64 % 1012,7 hPa 0,0 l/m 17,4 km/h (3 Bft) W 259 0 min 0,000 mm 1,4 UV-I 286 W/m 5,0 C 6,2 C 24,1 km/h (4 Bft) 100,00 %
29.03.2016 11:09 11,6 C 66 % 1012,7 hPa 0,0 l/m 21,4 km/h (4 Bft) W-SW 247 0 min 0,000 mm 1,4 UV-I 270 W/m 5,5 C 4,9 C 27,4 km/h (4 Bft) 97,22 %
29.03.2016 11:10 11,6 C 61 % 1012,7 hPa 0,0 l/m 22,7 km/h (4 Bft) W 265 0 min 0,000 mm 1,4 UV-I 266 W/m 4,3 C 4,6 C 32,2 km/h (5 Bft) 100,00 %
29.03.2016 11:11 11,5 C 62 % 1012,6 hPa 0,0 l/m 17,1 km/h (3 Bft) SW 231 0 min 0,000 mm 1,4 UV-I 272 W/m 4,5 C 6,2 C 32,2 km/h (5 Bft) 100,00 %
29.03.2016 11:12 11,5 C 61 % 1012,6 hPa 0,0 l/m 10,7 km/h (2 Bft) SW 232 0 min 0,000 mm 1,5 UV-I 292 W/m 4,2 C 8,9 C 17,7 km/h (3 Bft) 100,00 %
29.03.2016 11:13 11,6 C 62 % 1012,7 hPa 0,0 l/m 17,0 km/h (3 Bft) W-SW 247 0 min 0,000 mm 1,5 UV-I 331 W/m 4,6 C 6,3 C 24,1 km/h (4 Bft) 100,00 %
29.03.2016 11:14 11,6 C 63 % 1012,7 hPa 0,0 l/m 25,3 km/h (4 Bft) W 272 0 min 0,000 mm 1,5 UV-I 293 W/m 4,8 C 3,9 C 30,6 km/h (5 Bft) 100,00 %
29.03.2016 11:15 11,5 C 63 % 1012,7 hPa 0,0 l/m 18,2 km/h (3 Bft) SW 222 0 min 0,000 mm 1,4 UV-I 260 W/m 4,7 C 5,8 C 25,7 km/h (4 Bft) 100,00 %
29.03.2016 11:16 11,5 C 62 % 1012,6 hPa 0,0 l/m 20,5 km/h (4 Bft) W 267 0 min 0,000 mm 1,4 UV-I 239 W/m 4,5 C 5,1 C 25,7 km/h (4 Bft) 100,00 %
29.03.2016 11:17 11,5 C 62 % 1012,7 hPa 0,0 l/m 19,8 km/h (3 Bft) W-SW 251 0 min 0,000 mm 1,3 UV-I 220 W/m 4,5 C 5,3 C 29,0 km/h (5 Bft) 100,00 %
29.03.2016 11:18 11,5 C 61 % 1012,7 hPa 0,0 l/m 21,2 km/h (4 Bft) W-SW 237 0 min 0,000 mm 1,3 UV-I 214 W/m 4,2 C 4,9 C 25,7 km/h (4 Bft) 100,00 %
29.03.2016 11:19 11,4 C 61 % 1012,7 hPa 0,0 l/m 24,2 km/h (4 Bft) W-SW 244 0 min 0,000 mm 1,4 UV-I 227 W/m 4,2 C 3,9 C 33,8 km/h (5 Bft) 100,00 %
29.03.2016 11:20 11,4 C 59 % 1012,8 hPa 0,0 l/m 21,1 km/h (4 Bft) W 260 0 min 0,000 mm 1,5 UV-I 262 W/m 3,7 C 4,8 C 30,6 km/h (5 Bft) 100,00 %
29.03.2016 11:21 11,4 C 59 % 1012,7 hPa 0,0 l/m 10,7 km/h (2 Bft) SW 231 0 min 0,000 mm 1,6 UV-I 279 W/m 3,7 C 8,8 C 16,1 km/h (3 Bft) 100,00 %
29.03.2016 11:22 11,5 C 59 % 1012,7 hPa 0,0 l/m 18,1 km/h (3 Bft) W-SW 258 0 min 0,000 mm 2,1 UV-I 279 W/m 3,8 C 5,8 C 22,5 km/h (4 Bft) 100,00 %
29.03.2016 11:23 11,6 C 60 % 1012,7 hPa 0,0 l/m 20,8 km/h (4 Bft) W-SW 253 0 min 0,000 mm 2,3 UV-I 279 W/m 4,1 C 5,1 C 29,0 km/h (5 Bft) 100,00 %
29.03.2016 11:24 11,7 C 58 % 1012,7 hPa 0,0 l/m 22,4 km/h (4 Bft) W-SW 251 0 min 0,000 mm 2,1 UV-I 280 W/m 3,7 C 4,8 C 35,4 km/h (5 Bft) 100,00 %
29.03.2016 11:25 11,7 C 57 % 1012,7 hPa 0,0 l/m 19,6 km/h (3 Bft) W 263 0 min 0,000 mm 1,7 UV-I 290 W/m 3,5 C 5,6 C 27,4 km/h (4 Bft) 96,15 %
29.03.2016 11:26 11,7 C 58 % 1012,7 hPa 0,0 l/m 20,7 km/h (4 Bft) W-SW 258 0 min 0,000 mm 1,6 UV-I 282 W/m 3,7 C 5,3 C 29,0 km/h (5 Bft) 100,00 %
29.03.2016 11:27 11,8 C 58 % 1012,7 hPa 0,0 l/m 16,6 km/h (3 Bft) W-SW 239 0 min 0,000 mm 1,8 UV-I 302 W/m 3,8 C 6,7 C 27,4 km/h (4 Bft) 100,00 %
29.03.2016 11:28 11,8 C 58 % 1012,8 hPa 0,0 l/m 17,4 km/h (3 Bft) W-SW 252 0 min 0,000 mm 1,8 UV-I 320 W/m 3,8 C 6,4 C 22,5 km/h (4 Bft) 100,00 %
29.03.2016 11:29 11,8 C 59 % 1012,8 hPa 0,0 l/m 15,1 km/h (3 Bft) W 272 0 min 0,000 mm 1,6 UV-I 320 W/m 4,1 C 7,3 C 32,2 km/h (5 Bft) 100,00 %
29.03.2016 11:30 11,8 C 57 % 1012,7 hPa 0,0 l/m 19,1 km/h (3 Bft) W-NW 283 0 min 0,000 mm 1,6 UV-I 258 W/m 3,6 C 5,9 C 27,4 km/h (4 Bft) 98,50 %
29.03.2016 11:31 11,8 C 56 % 1012,7 hPa 0,0 l/m 23,5 km/h (4 Bft) W-SW 244 0 min 0,000 mm 1,8 UV-I 266 W/m 3,3 C 4,6 C 33,8 km/h (5 Bft) 97,62 %
29.03.2016 11:32 11,7 C 55 % 1012,7 hPa 0,0 l/m 21,5 km/h (4 Bft) W 259 0 min 0,000 mm 1,7 UV-I 335 W/m 3,0 C 5,0 C 25,7 km/h (4 Bft) 100,00 %
29.03.2016 11:33 11,7 C 56 % 1012,7 hPa 0,0 l/m 21,1 km/h (4 Bft) SW 229 0 min 0,000 mm 1,8 UV-I 326 W/m 3,2 C 5,2 C 27,4 km/h (4 Bft) 100,00 %
29.03.2016 11:34 11,7 C 57 % 1012,6 hPa 0,0 l/m 18,4 km/h (3 Bft) W 260 0 min 0,000 mm 1,7 UV-I 280 W/m 3,5 C 6,0 C 25,7 km/h (4 Bft) 100,00 %
29.03.2016 11:35 11,7 C 57 % 1012,7 hPa 0,0 l/m 17,5 km/h (3 Bft) W-SW 242 0 min 0,000 mm 1,6 UV-I 272 W/m 3,5 C 6,3 C 24,1 km/h (4 Bft) 100,00 %
29.03.2016 11:36 11,7 C 58 % 1012,7 hPa 0,0 l/m 19,3 km/h (3 Bft) SW 234 0 min 0,000 mm 1,6 UV-I 294 W/m 3,7 C 5,7 C 27,4 km/h (4 Bft) 100,00 %
29.03.2016 11:37 11,7 C 58 % 1012,7 hPa 0,0 l/m 21,2 km/h (4 Bft) W-SW 257 0 min 0,000 mm 1,7 UV-I 332 W/m 3,7 C 5,1 C 29,0 km/h (5 Bft) 100,00 %
29.03.2016 11:38 11,7 C 58 % 1012,7 hPa 0,0 l/m 19,5 km/h (3 Bft) SW 221 1 min 0,000 mm 1,7 UV-I 371 W/m 3,7 C 5,6 C 27,4 km/h (4 Bft) 96,15 %
29.03.2016 11:39 11,8 C 59 % 1012,7 hPa 0,0 l/m 14,0 km/h (3 Bft) W 267 0 min 0,000 mm 1,6 UV-I 327 W/m 4,1 C 7,7 C 20,9 km/h (4 Bft) 96,30 %
29.03.2016 11:40 11,8 C 58 % 1012,7 hPa 0,0 l/m 23,9 km/h (4 Bft) W-SW 248 0 min 0,000 mm 1,8 UV-I 320 W/m 3,8 C 4,5 C 33,8 km/h (5 Bft) 100,00 %
29.03.2016 11:41 11,8 C 57 % 1012,7 hPa 0,0 l/m 18,6 km/h (3 Bft) W-SW 251 0 min 0,000 mm 1,7 UV-I 280 W/m 3,6 C 6,0 C 25,7 km/h (4 Bft) 100,00 %
29.03.2016 11:42 11,8 C 57 % 1012,7 hPa 0,0 l/m 23,5 km/h (4 Bft) W 267 0 min 0,000 mm 1,5 UV-I 257 W/m 3,6 C 4,6 C 35,4 km/h (5 Bft) 96,15 %
29.03.2016 11:43 11,8 C 57 % 1012,7 hPa 0,0 l/m 20,7 km/h (4 Bft) W 261 0 min 0,000 mm 1,5 UV-I 240 W/m 3,6 C 5,4 C 27,4 km/h (4 Bft) 100,00 %
29.03.2016 11:44 11,7 C 58 % 1012,7 hPa 0,0 l/m 17,1 km/h (3 Bft) W-SW 253 0 min 0,000 mm 1,5 UV-I 223 W/m 3,7 C 6,4 C 22,5 km/h (4 Bft) 95,65 %
29.03.2016 11:45 11,7 C 59 % 1012,7 hPa 0,0 l/m 14,4 km/h (3 Bft) W-SW 252 0 min 0,000 mm 1,5 UV-I 202 W/m 4,0 C 7,4 C 17,7 km/h (3 Bft) 100,00 %
29.03.2016 11:46 11,7 C 59 % 1012,7 hPa 0,0 l/m 16,5 km/h (3 Bft) W-SW 241 0 min 0,000 mm 1,9 UV-I 202 W/m 4,0 C 6,6 C 22,5 km/h (4 Bft) 100,00 %
29.03.2016 11:47 11,7 C 59 % 1012,6 hPa 0,0 l/m 17,9 km/h (3 Bft) W 263 0 min 0,000 mm 1,8 UV-I 202 W/m 4,0 C 6,1 C 27,4 km/h (4 Bft) 100,00 %
29.03.2016 11:48 11,7 C 59 % 1012,7 hPa 0,0 l/m 13,6 km/h (3 Bft) NW 317 0 min 0,000 mm 1,6 UV-I 181 W/m 4,0 C 7,8 C 17,7 km/h (3 Bft) 100,00 %
29.03.2016 11:49 11,7 C 59 % 1012,6 hPa 0,0 l/m 13,6 km/h (3 Bft) W-SW 248 0 min 0,000 mm 2,1 UV-I 360 W/m 4,0 C 7,8 C 24,1 km/h (4 Bft) 100,00 %
29.03.2016 11:50 11,7 C 58 % 1012,6 hPa 0,0 l/m 17,6 km/h (3 Bft) W 267 1 min 0,000 mm 1,8 UV-I 615 W/m 3,7 C 6,2 C 22,5 km/h (4 Bft) 96,67 %
29.03.2016 11:51 11,7 C 58 % 1012,7 hPa 0,0 l/m 18,7 km/h (3 Bft) W 275 1 min 0,000 mm 1,9 UV-I 414 W/m 3,7 C 5,9 C 33,8 km/h (5 Bft) 100,00 %
29.03.2016 11:52 11,8 C 58 % 1012,6 hPa 0,0 l/m 24,4 km/h (4 Bft) W-NW 288 0 min 0,000 mm 1,8 UV-I 235 W/m 3,8 C 4,4 C 33,8 km/h (5 Bft) 100,00 %
29.03.2016 11:53 11,8 C 58 % 1012,6 hPa 0,0 l/m 16,7 km/h (3 Bft) W-SW 239 0 min 0,000 mm 2,2 UV-I 244 W/m 3,8 C 6,7 C 24,1 km/h (4 Bft) 100,00 %
29.03.2016 11:54 11,8 C 58 % 1012,6 hPa 0,0 l/m 17,1 km/h (3 Bft) W-SW 254 0 min 0,000 mm 2,4 UV-I 244 W/m 3,8 C 6,5 C 20,9 km/h (4 Bft) 100,00 %
29.03.2016 11:55 11,8 C 58 % 1012,6 hPa 0,0 l/m 17,5 km/h (3 Bft) W 266 0 min 0,000 mm 1,7 UV-I 212 W/m 3,8 C 6,4 C 24,1 km/h (4 Bft) 100,00 %
29.03.2016 11:56 11,8 C 58 % 1012,6 hPa 0,0 l/m 20,4 km/h (4 Bft) W-SW 249 0 min 0,000 mm 1,9 UV-I 201 W/m 3,8 C 5,5 C 29,0 km/h (5 Bft) 100,00 %
29.03.2016 11:57 11,8 C 57 % 1012,5 hPa 0,0 l/m 20,6 km/h (4 Bft) W-SW 244 0 min 0,000 mm 2,5 UV-I 241 W/m 3,6 C 5,4 C 24,1 km/h (4 Bft) 100,00 %
29.03.2016 11:58 11,9 C 57 % 1012,5 hPa 0,0 l/m 16,2 km/h (3 Bft) SW 236 1 min 0,000 mm 2,9 UV-I 660 W/m 3,7 C 7,0 C 25,7 km/h (4 Bft) 100,00 %
29.03.2016 11:59 12,0 C 58 % 1012,5 hPa 0,0 l/m 23,9 km/h (4 Bft) W 260 1 min 0,000 mm 2,4 UV-I 800 W/m 4,0 C 4,8 C 32,2 km/h (5 Bft) 100,00 %
29.03.2016 12:00 12,1 C 57 % 1012,6 hPa 0,0 l/m 28,4 km/h (4 Bft) W-SW 256 1 min 0,254 mm 1,9 UV-I 719 W/m 3,8 C 3,9 C 37,0 km/h (5 Bft) 96,30 %
29.03.2016 12:02 12,1 C 57 % 1012,6 hPa 0,0 l/m 21,5 km/h (4 Bft) W-SW 252 0 min 0,000 mm 1,8 UV-I 370 W/m 3,8 C 5,6 C 30,6 km/h (5 Bft) 100,00 %
29.03.2016 12:03 12,1 C 57 % 1012,5 hPa 0,0 l/m 23,3 km/h (4 Bft) W 267 0 min 0,000 mm 1,8 UV-I 348 W/m 3,8 C 5,1 C 33,8 km/h (5 Bft) 96,15 %
29.03.2016 12:04 12,1 C 56 % 1012,5 hPa 0,0 l/m 19,8 km/h (3 Bft) W-SW 248 0 min 0,000 mm 1,8 UV-I 348 W/m 3,6 C 6,1 C 30,6 km/h (5 Bft) 100,00 %
29.03.2016 12:05 12,1 C 57 % 1012,6 hPa 0,0 l/m 14,5 km/h (3 Bft) W 272 0 min 0,000 mm 1,9 UV-I 339 W/m 3,8 C 7,9 C 29,0 km/h (5 Bft) 100,00 %
29.03.2016 12:06 12,1 C 56 % 1012,6 hPa 0,0 l/m 21,4 km/h (4 Bft) W-SW 248 1 min 0,000 mm 2,0 UV-I 399 W/m 3,6 C 5,6 C 29,0 km/h (5 Bft) 100,00 %
29.03.2016 12:07 12,1 C 57 % 1012,6 hPa 0,0 l/m 17,4 km/h (3 Bft) W 268 1 min 0,000 mm 2,0 UV-I 408 W/m 3,8 C 6,8 C 22,5 km/h (4 Bft) 96,15 %
29.03.2016 12:08 12,0 C 56 % 1012,6 hPa 0,0 l/m 19,7 km/h (3 Bft) W-SW 257 0 min 0,000 mm 1,7 UV-I 330 W/m 3,5 C 6,0 C 24,1 km/h (4 Bft) 100,00 %
29.03.2016 12:09 12,1 C 58 % 1012,7 hPa 0,0 l/m 13,4 km/h (3 Bft) W-SW 239 0 min 0,000 mm 1,7 UV-I 313 W/m 4,1 C 8,3 C 16,1 km/h (3 Bft) 100,00 %
29.03.2016 12:10 12,1 C 58 % 1012,7 hPa 0,0 l/m 20,6 km/h (4 Bft) W 269 0 min 0,000 mm 1,8 UV-I 338 W/m 4,1 C 5,8 C 27,4 km/h (4 Bft) 100,00 %
29.03.2016 12:11 12,1 C 58 % 1012,6 hPa 0,0 l/m 14,2 km/h (3 Bft) W 259 1 min 0,000 mm 2,0 UV-I 411 W/m 4,1 C 8,0 C 17,7 km/h (3 Bft) 100,00 %
29.03.2016 12:12 12,1 C 58 % 1012,6 hPa 0,0 l/m 16,3 km/h (3 Bft) W-SW 252 1 min 0,000 mm 2,1 UV-I 487 W/m 4,1 C 7,2 C 24,1 km/h (4 Bft) 100,00 %
29.03.2016 12:13 12,1 C 58 % 1012,8 hPa 0,0 l/m 18,4 km/h (3 Bft) W 259 1 min 0,000 mm 1,9 UV-I 416 W/m 4,1 C 6,5 C 32,2 km/h (5 Bft) 100,00 %
29.03.2016 12:14 12,2 C 59 % 1012,7 hPa 0,0 l/m 13,8 km/h (3 Bft) W 270 0 min 0,000 mm 1,8 UV-I 365 W/m 4,4 C 8,3 C 24,1 km/h (4 Bft) 100,00 %
29.03.2016 12:15 12,2 C 59 % 1012,8 hPa 0,0 l/m 13,7 km/h (3 Bft) W-NW 283 0 min 0,000 mm 1,8 UV-I 376 W/m 4,4 C 8,3 C 25,7 km/h (4 Bft) 100,00 %
29.03.2016 12:16 12,2 C 57 % 1012,8 hPa 0,0 l/m 19,2 km/h (3 Bft) W 268 1 min 0,000 mm 1,8 UV-I 398 W/m 3,9 C 6,4 C 30,6 km/h (5 Bft) 100,00 %
29.03.2016 12:17 12,2 C 57 % 1012,8 hPa 0,0 l/m 16,8 km/h (3 Bft) W 266 1 min 0,000 mm 1,8 UV-I 399 W/m 3,9 C 7,1 C 27,4 km/h (4 Bft) 96,15 %
29.03.2016 12:18 12,2 C 58 % 1012,7 hPa 0,0 l/m 24,0 km/h (4 Bft) W 273 0 min 0,000 mm 1,7 UV-I 371 W/m 4,2 C 5,1 C 30,6 km/h (5 Bft) 100,00 %
29.03.2016 12:19 12,2 C 56 % 1012,8 hPa 0,0 l/m 14,3 km/h (3 Bft) W-SW 238 0 min 0,000 mm 1,6 UV-I 366 W/m 3,7 C 8,1 C 17,7 km/h (3 Bft) 93,33 %
29.03.2016 12:20 12,2 C 58 % 1012,8 hPa 0,0 l/m 24,1 km/h (4 Bft) W 260 0 min 0,000 mm 1,5 UV-I 366 W/m 4,2 C 5,0 C 33,8 km/h (5 Bft) 100,00 %
29.03.2016 12:21 12,2 C 58 % 1012,8 hPa 0,0 l/m 21,2 km/h (4 Bft) W 261 0 min 0,000 mm 1,3 UV-I 315 W/m 4,2 C 5,8 C 27,4 km/h (4 Bft) 96,30 %
29.03.2016 12:22 12,2 C 59 % 1012,8 hPa 0,0 l/m 15,6 km/h (3 Bft) W-SW 254 0 min 0,000 mm 1,1 UV-I 256 W/m 4,4 C 7,6 C 22,5 km/h (4 Bft) 94,12 %
29.03.2016 12:23 12,1 C 60 % 1012,8 hPa 0,0 l/m 22,0 km/h (4 Bft) W-SW 246 0 min 0,000 mm 1,0 UV-I 214 W/m 4,6 C 5,4 C 30,6 km/h (5 Bft) 96,30 %
29.03.2016 12:24 12,0 C 60 % 1012,8 hPa 0,0 l/m 18,3 km/h (3 Bft) W-SW 244 0 min 0,000 mm 0,9 UV-I 194 W/m 4,5 C 6,4 C 30,6 km/h (5 Bft) 88,46 %
29.03.2016 12:25 11,9 C 61 % 1012,8 hPa 0,0 l/m 17,8 km/h (3 Bft) W-NW 294 0 min 0,000 mm 0,8 UV-I 170 W/m 4,6 C 6,4 C 29,0 km/h (5 Bft) 100,00 %
29.03.2016 12:26 11,8 C 63 % 1012,8 hPa 0,0 l/m 10,9 km/h (2 Bft) W-SW 246 0 min 0,000 mm 0,8 UV-I 152 W/m 5,0 C 9,1 C 14,5 km/h (3 Bft) 93,33 %
29.03.2016 12:27 11,7 C 64 % 1012,8 hPa 0,0 l/m 16,4 km/h (3 Bft) W-NW 284 0 min 0,000 mm 0,7 UV-I 143 W/m 5,1 C 6,7 C 20,9 km/h (4 Bft) 100,00 %
29.03.2016 12:28 11,6 C 65 % 1012,8 hPa 0,0 l/m 16,4 km/h (3 Bft) W 263 0 min 0,000 mm 0,7 UV-I 138 W/m 5,2 C 6,5 C 22,5 km/h (4 Bft) 96,88 %
29.03.2016 12:29 11,4 C 64 % 1012,8 hPa 0,0 l/m 16,7 km/h (3 Bft) W 273 0 min 0,000 mm 0,7 UV-I 126 W/m 4,8 C 6,2 C 20,9 km/h (4 Bft) 100,00 %
29.03.2016 12:30 11,3 C 65 % 1012,8 hPa 0,0 l/m 16,1 km/h (3 Bft) W-SW 248 0 min 0,000 mm 0,6 UV-I 113 W/m 5,0 C 6,3 C 25,7 km/h (4 Bft) 91,67 %
29.03.2016 12:31 11,2 C 66 % 1012,8 hPa 0,0 l/m 12,8 km/h (3 Bft) W 263 0 min 0,000 mm 0,6 UV-I 104 W/m 5,1 C 7,5 C 24,1 km/h (4 Bft) 97,56 %
29.03.2016 12:32 11,1 C 67 % 1012,7 hPa 0,0 l/m 15,9 km/h (3 Bft) W-SW 244 0 min 0,000 mm 0,6 UV-I 105 W/m 5,2 C 6,1 C 20,9 km/h (4 Bft) 100,00 %
29.03.2016 12:33 10,9 C 67 % 1012,7 hPa 0,0 l/m 15,0 km/h (3 Bft) W 264 0 min 0,000 mm 0,8 UV-I 127 W/m 5,0 C 6,2 C 19,3 km/h (3 Bft) 96,15 %
29.03.2016 12:34 10,8 C 68 % 1012,7 hPa 0,0 l/m 13,5 km/h (3 Bft) SW 217 0 min 0,000 mm 1,0 UV-I 178 W/m 5,1 C 6,7 C 17,7 km/h (3 Bft) 100,00 %
29.03.2016 12:35 10,7 C 70 % 1012,8 hPa 0,0 l/m 11,7 km/h (2 Bft) W 259 0 min 0,000 mm 1,2 UV-I 209 W/m 5,5 C 7,5 C 16,1 km/h (3 Bft) 95,65 %
29.03.2016 12:36 10,7 C 70 % 1012,8 hPa 0,0 l/m 11,5 km/h (2 Bft) W 262 0 min 0,000 mm 1,5 UV-I 243 W/m 5,5 C 7,6 C 17,7 km/h (3 Bft) 100,00 %
29.03.2016 12:37 10,7 C 71 % 1012,7 hPa 0,0 l/m 12,5 km/h (3 Bft) W 269 0 min 0,000 mm 2,1 UV-I 308 W/m 5,7 C 7,1 C 19,3 km/h (3 Bft) 91,30 %
29.03.2016 12:38 10,7 C 71 % 1012,8 hPa 0,0 l/m 9,7 km/h (2 Bft) W-SW 239 1 min 0,000 mm 2,7 UV-I 494 W/m 5,7 C 8,5 C 16,1 km/h (3 Bft) 96,30 %
29.03.2016 12:39 10,8 C 70 % 1012,8 hPa 0,0 l/m 11,3 km/h (2 Bft) SW 219 1 min 0,000 mm 2,9 UV-I 675 W/m 5,6 C 7,8 C 16,1 km/h (3 Bft) 100,00 %
29.03.2016 12:40 10,9 C 70 % 1012,7 hPa 0,0 l/m 10,8 km/h (2 Bft) SW 226 1 min 0,000 mm 2,9 UV-I 718 W/m 5,6 C 8,2 C 16,1 km/h (3 Bft) 96,30 %
29.03.2016 12:41 11,1 C 71 % 1012,7 hPa 0,0 l/m 13,1 km/h (3 Bft) SW 223 1 min 0,000 mm 3,1 UV-I 779 W/m 6,0 C 7,3 C 17,7 km/h (3 Bft) 100,00 %
29.03.2016 12:42 11,2 C 70 % 1012,7 hPa 0,0 l/m 13,7 km/h (3 Bft) SW 223 1 min 0,000 mm 2,0 UV-I 779 W/m 5,9 C 7,1 C 19,3 km/h (3 Bft) 95,83 %
29.03.2016 12:43 11,3 C 70 % 1012,6 hPa 0,0 l/m 8,4 km/h (2 Bft) S-SW 213 1 min 0,000 mm 3,0 UV-I 750 W/m 6,0 C 10,0 C 14,5 km/h (3 Bft) 96,15 %
29.03.2016 12:44 11,5 C 70 % 1012,6 hPa 0,0 l/m 9,0 km/h (2 Bft) SW 216 1 min 0,000 mm 3,0 UV-I 704 W/m 6,2 C 9,8 C 11,3 km/h (2 Bft) 93,33 %
29.03.2016 12:45 11,6 C 69 % 1012,6 hPa 0,0 l/m 6,5 km/h (2 Bft) S 171 1 min 0,000 mm 3,0 UV-I 699 W/m 6,1 C 11,6 C 9,7 km/h (2 Bft) 100,00 %
29.03.2016 12:46 11,8 C 70 % 1012,5 hPa 0,0 l/m 6,8 km/h (2 Bft) W 263 1 min 0,000 mm 3,0 UV-I 696 W/m 6,5 C 11,5 C 11,3 km/h (2 Bft) 96,88 %
29.03.2016 12:47 11,9 C 71 % 1012,5 hPa 0,0 l/m 4,4 km/h (1 Bft) SW 234 1 min 0,000 mm 3,0 UV-I 696 W/m 6,8 C 11,9 C 11,3 km/h (2 Bft) 100,00 %
29.03.2016 12:48 12,1 C 68 % 1012,5 hPa 0,0 l/m 12,4 km/h (3 Bft) W-SW 250 1 min 0,000 mm 3,0 UV-I 693 W/m 6,4 C 8,8 C 17,7 km/h (3 Bft) 96,15 %
29.03.2016 12:49 12,2 C 67 % 1012,5 hPa 0,0 l/m 9,3 km/h (2 Bft) W-SW 240 1 min 0,000 mm 3,0 UV-I 692 W/m 6,3 C 10,4 C 12,9 km/h (3 Bft) 100,00 %
29.03.2016 12:50 12,3 C 69 % 1012,4 hPa 0,0 l/m 9,0 km/h (2 Bft) S 182 1 min 0,000 mm 3,0 UV-I 693 W/m 6,8 C 10,7 C 14,5 km/h (3 Bft) 100,00 %
29.03.2016 12:51 12,4 C 65 % 1012,4 hPa 0,0 l/m 12,0 km/h (2 Bft) S-SW 196 1 min 0,000 mm 3,1 UV-I 695 W/m 6,0 C 9,3 C 16,1 km/h (3 Bft) 100,00 %
29.03.2016 12:52 12,4 C 64 % 1012,4 hPa 0,0 l/m 10,3 km/h (2 Bft) W-SW 248 1 min 0,000 mm 3,1 UV-I 698 W/m 5,8 C 10,1 C 16,1 km/h (3 Bft) 100,00 %
29.03.2016 12:53 12,6 C 64 % 1012,4 hPa 0,0 l/m 13,8 km/h (3 Bft) W-SW 250 1 min 0,000 mm 3,1 UV-I 698 W/m 6,0 C 8,7 C 17,7 km/h (3 Bft) 95,83 %
29.03.2016 12:54 12,6 C 61 % 1012,4 hPa 0,0 l/m 13,9 km/h (3 Bft) W-SW 248 1 min 0,000 mm 3,1 UV-I 702 W/m 5,3 C 8,7 C 19,3 km/h (3 Bft) 100,00 %
29.03.2016 12:55 12,6 C 61 % 1012,4 hPa 0,0 l/m 14,8 km/h (3 Bft) W-SW 253 1 min 0,000 mm 3,1 UV-I 706 W/m 5,3 C 8,4 C 19,3 km/h (3 Bft) 100,00 %
29.03.2016 12:56 12,7 C 65 % 1012,3 hPa 0,0 l/m 9,7 km/h (2 Bft) S-SW 204 1 min 0,000 mm 3,1 UV-I 712 W/m 6,3 C 10,7 C 14,5 km/h (3 Bft) 100,00 %
29.03.2016 12:57 12,8 C 64 % 1012,3 hPa 0,0 l/m 9,4 km/h (2 Bft) S-SW 207 1 min 0,000 mm 3,1 UV-I 727 W/m 6,2 C 11,0 C 16,1 km/h (3 Bft) 100,00 %
29.03.2016 12:58 12,8 C 64 % 1012,3 hPa 0,0 l/m 9,2 km/h (2 Bft) W-SW 242 1 min 0,000 mm 3,1 UV-I 742 W/m 6,2 C 11,1 C 14,5 km/h (3 Bft) 91,30 %
29.03.2016 12:59 12,9 C 63 % 1012,3 hPa 0,0 l/m 9,5 km/h (2 Bft) SW 232 1 min 0,000 mm 3,2 UV-I 759 W/m 6,0 C 11,1 C 16,1 km/h (3 Bft) 100,00 %
29.03.2016 13:00 12,9 C 61 % 1012,3 hPa 0,0 l/m 9,9 km/h (2 Bft) SW 232 1 min 0,280 mm 3,2 UV-I 780 W/m 5,6 C 10,8 C 14,5 km/h (3 Bft) 100,00 %
29.03.2016 13:02 13,1 C 62 % 1012,3 hPa 0,0 l/m 14,2 km/h (3 Bft) W 278 2 min 0,000 mm 3,2 UV-I 814 W/m 6,0 C 9,2 C 20,9 km/h (4 Bft) 100,00 %
29.03.2016 13:03 13,2 C 61 % 1012,4 hPa 0,0 l/m 18,7 km/h (3 Bft) S-SW 207 1 min 0,000 mm 3,2 UV-I 843 W/m 5,8 C 7,8 C 22,5 km/h (4 Bft) 100,00 %
29.03.2016 13:04 13,2 C 60 % 1012,3 hPa 0,0 l/m 11,6 km/h (2 Bft) NW 323 1 min 0,000 mm 3,2 UV-I 881 W/m 5,6 C 10,4 C 19,3 km/h (3 Bft) 100,00 %
29.03.2016 13:05 13,3 C 59 % 1012,3 hPa 0,0 l/m 10,3 km/h (2 Bft) W-SW 254 1 min 0,000 mm 3,1 UV-I 889 W/m 5,5 C 11,1 C 16,1 km/h (3 Bft) 100,00 %
29.03.2016 13:06 13,4 C 61 % 1012,3 hPa 0,0 l/m 19,1 km/h (3 Bft) W-SW 256 1 min 0,000 mm 3,2 UV-I 915 W/m 6,0 C 7,9 C 25,7 km/h (4 Bft) 100,00 %
29.03.2016 13:07 13,5 C 61 % 1012,2 hPa 0,0 l/m 16,8 km/h (3 Bft) W-SW 240 1 min 0,000 mm 3,2 UV-I 890 W/m 6,1 C 8,8 C 22,5 km/h (4 Bft) 100,00 %
29.03.2016 13:08 13,6 C 60 % 1012,2 hPa 0,0 l/m 15,4 km/h (3 Bft) W 273 1 min 0,000 mm 2,6 UV-I 884 W/m 6,0 C 9,4 C 20,9 km/h (4 Bft) 100,00 %
29.03.2016 13:09 13,6 C 58 % 1012,2 hPa 0,0 l/m 12,7 km/h (3 Bft) W 265 1 min 0,000 mm 2,9 UV-I 884 W/m 5,5 C 10,4 C 17,7 km/h (3 Bft) 100,00 %
29.03.2016 13:10 13,6 C 60 % 1012,3 hPa 0,0 l/m 16,5 km/h (3 Bft) W 262 1 min 0,000 mm 3,3 UV-I 884 W/m 6,0 C 9,0 C 20,9 km/h (4 Bft) 100,00 %
29.03.2016 13:11 13,6 C 54 % 1012,2 hPa 0,0 l/m 10,1 km/h (2 Bft) W-SW 253 1 min 0,000 mm 2,5 UV-I 884 W/m 4,5 C 11,5 C 14,5 km/h (3 Bft) 95,65 %
29.03.2016 13:12 13,6 C 59 % 1012,3 hPa 0,0 l/m 4,4 km/h (1 Bft) W 267 1 min 0,000 mm 2,3 UV-I 884 W/m 5,7 C 13,6 C 11,3 km/h (2 Bft) 100,00 %
29.03.2016 13:13 13,6 C 57 % 1012,2 hPa 0,0 l/m 4,2 km/h (1 Bft) W 262 1 min 0,000 mm 2,4 UV-I 884 W/m 5,2 C 13,6 C 8,0 km/h (2 Bft) 100,00 %
29.03.2016 13:14 13,8 C 64 % 1012,1 hPa 0,0 l/m 3,3 km/h (1 Bft) W 271 1 min 0,000 mm 2,1 UV-I 884 W/m 7,1 C 13,8 C 8,0 km/h (2 Bft) 100,00 %
29.03.2016 13:15 13,9 C 61 % 1012,2 hPa 0,0 l/m 5,3 km/h (1 Bft) W-NW 296 1 min 0,000 mm 1,9 UV-I 411 W/m 6,5 C 13,9 C 11,3 km/h (2 Bft) 100,00 %
29.03.2016 13:16 13,8 C 58 % 1012,1 hPa 0,0 l/m 8,3 km/h (2 Bft) SW 229 0 min 0,000 mm 1,9 UV-I 375 W/m 5,7 C 12,7 C 12,9 km/h (3 Bft) 100,00 %
29.03.2016 13:17 13,7 C 57 % 1012,2 hPa 0,0 l/m 9,4 km/h (2 Bft) W-SW 248 1 min 0,000 mm 2,2 UV-I 399 W/m 5,3 C 12,0 C 12,9 km/h (3 Bft) 100,00 %
29.03.2016 13:18 13,6 C 57 % 1012,2 hPa 0,0 l/m 7,3 km/h (2 Bft) W-NW 302 1 min 0,000 mm 2,6 UV-I 399 W/m 5,2 C 13,0 C 14,5 km/h (3 Bft) 100,00 %
29.03.2016 13:19 13,4 C 58 % 1012,2 hPa 0,0 l/m 7,6 km/h (2 Bft) W-SW 250 0 min 0,000 mm 1,6 UV-I 356 W/m 5,3 C 12,7 C 14,5 km/h (3 Bft) 100,00 %
29.03.2016 13:20 13,4 C 55 % 1012,3 hPa 0,0 l/m 16,7 km/h (3 Bft) W 265 0 min 0,000 mm 1,4 UV-I 284 W/m 4,5 C 8,7 C 22,5 km/h (4 Bft) 100,00 %
29.03.2016 13:21 13,3 C 55 % 1012,2 hPa 0,0 l/m 10,0 km/h (2 Bft) W 275 0 min 0,000 mm 1,2 UV-I 220 W/m 4,5 C 11,2 C 16,1 km/h (3 Bft) 100,00 %
29.03.2016 13:22 13,1 C 56 % 1012,2 hPa 0,0 l/m 11,9 km/h (2 Bft) W 281 0 min 0,000 mm 0,8 UV-I 160 W/m 4,5 C 10,1 C 17,7 km/h (3 Bft) 100,00 %
29.03.2016 13:23 13,0 C 58 % 1012,2 hPa 0,0 l/m 11,9 km/h (2 Bft) W 277 0 min 0,000 mm 0,6 UV-I 115 W/m 4,9 C 10,0 C 17,7 km/h (3 Bft) 100,00 %
29.03.2016 13:24 12,9 C 56 % 1012,2 hPa 0,0 l/m 7,7 km/h (2 Bft) NW 309 0 min 0,000 mm 0,4 UV-I 92 W/m 4,3 C 12,1 C 14,5 km/h (3 Bft) 91,67 %
29.03.2016 13:25 12,8 C 56 % 1012,2 hPa 0,0 l/m 12,3 km/h (3 Bft) W 260 0 min 0,000 mm 0,0 UV-I 81 W/m 4,2 C 9,6 C 16,1 km/h (3 Bft) 100,00 %
29.03.2016 13:26 12,7 C 58 % 1012,2 hPa 0,0 l/m 13,4 km/h (3 Bft) W 273 0 min 0,000 mm 0,0 UV-I 80 W/m 4,7 C 9,0 C 16,1 km/h (3 Bft) 100,00 %
29.03.2016 13:27 12,6 C 59 % 1012,2 hPa 0,0 l/m 10,3 km/h (2 Bft) W 261 0 min 0,000 mm 0,0 UV-I 84 W/m 4,8 C 10,3 C 17,7 km/h (3 Bft) 98,52 %
29.03.2016 13:28 12,4 C 57 % 1012,2 hPa 0,0 l/m 14,6 km/h (3 Bft) W-SW 254 0 min 0,000 mm 0,0 UV-I 92 W/m 4,1 C 8,2 C 17,7 km/h (3 Bft) 100,00 %
29.03.2016 13:29 12,4 C 58 % 1012,2 hPa 0,0 l/m 16,4 km/h (3 Bft) W-SW 258 0 min 0,000 mm 0,0 UV-I 94 W/m 4,4 C 7,5 C 20,9 km/h (4 Bft) 100,00 %
29.03.2016 13:30 12,3 C 58 % 1012,2 hPa 0,0 l/m 11,8 km/h (2 Bft) W-SW 258 0 min 0,000 mm 0,0 UV-I 85 W/m 4,3 C 9,3 C 16,1 km/h (3 Bft) 92,86 %
29.03.2016 13:31 12,3 C 59 % 1012,2 hPa 0,0 l/m 10,5 km/h (2 Bft) W 264 0 min 0,000 mm 0,0 UV-I 69 W/m 4,5 C 9,9 C 14,5 km/h (3 Bft) 100,00 %
29.03.2016 13:32 12,2 C 59 % 1012,2 hPa 0,0 l/m 11,5 km/h (2 Bft) W 263 0 min 0,000 mm 0,0 UV-I 49 W/m 4,4 C 9,3 C 16,1 km/h (3 Bft) 100,00 %
29.03.2016 13:33 12,2 C 59 % 1012,4 hPa 0,0 l/m 9,0 km/h (2 Bft) W-SW 238 0 min 0,000 mm 0,0 UV-I 34 W/m 4,4 C 10,6 C 14,5 km/h (3 Bft) 100,00 %
29.03.2016 13:34 12,2 C 59 % 1012,5 hPa 0,0 l/m 10,8 km/h (2 Bft) W 264 0 min 0,000 mm 0,0 UV-I 27 W/m 4,4 C 9,6 C 12,9 km/h (3 Bft) 100,00 %
29.03.2016 13:35 12,1 C 61 % 1012,7 hPa 0,0 l/m 23,6 km/h (4 Bft) W-NW 295 0 min 0,000 mm 0,0 UV-I 24 W/m 4,8 C 5,0 C 32,2 km/h (5 Bft) 96,30 %
29.03.2016 13:36 12,0 C 59 % 1012,8 hPa 0,0 l/m 34,9 km/h (5 Bft) W 260 0 min 0,000 mm 0,0 UV-I 24 W/m 4,2 C 2,6 C 49,9 km/h (6 Bft) 100,00 %
29.03.2016 13:37 11,8 C 63 % 1013,0 hPa 0,2 l/m 26,2 km/h (4 Bft) SW 227 0 min 0,000 mm 0,0 UV-I 27 W/m 5,0 C 4,0 C 37,0 km/h (5 Bft) 100,00 %
29.03.2016 13:38 11,4 C 64 % 1013,1 hPa 0,2 l/m 22,8 km/h (4 Bft) W-SW 258 0 min 0,000 mm 0,0 UV-I 35 W/m 4,8 C 4,3 C 43,5 km/h (6 Bft) 91,67 %
29.03.2016 13:39 10,7 C 64 % 1012,7 hPa 0,0 l/m 9,7 km/h (2 Bft) W 273 0 min 0,000 mm 0,5 UV-I 67 W/m 4,2 C 8,5 C 16,1 km/h (3 Bft) 97,14 %
29.03.2016 13:40 10,2 C 65 % 1012,3 hPa 0,0 l/m 12,8 km/h (3 Bft) W 267 0 min 0,000 mm 0,6 UV-I 102 W/m 3,9 C 6,4 C 14,5 km/h (3 Bft) 93,33 %
29.03.2016 13:41 9,4 C 68 % 1012,6 hPa 0,0 l/m 11,9 km/h (2 Bft) W 279 0 min 0,000 mm 1,8 UV-I 102 W/m 3,8 C 5,9 C 14,5 km/h (3 Bft) 100,00 %
29.03.2016 13:42 8,7 C 73 % 1012,9 hPa 0,0 l/m 11,4 km/h (2 Bft) W 264 1 min 0,000 mm 2,9 UV-I 477 W/m 4,1 C 5,3 C 14,5 km/h (3 Bft) 100,00 %
29.03.2016 13:43 8,3 C 80 % 1013,0 hPa 0,0 l/m 9,2 km/h (2 Bft) W-NW 294 1 min 0,000 mm 3,0 UV-I 805 W/m 5,1 C 6,2 C 14,5 km/h (3 Bft) 100,00 %
29.03.2016 13:44 8,1 C 81 % 1012,8 hPa 0,0 l/m 11,8 km/h (2 Bft) W 267 1 min 0,000 mm 3,0 UV-I 805 W/m 5,0 C 4,4 C 17,7 km/h (3 Bft) 100,00 %
29.03.2016 13:45 8,1 C 82 % 1012,5 hPa 0,0 l/m 10,1 km/h (2 Bft) W-NW 287 1 min 0,000 mm 3,0 UV-I 725 W/m 5,2 C 5,4 C 19,3 km/h (3 Bft) 100,00 %
29.03.2016 13:46 8,1 C 81 % 1012,5 hPa 0,0 l/m 14,1 km/h (3 Bft) W-SW 257 1 min 0,000 mm 3,0 UV-I 720 W/m 5,0 C 3,3 C 19,3 km/h (3 Bft) 100,00 %
29.03.2016 13:47 8,2 C 82 % 1012,5 hPa 0,2 l/m 12,9 km/h (3 Bft) W 262 1 min 0,000 mm 3,0 UV-I 729 W/m 5,3 C 4,0 C 22,5 km/h (4 Bft) 90,91 %
29.03.2016 13:48 8,3 C 83 % 1012,5 hPa 0,0 l/m 8,4 km/h (2 Bft) W 264 1 min 0,000 mm 3,0 UV-I 726 W/m 5,6 C 6,8 C 12,9 km/h (3 Bft) 100,00 %
29.03.2016 13:49 8,3 C 82 % 1012,5 hPa 0,2 l/m 8,1 km/h (2 Bft) W 265 1 min 0,000 mm 3,0 UV-I 716 W/m 5,4 C 7,0 C 12,9 km/h (3 Bft) 96,55 %
29.03.2016 13:50 8,4 C 82 % 1012,4 hPa 0,0 l/m 9,8 km/h (2 Bft) W-NW 303 1 min 0,000 mm 2,6 UV-I 661 W/m 5,5 C 6,0 C 14,5 km/h (3 Bft) 100,00 %
29.03.2016 13:51 8,6 C 83 % 1012,4 hPa 0,0 l/m 10,2 km/h (2 Bft) W 265 1 min 0,000 mm 1,8 UV-I 650 W/m 5,9 C 5,9 C 14,5 km/h (3 Bft) 94,12 %
29.03.2016 13:52 8,6 C 81 % 1012,4 hPa 0,2 l/m 8,2 km/h (2 Bft) W-SW 257 1 min 0,000 mm 1,5 UV-I 492 W/m 5,5 C 7,2 C 14,5 km/h (3 Bft) 100,00 %
29.03.2016 13:53 8,6 C 81 % 1012,4 hPa 0,0 l/m 9,8 km/h (2 Bft) W 274 0 min 0,000 mm 1,4 UV-I 113 W/m 5,5 C 6,2 C 19,3 km/h (3 Bft) 100,00 %
29.03.2016 13:54 8,6 C 81 % 1012,4 hPa 0,0 l/m 11,3 km/h (2 Bft) W 279 0 min 0,000 mm 1,4 UV-I 137 W/m 5,5 C 5,3 C 16,1 km/h (3 Bft) 100,00 %
29.03.2016 13:55 8,6 C 81 % 1012,4 hPa 0,0 l/m 7,7 km/h (2 Bft) W-NW 290 0 min 0,000 mm 1,7 UV-I 187 W/m 5,5 C 7,6 C 12,9 km/h (3 Bft) 100,00 %
29.03.2016 13:56 8,6 C 82 % 1012,4 hPa 0,2 l/m 6,3 km/h (2 Bft) W 265 0 min 0,000 mm 2,4 UV-I 284 W/m 5,7 C 8,6 C 8,0 km/h (2 Bft) 96,67 %
29.03.2016 13:57 8,7 C 82 % 1012,4 hPa 0,0 l/m 9,9 km/h (2 Bft) W-NW 286 0 min 0,000 mm 2,9 UV-I 370 W/m 5,8 C 6,2 C 14,5 km/h (3 Bft) 100,00 %
29.03.2016 13:58 8,9 C 81 % 1012,3 hPa 0,0 l/m 9,0 km/h (2 Bft) W-SW 258 1 min 0,000 mm 2,9 UV-I 738 W/m 5,8 C 7,0 C 16,1 km/h (3 Bft) 100,00 %
29.03.2016 13:59 9,1 C 82 % 1012,3 hPa 0,0 l/m 7,2 km/h (2 Bft) W 268 1 min 0,000 mm 2,9 UV-I 740 W/m 6,2 C 8,5 C 11,3 km/h (2 Bft) 100,00 %
29.03.2016 14:00 9,3 C 80 % 1012,3 hPa 0,0 l/m 10,7 km/h (2 Bft) W-SW 249 1 min 0,000 mm 2,8 UV-I 740 W/m 6,0 C 6,4 C 17,7 km/h (3 Bft) 100,00 %
29.03.2016 14:02 9,5 C 79 % 1012,3 hPa 0,2 l/m 11,3 km/h (2 Bft) W 263 2 min 0,254 mm 2,9 UV-I 740 W/m 6,0 C 6,3 C 17,7 km/h (3 Bft) 95,45 %
29.03.2016 14:03 9,7 C 79 % 1012,3 hPa 0,0 l/m 9,8 km/h (2 Bft) W-SW 255 1 min 0,000 mm 2,6 UV-I 731 W/m 6,2 C 7,4 C 14,5 km/h (3 Bft) 96,30 %
29.03.2016 14:04 9,9 C 79 % 1012,2 hPa 0,0 l/m 9,6 km/h (2 Bft) W 275 1 min 0,000 mm 2,8 UV-I 699 W/m 6,4 C 7,7 C 12,9 km/h (3 Bft) 92,31 %
29.03.2016 14:05 10,0 C 77 % 1012,2 hPa 0,2 l/m 14,2 km/h (3 Bft) W-SW 254 1 min 0,000 mm 2,9 UV-I 707 W/m 6,2 C 5,5 C 17,7 km/h (3 Bft) 100,00 %
29.03.2016 14:06 10,1 C 76 % 1012,2 hPa 0,0 l/m 9,7 km/h (2 Bft) W 269 1 min 0,000 mm 2,9 UV-I 707 W/m 6,1 C 7,9 C 14,5 km/h (3 Bft) 100,00 %
29.03.2016 14:07 10,2 C 77 % 1012,2 hPa 0,0 l/m 8,1 km/h (2 Bft) W 266 1 min 0,000 mm 2,8 UV-I 707 W/m 6,4 C 9,0 C 11,3 km/h (2 Bft) 96,30 %
29.03.2016 14:08 10,3 C 77 % 1012,2 hPa 0,0 l/m 10,0 km/h (2 Bft) W-SW 257 1 min 0,000 mm 2,1 UV-I 682 W/m 6,4 C 7,9 C 17,7 km/h (3 Bft) 96,15 %
29.03.2016 14:09 10,3 C 76 % 1012,2 hPa 0,0 l/m 16,8 km/h (3 Bft) W 269 0 min 0,000 mm 2,0 UV-I 205 W/m 6,3 C 4,8 C 22,5 km/h (4 Bft) 100,00 %
29.03.2016 14:10 10,3 C 75 % 1012,2 hPa 0,0 l/m 9,3 km/h (2 Bft) W 281 0 min 0,000 mm 2,9 UV-I 264 W/m 6,1 C 8,3 C 17,7 km/h (3 Bft) 95,65 %
29.03.2016 14:11 10,4 C 75 % 1012,2 hPa 0,2 l/m 7,2 km/h (2 Bft) W 280 1 min 0,000 mm 2,8 UV-I 533 W/m 6,2 C 9,8 C 12,9 km/h (3 Bft) 92,59 %
29.03.2016 14:12 10,6 C 76 % 1012,1 hPa 0,0 l/m 13,2 km/h (3 Bft) W 277 1 min 0,000 mm 2,8 UV-I 719 W/m 6,5 C 6,6 C 19,3 km/h (3 Bft) 100,00 %
29.03.2016 14:13 10,7 C 76 % 1012,1 hPa 0,0 l/m 18,3 km/h (3 Bft) W-SW 248 1 min 0,000 mm 2,5 UV-I 646 W/m 6,6 C 4,7 C 22,5 km/h (4 Bft) 96,30 %
29.03.2016 14:14 10,8 C 73 % 1012,1 hPa 0,0 l/m 14,8 km/h (3 Bft) W 270 1 min 0,000 mm 2,4 UV-I 601 W/m 6,2 C 6,2 C 20,9 km/h (4 Bft) 100,00 %
29.03.2016 14:15 10,8 C 74 % 1012,0 hPa 0,2 l/m 10,9 km/h (2 Bft) W-SW 250 1 min 0,000 mm 2,2 UV-I 526 W/m 6,4 C 8,0 C 16,1 km/h (3 Bft) 96,55 %
29.03.2016 14:16 10,9 C 75 % 1012,0 hPa 0,0 l/m 10,6 km/h (2 Bft) NW 307 1 min 0,000 mm 2,7 UV-I 526 W/m 6,6 C 8,3 C 14,5 km/h (3 Bft) 96,15 %
29.03.2016 14:17 11,0 C 76 % 1012,0 hPa 0,0 l/m 9,1 km/h (2 Bft) W 269 1 min 0,000 mm 2,5 UV-I 526 W/m 6,9 C 9,2 C 14,5 km/h (3 Bft) 93,33 %
29.03.2016 14:18 11,1 C 74 % 1012,0 hPa 0,0 l/m 18,0 km/h (3 Bft) W-SW 254 1 min 0,000 mm 2,7 UV-I 613 W/m 6,6 C 5,4 C 22,5 km/h (4 Bft) 100,00 %
29.03.2016 14:19 11,2 C 74 % 1012,0 hPa 0,0 l/m 13,0 km/h (3 Bft) S-SW 202 1 min 0,000 mm 2,7 UV-I 693 W/m 6,7 C 7,4 C 19,3 km/h (3 Bft) 96,30 %
29.03.2016 14:20 11,3 C 74 % 1012,0 hPa 0,0 l/m 9,1 km/h (2 Bft) W 262 1 min 0,000 mm 2,7 UV-I 742 W/m 6,8 C 9,5 C 12,9 km/h (3 Bft) 100,00 %
29.03.2016 14:21 11,3 C 73 % 1012,0 hPa 0,0 l/m 12,3 km/h (3 Bft) W 264 1 min 0,000 mm 2,7 UV-I 728 W/m 6,6 C 7,9 C 19,3 km/h (3 Bft) 96,55 %
29.03.2016 14:22 11,4 C 73 % 1011,9 hPa 0,0 l/m 10,1 km/h (2 Bft) W 259 1 min 0,000 mm 2,6 UV-I 676 W/m 6,7 C 9,1 C 16,1 km/h (3 Bft) 95,83 %
29.03.2016 14:23 11,6 C 72 % 1012,0 hPa 0,2 l/m 15,8 km/h (3 Bft) W-SW 242 1 min 0,000 mm 2,6 UV-I 662 W/m 6,7 C 6,8 C 20,9 km/h (4 Bft) 100,00 %
29.03.2016 14:24 11,6 C 72 % 1012,0 hPa 0,0 l/m 14,1 km/h (3 Bft) W 266 1 min 0,000 mm 2,6 UV-I 622 W/m 6,7 C 7,4 C 17,7 km/h (3 Bft) 95,83 %
29.03.2016 14:25 11,7 C 73 % 1012,0 hPa 0,0 l/m 10,9 km/h (2 Bft) W 269 1 min 0,000 mm 2,4 UV-I 580 W/m 7,0 C 9,0 C 16,1 km/h (3 Bft) 100,00 %
29.03.2016 14:26 11,7 C 72 % 1012,0 hPa 0,0 l/m 12,1 km/h (2 Bft) W 279 1 min 0,000 mm 2,1 UV-I 575 W/m 6,8 C 8,4 C 16,1 km/h (3 Bft) 93,33 %
29.03.2016 14:27 11,7 C 72 % 1012,0 hPa 0,0 l/m 11,2 km/h (2 Bft) W-NW 288 1 min 0,000 mm 1,7 UV-I 460 W/m 6,8 C 8,9 C 19,3 km/h (3 Bft) 100,00 %
29.03.2016 14:28 11,7 C 72 % 1012,0 hPa 0,0 l/m 13,2 km/h (3 Bft) W-SW 252 0 min 0,000 mm 1,5 UV-I 205 W/m 6,8 C 7,9 C 20,9 km/h (4 Bft) 96,30 %
29.03.2016 14:29 11,7 C 72 % 1012,0 hPa 0,0 l/m 7,3 km/h (2 Bft) W 277 0 min 0,000 mm 1,4 UV-I 187 W/m 6,8 C 11,1 C 14,5 km/h (3 Bft) 98,47 %
29.03.2016 14:30 11,6 C 72 % 1012,0 hPa 0,0 l/m 7,6 km/h (2 Bft) W 271 0 min 0,000 mm 1,3 UV-I 178 W/m 6,7 C 10,8 C 11,3 km/h (2 Bft) 97,56 %
29.03.2016 14:31 11,6 C 74 % 1012,0 hPa 0,0 l/m 6,3 km/h (2 Bft) W-SW 257 0 min 0,000 mm 1,2 UV-I 178 W/m 7,1 C 11,6 C 9,7 km/h (2 Bft) 96,15 %
29.03.2016 14:32 11,6 C 72 % 1012,0 hPa 0,0 l/m 9,0 km/h (2 Bft) W-SW 253 0 min 0,000 mm 1,2 UV-I 182 W/m 6,7 C 9,9 C 11,3 km/h (2 Bft) 100,00 %
29.03.2016 14:33 11,5 C 72 % 1012,0 hPa 0,2 l/m 11,1 km/h (2 Bft) W-SW 246 0 min 0,000 mm 1,2 UV-I 187 W/m 6,6 C 8,7 C 16,1 km/h (3 Bft) 100,00 %
29.03.2016 14:34 11,5 C 72 % 1012,0 hPa 0,0 l/m 9,9 km/h (2 Bft) W 262 0 min 0,000 mm 1,1 UV-I 172 W/m 6,6 C 9,3 C 16,1 km/h (3 Bft) 100,00 %
29.03.2016 14:35 11,5 C 72 % 1011,9 hPa 0,0 l/m 9,1 km/h (2 Bft) W-SW 238 0 min 0,000 mm 1,0 UV-I 148 W/m 6,6 C 9,8 C 14,5 km/h (3 Bft) 100,00 %
29.03.2016 14:36 11,5 C 71 % 1011,9 hPa 0,0 l/m 9,7 km/h (2 Bft) W-SW 246 0 min 0,000 mm 0,8 UV-I 126 W/m 6,4 C 9,4 C 12,9 km/h (3 Bft) 96,30 %
29.03.2016 14:37 11,5 C 72 % 1011,9 hPa 0,0 l/m 7,9 km/h (2 Bft) SW 221 0 min 0,000 mm 0,7 UV-I 101 W/m 6,6 C 10,5 C 11,3 km/h (2 Bft) 100,00 %
29.03.2016 14:38 11,5 C 71 % 1011,9 hPa 0,0 l/m 7,1 km/h (2 Bft) W-SW 257 0 min 0,000 mm 0,5 UV-I 77 W/m 6,4 C 11,0 C 11,3 km/h (2 Bft) 95,83 %
29.03.2016 14:39 11,4 C 73 % 1012,0 hPa 0,0 l/m 10,6 km/h (2 Bft) W-SW 249 0 min 0,000 mm 0,0 UV-I 60 W/m 6,7 C 8,8 C 14,5 km/h (3 Bft) 100,00 %
29.03.2016 14:40 11,4 C 72 % 1012,0 hPa 0,0 l/m 7,7 km/h (2 Bft) SW 233 0 min 0,000 mm 0,0 UV-I 48 W/m 6,5 C 10,5 C 11,3 km/h (2 Bft) 96,55 %
29.03.2016 14:41 11,4 C 73 % 1012,0 hPa 0,0 l/m 9,3 km/h (2 Bft) SW 221 0 min 0,000 mm 0,0 UV-I 40 W/m 6,7 C 9,5 C 14,5 km/h (3 Bft) 100,00 %
29.03.2016 14:42 11,4 C 73 % 1012,0 hPa 0,0 l/m 7,3 km/h (2 Bft) SW 223 0 min 0,000 mm 0,0 UV-I 34 W/m 6,7 C 10,8 C 12,9 km/h (3 Bft) 100,00 %
29.03.2016 14:43 11,4 C 73 % 1012,1 hPa 0,0 l/m 8,5 km/h (2 Bft) W-SW 242 0 min 0,000 mm 0,0 UV-I 30 W/m 6,7 C 10,0 C 11,3 km/h (2 Bft) 100,00 %
29.03.2016 14:44 11,4 C 73 % 1012,3 hPa 0,0 l/m 9,6 km/h (2 Bft) S-SW 194 0 min 0,000 mm 0,0 UV-I 28 W/m 6,7 C 9,4 C 12,9 km/h (3 Bft) 96,55 %
29.03.2016 14:45 11,3 C 73 % 1012,3 hPa 0,2 l/m 13,9 km/h (3 Bft) W-SW 246 0 min 0,000 mm 0,0 UV-I 31 W/m 6,6 C 7,2 C 25,7 km/h (4 Bft) 100,00 %
29.03.2016 14:46 11,3 C 73 % 1012,4 hPa 0,2 l/m 21,6 km/h (4 Bft) W-SW 258 0 min 0,000 mm 0,0 UV-I 38 W/m 6,6 C 4,5 C 27,4 km/h (4 Bft) 100,00 %
29.03.2016 14:47 11,3 C 73 % 1012,5 hPa 0,0 l/m 22,5 km/h (4 Bft) W 263 0 min 0,000 mm 0,0 UV-I 67 W/m 6,6 C 4,2 C 29,0 km/h (5 Bft) 100,00 %
29.03.2016 14:48 11,1 C 72 % 1012,3 hPa 0,0 l/m 15,4 km/h (3 Bft) W 274 0 min 0,000 mm 0,6 UV-I 83 W/m 6,2 C 6,3 C 22,5 km/h (4 Bft) 100,00 %
29.03.2016 14:49 11,0 C 71 % 1012,1 hPa 0,2 l/m 14,8 km/h (3 Bft) W-NW 299 0 min 0,000 mm 1,5 UV-I 117 W/m 5,9 C 6,4 C 22,5 km/h (4 Bft) 100,00 %
29.03.2016 14:50 10,8 C 76 % 1012,2 hPa 0,0 l/m 9,4 km/h (2 Bft) W-SW 240 1 min 0,000 mm 1,8 UV-I 484 W/m 6,7 C 8,8 C 14,5 km/h (3 Bft) 100,00 %
29.03.2016 14:51 10,7 C 78 % 1012,3 hPa 0,2 l/m 12,1 km/h (2 Bft) W 261 1 min 0,000 mm 1,6 UV-I 448 W/m 7,0 C 7,3 C 17,7 km/h (3 Bft) 100,00 %
29.03.2016 14:52 10,6 C 79 % 1012,4 hPa 0,0 l/m 11,2 km/h (2 Bft) W-SW 253 0 min 0,000 mm 1,2 UV-I 341 W/m 7,1 C 7,6 C 14,5 km/h (3 Bft) 100,00 %
29.03.2016 14:53 10,4 C 81 % 1012,5 hPa 0,0 l/m 14,9 km/h (3 Bft) SW 223 0 min 0,000 mm 1,1 UV-I 254 W/m 7,3 C 5,7 C 19,3 km/h (3 Bft) 100,00 %
29.03.2016 14:54 10,4 C 80 % 1012,5 hPa 0,0 l/m 16,2 km/h (3 Bft) W-SW 248 0 min 0,000 mm 1,8 UV-I 314 W/m 7,1 C 5,1 C 27,4 km/h (4 Bft) 100,00 %
29.03.2016 14:55 10,4 C 80 % 1012,4 hPa 0,0 l/m 17,1 km/h (3 Bft) W 281 1 min 0,000 mm 2,3 UV-I 382 W/m 7,1 C 4,8 C 25,7 km/h (4 Bft) 100,00 %
29.03.2016 14:56 10,6 C 79 % 1012,4 hPa 0,0 l/m 15,3 km/h (3 Bft) W-NW 294 1 min 0,000 mm 2,4 UV-I 756 W/m 7,1 C 5,7 C 22,5 km/h (4 Bft) 100,00 %
29.03.2016 14:57 10,7 C 79 % 1012,3 hPa 0,2 l/m 18,5 km/h (3 Bft) W-SW 250 1 min 0,000 mm 2,3 UV-I 708 W/m 7,2 C 4,7 C 25,7 km/h (4 Bft) 91,67 %
29.03.2016 14:58 10,8 C 79 % 1012,3 hPa 0,0 l/m 17,5 km/h (3 Bft) W 267 1 min 0,000 mm 2,3 UV-I 626 W/m 7,3 C 5,2 C 20,9 km/h (4 Bft) 100,00 %
29.03.2016 14:59 10,8 C 78 % 1012,2 hPa 0,0 l/m 17,1 km/h (3 Bft) W-NW 284 1 min 0,000 mm 2,3 UV-I 619 W/m 7,1 C 5,3 C 19,3 km/h (3 Bft) 100,00 %
29.03.2016 15:00 10,9 C 77 % 1012,2 hPa 0,0 l/m 15,0 km/h (3 Bft) W 259 1 min 0,000 mm 2,3 UV-I 613 W/m 7,0 C 6,2 C 19,3 km/h (3 Bft) 91,67 %
29.03.2016 15:02 11,1 C 78 % 1012,2 hPa 0,0 l/m 14,9 km/h (3 Bft) SW 220 2 min 0,228 mm 2,2 UV-I 608 W/m 7,4 C 6,5 C 20,9 km/h (4 Bft) 100,00 %
29.03.2016 15:03 11,2 C 79 % 1012,1 hPa 0,0 l/m 9,7 km/h (2 Bft) SW 230 1 min 0,000 mm 2,2 UV-I 599 W/m 7,7 C 9,1 C 19,3 km/h (3 Bft) 100,00 %
29.03.2016 15:04 11,3 C 78 % 1012,1 hPa 0,0 l/m 8,6 km/h (2 Bft) W-SW 244 1 min 0,000 mm 2,2 UV-I 604 W/m 7,6 C 9,8 C 12,9 km/h (3 Bft) 100,00 %
29.03.2016 15:05 11,4 C 77 % 1012,1 hPa 0,0 l/m 16,9 km/h (3 Bft) W-SW 254 1 min 0,000 mm 2,0 UV-I 606 W/m 7,5 C 6,1 C 29,0 km/h (5 Bft) 100,00 %
29.03.2016 15:06 11,5 C 74 % 1012,1 hPa 0,0 l/m 18,5 km/h (3 Bft) SW 224 1 min 0,000 mm 2,1 UV-I 606 W/m 7,0 C 5,7 C 20,9 km/h (4 Bft) 100,00 %
29.03.2016 15:07 11,5 C 73 % 1012,1 hPa 0,0 l/m 14,6 km/h (3 Bft) W-SW 254 1 min 0,000 mm 2,2 UV-I 606 W/m 6,8 C 7,1 C 25,7 km/h (4 Bft) 100,00 %
29.03.2016 15:08 11,5 C 74 % 1012,2 hPa 0,0 l/m 17,0 km/h (3 Bft) SW 224 1 min 0,000 mm 2,2 UV-I 598 W/m 7,0 C 6,2 C 24,1 km/h (4 Bft) 100,00 %
29.03.2016 15:09 11,6 C 74 % 1012,2 hPa 0,0 l/m 18,7 km/h (3 Bft) S-SW 205 1 min 0,000 mm 2,2 UV-I 591 W/m 7,1 C 5,8 C 24,1 km/h (4 Bft) 100,00 %
29.03.2016 15:10 11,6 C 72 % 1012,1 hPa 0,0 l/m 21,8 km/h (4 Bft) W-SW 257 1 min 0,000 mm 2,2 UV-I 600 W/m 6,7 C 4,8 C 29,0 km/h (5 Bft) 100,00 %
29.03.2016 15:11 11,6 C 75 % 1012,2 hPa 0,0 l/m 16,3 km/h (3 Bft) W-SW 239 1 min 0,000 mm 2,1 UV-I 597 W/m 7,3 C 6,6 C 25,7 km/h (4 Bft) 100,00 %
29.03.2016 15:12 11,6 C 74 % 1012,2 hPa 0,0 l/m 16,2 km/h (3 Bft) W-SW 240 1 min 0,000 mm 2,1 UV-I 594 W/m 7,1 C 6,6 C 24,1 km/h (4 Bft) 96,30 %
29.03.2016 15:13 11,7 C 75 % 1012,1 hPa 0,0 l/m 13,4 km/h (3 Bft) W 262 1 min 0,000 mm 2,1 UV-I 589 W/m 7,4 C 7,8 C 19,3 km/h (3 Bft) 100,00 %
29.03.2016 15:14 11,7 C 74 % 1012,1 hPa 0,0 l/m 18,3 km/h (3 Bft) W-SW 244 1 min 0,000 mm 2,1 UV-I 587 W/m 7,2 C 6,0 C 22,5 km/h (4 Bft) 100,00 %
29.03.2016 15:15 11,8 C 73 % 1012,1 hPa 0,0 l/m 15,7 km/h (3 Bft) SW 230 1 min 0,000 mm 2,1 UV-I 587 W/m 7,1 C 7,0 C 22,5 km/h (4 Bft) 100,00 %
29.03.2016 15:16 11,8 C 74 % 1012,1 hPa 0,0 l/m 17,4 km/h (3 Bft) W-SW 251 1 min 0,000 mm 2,1 UV-I 590 W/m 7,3 C 6,4 C 25,7 km/h (4 Bft) 100,00 %
29.03.2016 15:17 11,9 C 74 % 1012,1 hPa 0,0 l/m 19,6 km/h (3 Bft) W-SW 252 1 min 0,000 mm 2,1 UV-I 596 W/m 7,4 C 5,9 C 25,7 km/h (4 Bft) 100,00 %
29.03.2016 15:18 12,0 C 73 % 1012,1 hPa 0,0 l/m 17,8 km/h (3 Bft) W-SW 251 1 min 0,000 mm 2,1 UV-I 589 W/m 7,3 C 6,6 C 22,5 km/h (4 Bft) 100,00 %
29.03.2016 15:19 12,1 C 73 % 1012,1 hPa 0,0 l/m 13,4 km/h (3 Bft) W 263 1 min 0,000 mm 2,0 UV-I 589 W/m 7,4 C 8,3 C 25,7 km/h (4 Bft) 100,00 %
29.03.2016 15:20 12,2 C 72 % 1012,1 hPa 0,0 l/m 18,7 km/h (3 Bft) S-SW 194 1 min 0,000 mm 2,0 UV-I 581 W/m 7,3 C 6,5 C 24,1 km/h (4 Bft) 100,00 %
29.03.2016 15:21 12,3 C 71 % 1012,1 hPa 0,0 l/m 22,5 km/h (4 Bft) W-SW 238 1 min 0,000 mm 2,0 UV-I 552 W/m 7,2 C 5,6 C 29,0 km/h (5 Bft) 100,00 %
29.03.2016 15:22 12,3 C 69 % 1012,0 hPa 0,0 l/m 20,0 km/h (4 Bft) W-SW 248 1 min 0,000 mm 1,9 UV-I 544 W/m 6,8 C 6,3 C 27,4 km/h (4 Bft) 100,00 %
29.03.2016 15:23 12,3 C 69 % 1012,0 hPa 0,0 l/m 18,6 km/h (3 Bft) W-SW 242 1 min 0,000 mm 2,0 UV-I 583 W/m 6,8 C 6,7 C 27,4 km/h (4 Bft) 100,00 %
29.03.2016 15:24 12,4 C 69 % 1012,1 hPa 0,0 l/m 21,2 km/h (4 Bft) SW 216 1 min 0,000 mm 1,9 UV-I 551 W/m 6,9 C 6,0 C 35,4 km/h (5 Bft) 100,00 %
29.03.2016 15:25 12,4 C 69 % 1012,1 hPa 0,0 l/m 19,5 km/h (3 Bft) W-SW 242 1 min 0,000 mm 1,9 UV-I 531 W/m 6,9 C 6,5 C 29,0 km/h (5 Bft) 100,00 %
29.03.2016 15:26 12,4 C 68 % 1012,1 hPa 0,0 l/m 16,3 km/h (3 Bft) S-SW 212 1 min 0,000 mm 1,8 UV-I 482 W/m 6,7 C 7,6 C 22,5 km/h (4 Bft) 100,00 %
29.03.2016 15:27 12,4 C 68 % 1012,1 hPa 0,0 l/m 16,6 km/h (3 Bft) SW 218 1 min 0,000 mm 1,6 UV-I 401 W/m 6,7 C 7,5 C 24,1 km/h (4 Bft) 100,00 %
29.03.2016 15:28 12,4 C 69 % 1012,1 hPa 0,0 l/m 13,3 km/h (3 Bft) SW 228 1 min 0,000 mm 1,5 UV-I 346 W/m 6,9 C 8,7 C 19,3 km/h (3 Bft) 100,00 %
29.03.2016 15:29 12,4 C 70 % 1012,0 hPa 0,0 l/m 16,5 km/h (3 Bft) SW 226 1 min 0,000 mm 1,3 UV-I 350 W/m 7,1 C 7,5 C 25,7 km/h (4 Bft) 100,00 %
29.03.2016 15:30 12,4 C 68 % 1012,0 hPa 0,0 l/m 16,3 km/h (3 Bft) W-SW 238 0 min 0,000 mm 1,2 UV-I 241 W/m 6,7 C 7,6 C 25,7 km/h (4 Bft) 96,15 %
29.03.2016 15:31 12,4 C 69 % 1011,9 hPa 0,0 l/m 12,3 km/h (3 Bft) SW 233 0 min 0,000 mm 1,6 UV-I 229 W/m 6,9 C 9,1 C 17,7 km/h (3 Bft) 98,54 %
29.03.2016 15:32 12,5 C 70 % 1011,9 hPa 0,0 l/m 14,8 km/h (3 Bft) W-SW 242 1 min 0,000 mm 1,9 UV-I 398 W/m 7,2 C 8,2 C 22,5 km/h (4 Bft) 100,00 %
29.03.2016 15:33 12,6 C 70 % 1012,0 hPa 0,0 l/m 16,7 km/h (3 Bft) S-SW 210 1 min 0,000 mm 2,0 UV-I 718 W/m 7,3 C 7,7 C 22,5 km/h (4 Bft) 100,00 %
29.03.2016 15:34 12,8 C 69 % 1012,0 hPa 0,0 l/m 16,4 km/h (3 Bft) S-SW 209 1 min 0,000 mm 2,0 UV-I 671 W/m 7,3 C 8,0 C 22,5 km/h (4 Bft) 100,00 %
29.03.2016 15:35 12,8 C 67 % 1012,0 hPa 0,0 l/m 15,4 km/h (3 Bft) SW 227 1 min 0,000 mm 2,0 UV-I 643 W/m 6,8 C 8,4 C 24,1 km/h (4 Bft) 100,00 %
29.03.2016 15:36 12,9 C 67 % 1012,0 hPa 0,0 l/m 19,7 km/h (3 Bft) S 185 1 min 0,000 mm 1,9 UV-I 619 W/m 6,9 C 7,1 C 25,7 km/h (4 Bft) 100,00 %
29.03.2016 15:37 12,9 C 66 % 1012,0 hPa 0,0 l/m 14,0 km/h (3 Bft) W-SW 242 1 min 0,000 mm 1,9 UV-I 599 W/m 6,7 C 9,0 C 19,3 km/h (3 Bft) 100,00 %
29.03.2016 15:38 12,9 C 65 % 1012,0 hPa 0,0 l/m 16,2 km/h (3 Bft) W 259 1 min 0,000 mm 1,9 UV-I 586 W/m 6,5 C 8,2 C 25,7 km/h (4 Bft) 100,00 %
29.03.2016 15:39 12,9 C 67 % 1011,9 hPa 0,0 l/m 16,4 km/h (3 Bft) W-SW 238 1 min 0,000 mm 1,9 UV-I 588 W/m 6,9 C 8,2 C 25,7 km/h (4 Bft) 100,00 %
29.03.2016 15:40 13,0 C 66 % 1012,0 hPa 0,0 l/m 14,6 km/h (3 Bft) SW 217 1 min 0,000 mm 1,5 UV-I 602 W/m 6,8 C 8,9 C 25,7 km/h (4 Bft) 100,00 %
29.03.2016 15:41 13,0 C 67 % 1011,9 hPa 0,0 l/m 16,5 km/h (3 Bft) SW 234 1 min 0,000 mm 1,2 UV-I 605 W/m 7,0 C 8,2 C 22,5 km/h (4 Bft) 100,00 %
29.03.2016 15:42 13,0 C 68 % 1012,0 hPa 0,0 l/m 17,4 km/h (3 Bft) SW 234 1 min 0,000 mm 1,6 UV-I 600 W/m 7,2 C 7,9 C 25,7 km/h (4 Bft) 100,00 %
29.03.2016 15:43 13,0 C 66 % 1011,9 hPa 0,0 l/m 14,0 km/h (3 Bft) W 259 1 min 0,000 mm 1,7 UV-I 543 W/m 6,8 C 9,1 C 25,7 km/h (4 Bft) 100,00 %
29.03.2016 15:44 13,1 C 66 % 1011,8 hPa 0,0 l/m 19,8 km/h (3 Bft) SW 231 1 min 0,000 mm 1,5 UV-I 513 W/m 6,9 C 7,3 C 27,4 km/h (4 Bft) 100,00 %
29.03.2016 15:45 13,1 C 66 % 1011,8 hPa 0,0 l/m 15,9 km/h (3 Bft) SW 219 1 min 0,000 mm 1,7 UV-I 540 W/m 6,9 C 8,6 C 22,5 km/h (4 Bft) 100,00 %
29.03.2016 15:46 13,1 C 63 % 1011,8 hPa 0,0 l/m 16,2 km/h (3 Bft) SW 235 1 min 0,000 mm 1,8 UV-I 563 W/m 6,2 C 8,5 C 22,5 km/h (4 Bft) 100,00 %
29.03.2016 15:47 13,1 C 64 % 1011,8 hPa 0,0 l/m 18,9 km/h (3 Bft) W-SW 238 1 min 0,000 mm 1,8 UV-I 577 W/m 6,4 C 7,6 C 29,0 km/h (5 Bft) 100,00 %
29.03.2016 15:48 13,2 C 63 % 1011,8 hPa 0,0 l/m 16,5 km/h (3 Bft) W-SW 242 1 min 0,000 mm 1,8 UV-I 572 W/m 6,3 C 8,5 C 29,0 km/h (5 Bft) 100,00 %
29.03.2016 15:49 13,2 C 63 % 1011,8 hPa 0,0 l/m 22,1 km/h (4 Bft) W-SW 240 1 min 0,000 mm 1,7 UV-I 557 W/m 6,3 C 6,9 C 32,2 km/h (5 Bft) 100,00 %
29.03.2016 15:50 13,2 C 63 % 1011,8 hPa 0,0 l/m 21,1 km/h (4 Bft) W-NW 300 1 min 0,000 mm 1,7 UV-I 541 W/m 6,3 C 7,1 C 27,4 km/h (4 Bft) 95,83 %
29.03.2016 15:51 13,2 C 62 % 1011,7 hPa 0,0 l/m 24,2 km/h (4 Bft) SW 234 1 min 0,000 mm 1,7 UV-I 565 W/m 6,1 C 6,4 C 33,8 km/h (5 Bft) 100,00 %
29.03.2016 15:52 13,3 C 62 % 1011,8 hPa 0,0 l/m 23,5 km/h (4 Bft) W-SW 247 1 min 0,000 mm 1,7 UV-I 565 W/m 6,2 C 6,6 C 35,4 km/h (5 Bft) 95,83 %
29.03.2016 15:53 13,3 C 60 % 1011,8 hPa 0,0 l/m 22,6 km/h (4 Bft) SW 234 1 min 0,000 mm 1,7 UV-I 559 W/m 5,7 C 6,9 C 35,4 km/h (5 Bft) 100,00 %
29.03.2016 15:54 13,3 C 62 % 1011,7 hPa 0,0 l/m 24,5 km/h (4 Bft) SW 220 1 min 0,000 mm 1,3 UV-I 552 W/m 6,2 C 6,4 C 30,6 km/h (5 Bft) 96,15 %
29.03.2016 15:55 13,3 C 60 % 1011,8 hPa 0,0 l/m 20,4 km/h (4 Bft) SW 216 1 min 0,000 mm 1,2 UV-I 552 W/m 5,7 C 7,4 C 29,0 km/h (5 Bft) 100,00 %
29.03.2016 15:56 13,3 C 60 % 1011,8 hPa 0,0 l/m 19,3 km/h (3 Bft) S-SW 193 1 min 0,000 mm 1,2 UV-I 558 W/m 5,7 C 7,7 C 30,6 km/h (5 Bft) 96,97 %
29.03.2016 15:57 13,3 C 62 % 1011,7 hPa 0,0 l/m 23,5 km/h (4 Bft) SW 231 1 min 0,000 mm 1,3 UV-I 560 W/m 6,2 C 6,6 C 30,6 km/h (5 Bft) 95,65 %
29.03.2016 15:58 13,3 C 62 % 1011,7 hPa 0,0 l/m 19,2 km/h (3 Bft) S-SW 205 1 min 0,000 mm 1,3 UV-I 519 W/m 6,2 C 7,8 C 27,4 km/h (4 Bft) 100,00 %
29.03.2016 15:59 13,3 C 63 % 1011,8 hPa 0,0 l/m 18,9 km/h (3 Bft) SW 219 1 min 0,000 mm 1,4 UV-I 492 W/m 6,4 C 7,9 C 27,4 km/h (4 Bft) 100,00 %
29.03.2016 16:00 13,3 C 61 % 1011,8 hPa 0,0 l/m 17,0 km/h (3 Bft) SW 216 1 min 0,330 mm 1,5 UV-I 485 W/m 5,9 C 8,5 C 22,5 km/h (4 Bft) 95,12 %
29.03.2016 16:02 13,3 C 63 % 1011,7 hPa 0,0 l/m 20,0 km/h (4 Bft) W-SW 237 2 min 0,000 mm 1,3 UV-I 486 W/m 6,4 C 7,6 C 27,4 km/h (4 Bft) 97,56 %
29.03.2016 16:03 13,3 C 62 % 1011,8 hPa 0,0 l/m 21,2 km/h (4 Bft) S-SW 208 1 min 0,000 mm 1,4 UV-I 494 W/m 6,2 C 7,2 C 25,7 km/h (4 Bft) 95,83 %
29.03.2016 16:04 13,3 C 61 % 1011,8 hPa 0,0 l/m 25,1 km/h (4 Bft) SW 227 1 min 0,000 mm 1,5 UV-I 532 W/m 5,9 C 6,3 C 32,2 km/h (5 Bft) 100,00 %
29.03.2016 16:05 13,3 C 60 % 1011,8 hPa 0,0 l/m 23,7 km/h (4 Bft) W-SW 250 1 min 0,000 mm 1,5 UV-I 554 W/m 5,7 C 6,6 C 33,8 km/h (5 Bft) 91,67 %
29.03.2016 16:06 13,3 C 61 % 1011,6 hPa 0,0 l/m 15,0 km/h (3 Bft) W-SW 238 1 min 0,000 mm 1,5 UV-I 543 W/m 5,9 C 9,1 C 22,5 km/h (4 Bft) 100,00 %
29.03.2016 16:07 13,3 C 62 % 1011,7 hPa 0,0 l/m 17,7 km/h (3 Bft) W-SW 244 1 min 0,000 mm 1,4 UV-I 497 W/m 6,2 C 8,2 C 25,7 km/h (4 Bft) 96,30 %
29.03.2016 16:08 13,4 C 61 % 1011,6 hPa 0,0 l/m 17,0 km/h (3 Bft) SW 234 1 min 0,000 mm 1,4 UV-I 448 W/m 6,0 C 8,6 C 22,5 km/h (4 Bft) 92,31 %
29.03.2016 16:09 13,4 C 63 % 1011,7 hPa 0,0 l/m 17,6 km/h (3 Bft) W-SW 252 1 min 0,000 mm 1,5 UV-I 503 W/m 6,5 C 8,4 C 30,6 km/h (5 Bft) 100,00 %
29.03.2016 16:10 13,5 C 61 % 1011,6 hPa 0,0 l/m 17,9 km/h (3 Bft) SW 234 1 min 0,000 mm 1,4 UV-I 516 W/m 6,1 C 8,4 C 25,7 km/h (4 Bft) 95,65 %
29.03.2016 16:11 13,6 C 62 % 1011,7 hPa 0,0 l/m 15,1 km/h (3 Bft) SW 232 1 min 0,000 mm 1,4 UV-I 520 W/m 6,5 C 9,5 C 20,9 km/h (4 Bft) 100,00 %
29.03.2016 16:12 13,6 C 63 % 1011,7 hPa 0,0 l/m 16,7 km/h (3 Bft) SW 222 1 min 0,000 mm 1,4 UV-I 529 W/m 6,7 C 8,9 C 20,9 km/h (4 Bft) 96,15 %
29.03.2016 16:13 13,7 C 64 % 1011,7 hPa 0,0 l/m 13,7 km/h (3 Bft) S-SW 196 1 min 0,000 mm 1,4 UV-I 517 W/m 7,0 C 10,1 C 24,1 km/h (4 Bft) 96,30 %
29.03.2016 16:14 13,7 C 60 % 1011,6 hPa 0,0 l/m 20,0 km/h (4 Bft) W 261 1 min 0,000 mm 1,4 UV-I 512 W/m 6,1 C 8,1 C 25,7 km/h (4 Bft) 100,00 %
29.03.2016 16:15 13,7 C 60 % 1011,5 hPa 0,0 l/m 15,9 km/h (3 Bft) S-SW 205 1 min 0,000 mm 1,4 UV-I 511 W/m 6,1 C 9,3 C 27,4 km/h (4 Bft) 100,00 %
29.03.2016 16:16 13,7 C 59 % 1011,6 hPa 0,0 l/m 19,2 km/h (3 Bft) SW 223 1 min 0,000 mm 1,4 UV-I 507 W/m 5,8 C 8,3 C 29,0 km/h (5 Bft) 95,65 %
29.03.2016 16:17 13,7 C 60 % 1011,5 hPa 0,0 l/m 20,7 km/h (4 Bft) W-SW 253 1 min 0,000 mm 1,4 UV-I 505 W/m 6,1 C 7,9 C 25,7 km/h (4 Bft) 95,83 %
29.03.2016 16:18 13,7 C 61 % 1011,5 hPa 0,0 l/m 19,5 km/h (3 Bft) W-SW 241 1 min 0,000 mm 1,3 UV-I 498 W/m 6,3 C 8,2 C 29,0 km/h (5 Bft) 100,00 %
29.03.2016 16:19 13,7 C 62 % 1011,6 hPa 0,0 l/m 17,3 km/h (3 Bft) W-SW 240 1 min 0,000 mm 1,3 UV-I 492 W/m 6,6 C 8,9 C 33,8 km/h (5 Bft) 97,37 %
29.03.2016 16:20 13,7 C 60 % 1011,5 hPa 0,0 l/m 21,6 km/h (4 Bft) S-SW 195 1 min 0,000 mm 1,3 UV-I 489 W/m 6,1 C 7,6 C 27,4 km/h (4 Bft) 100,00 %
29.03.2016 16:21 13,7 C 59 % 1011,4 hPa 0,0 l/m 17,9 km/h (3 Bft) S-SW 198 1 min 0,000 mm 1,3 UV-I 489 W/m 5,8 C 8,7 C 27,4 km/h (4 Bft) 96,15 %
29.03.2016 16:22 13,7 C 58 % 1011,4 hPa 0,0 l/m 15,8 km/h (3 Bft) S-SW 211 1 min 0,000 mm 1,3 UV-I 489 W/m 5,6 C 9,3 C 24,1 km/h (4 Bft) 100,00 %
29.03.2016 16:23 13,7 C 60 % 1011,5 hPa 0,0 l/m 18,5 km/h (3 Bft) SW 225 1 min 0,000 mm 1,3 UV-I 491 W/m 6,1 C 8,5 C 24,1 km/h (4 Bft) 100,00 %
29.03.2016 16:24 13,8 C 61 % 1011,5 hPa 0,0 l/m 18,7 km/h (3 Bft) S 171 1 min 0,000 mm 1,3 UV-I 497 W/m 6,4 C 8,6 C 33,8 km/h (5 Bft) 100,00 %
29.03.2016 16:25 13,8 C 58 % 1011,5 hPa 0,0 l/m 21,2 km/h (4 Bft) SW 217 1 min 0,000 mm 1,3 UV-I 498 W/m 5,7 C 7,9 C 30,6 km/h (5 Bft) 96,55 %
29.03.2016 16:26 13,9 C 57 % 1011,5 hPa 0,0 l/m 19,9 km/h (4 Bft) SW 229 1 min 0,000 mm 1,2 UV-I 493 W/m 5,5 C 8,4 C 25,7 km/h (4 Bft) 96,67 %
29.03.2016 16:27 13,9 C 56 % 1011,5 hPa 0,0 l/m 20,9 km/h (4 Bft) W-SW 239 1 min 0,000 mm 1,2 UV-I 497 W/m 5,3 C 8,1 C 29,0 km/h (5 Bft) 100,00 %
29.03.2016 16:28 13,9 C 57 % 1011,5 hPa 0,0 l/m 18,7 km/h (3 Bft) W-SW 242 1 min 0,000 mm 1,2 UV-I 500 W/m 5,5 C 8,7 C 25,7 km/h (4 Bft) 96,30 %
29.03.2016 16:29 13,9 C 59 % 1011,5 hPa 0,0 l/m 12,6 km/h (3 Bft) W-SW 242 1 min 0,000 mm 1,2 UV-I 493 W/m 6,0 C 10,8 C 17,7 km/h (3 Bft) 93,10 %
29.03.2016 16:30 14,0 C 59 % 1011,5 hPa 0,0 l/m 16,2 km/h (3 Bft) W-SW 242 1 min 0,000 mm 1,2 UV-I 484 W/m 6,1 C 9,6 C 24,1 km/h (4 Bft) 100,00 %
29.03.2016 16:31 14,0 C 58 % 1011,4 hPa 0,0 l/m 17,1 km/h (3 Bft) W 259 1 min 0,000 mm 1,2 UV-I 479 W/m 5,9 C 9,3 C 27,4 km/h (4 Bft) 100,00 %
29.03.2016 16:32 14,0 C 58 % 1011,3 hPa 0,0 l/m 17,4 km/h (3 Bft) S-SW 199 1 min 0,000 mm 1,2 UV-I 475 W/m 5,9 C 9,2 C 30,6 km/h (5 Bft) 100,00 %
29.03.2016 16:33 14,0 C 55 % 1011,3 hPa 0,0 l/m 17,7 km/h (3 Bft) S-SW 211 1 min 0,000 mm 1,1 UV-I 479 W/m 5,1 C 9,1 C 25,7 km/h (4 Bft) 100,00 %
29.03.2016 16:34 13,9 C 55 % 1011,4 hPa 0,0 l/m 14,5 km/h (3 Bft) SW 225 1 min 0,000 mm 1,1 UV-I 477 W/m 5,0 C 10,0 C 20,9 km/h (4 Bft) 96,30 %
29.03.2016 16:35 13,9 C 56 % 1011,4 hPa 0,0 l/m 17,9 km/h (3 Bft) SW 214 1 min 0,000 mm 1,1 UV-I 456 W/m 5,3 C 8,9 C 22,5 km/h (4 Bft) 100,00 %
29.03.2016 16:36 13,9 C 57 % 1011,4 hPa 0,0 l/m 17,8 km/h (3 Bft) SW 228 1 min 0,000 mm 0,9 UV-I 383 W/m 5,5 C 9,0 C 24,1 km/h (4 Bft) 100,00 %
29.03.2016 16:37 13,9 C 58 % 1011,4 hPa 0,0 l/m 18,2 km/h (3 Bft) SW 229 1 min 0,000 mm 1,0 UV-I 446 W/m 5,8 C 8,8 C 24,1 km/h (4 Bft) 100,00 %
29.03.2016 16:38 13,9 C 56 % 1011,5 hPa 0,0 l/m 17,9 km/h (3 Bft) SW 232 1 min 0,000 mm 1,1 UV-I 526 W/m 5,3 C 8,9 C 25,7 km/h (4 Bft) 100,00 %
29.03.2016 16:39 13,9 C 58 % 1011,5 hPa 0,0 l/m 19,0 km/h (3 Bft) SW 223 1 min 0,000 mm 1,1 UV-I 510 W/m 5,8 C 8,6 C 25,7 km/h (4 Bft) 100,00 %
29.03.2016 16:40 13,9 C 57 % 1011,5 hPa 0,0 l/m 11,2 km/h (2 Bft) SW 214 1 min 0,000 mm 0,9 UV-I 503 W/m 5,5 C 11,3 C 19,3 km/h (3 Bft) 100,00 %
29.03.2016 16:41 13,9 C 55 % 1011,4 hPa 0,0 l/m 13,1 km/h (3 Bft) SW 221 1 min 0,000 mm 0,7 UV-I 503 W/m 5,0 C 10,6 C 16,1 km/h (3 Bft) 100,00 %
29.03.2016 16:42 13,8 C 57 % 1011,4 hPa 0,0 l/m 17,5 km/h (3 Bft) S 182 1 min 0,000 mm 0,7 UV-I 503 W/m 5,4 C 8,9 C 25,7 km/h (4 Bft) 94,12 %
29.03.2016 16:43 13,8 C 58 % 1011,4 hPa 0,0 l/m 16,4 km/h (3 Bft) SW 220 1 min 0,000 mm 0,8 UV-I 503 W/m 5,7 C 9,3 C 22,5 km/h (4 Bft) 100,00 %
29.03.2016 16:44 13,8 C 57 % 1011,4 hPa 0,0 l/m 14,3 km/h (3 Bft) S-SO 161 1 min 0,000 mm 0,7 UV-I 503 W/m 5,4 C 10,0 C 20,9 km/h (4 Bft) 100,00 %
29.03.2016 16:45 13,8 C 58 % 1011,5 hPa 0,0 l/m 17,1 km/h (3 Bft) SW 223 0 min 0,000 mm 0,6 UV-I 227 W/m 5,7 C 9,0 C 25,7 km/h (4 Bft) 100,00 %
29.03.2016 16:46 13,8 C 58 % 1011,4 hPa 0,0 l/m 16,0 km/h (3 Bft) W-SW 237 0 min 0,000 mm 0,6 UV-I 161 W/m 5,7 C 9,4 C 24,1 km/h (4 Bft) 100,00 %
29.03.2016 16:47 13,8 C 57 % 1011,4 hPa 0,0 l/m 16,1 km/h (3 Bft) S 173 1 min 0,000 mm 0,9 UV-I 257 W/m 5,4 C 9,4 C 24,1 km/h (4 Bft) 100,00 %
29.03.2016 16:48 13,8 C 59 % 1011,4 hPa 0,0 l/m 11,7 km/h (2 Bft) W 260 1 min 0,000 mm 1,0 UV-I 501 W/m 5,9 C 11,0 C 20,9 km/h (4 Bft) 100,00 %
29.03.2016 16:49 13,9 C 57 % 1011,3 hPa 0,0 l/m 20,0 km/h (4 Bft) SW 228 1 min 0,000 mm 0,9 UV-I 463 W/m 5,5 C 8,3 C 29,0 km/h (5 Bft) 100,00 %
29.03.2016 16:50 14,0 C 57 % 1011,3 hPa 0,0 l/m 20,8 km/h (4 Bft) W 271 1 min 0,000 mm 0,9 UV-I 462 W/m 5,6 C 8,2 C 25,7 km/h (4 Bft) 100,00 %
29.03.2016 16:51 14,1 C 56 % 1011,3 hPa 0,0 l/m 15,3 km/h (3 Bft) W-SW 247 1 min 0,000 mm 0,8 UV-I 462 W/m 5,5 C 10,0 C 20,9 km/h (4 Bft) 100,00 %
29.03.2016 16:52 14,0 C 56 % 1011,3 hPa 0,0 l/m 17,3 km/h (3 Bft) SW 231 0 min 0,000 mm 0,7 UV-I 156 W/m 5,4 C 9,2 C 24,1 km/h (4 Bft) 98,55 %
29.03.2016 16:53 14,0 C 55 % 1011,3 hPa 0,0 l/m 18,1 km/h (3 Bft) W-SW 246 0 min 0,000 mm 0,6 UV-I 105 W/m 5,1 C 9,0 C 29,0 km/h (5 Bft) 100,00 %
29.03.2016 16:54 13,9 C 54 % 1011,3 hPa 0,0 l/m 16,6 km/h (3 Bft) W-SW 255 0 min 0,000 mm 0,6 UV-I 110 W/m 4,7 C 9,3 C 33,8 km/h (5 Bft) 96,15 %
29.03.2016 16:55 13,8 C 55 % 1011,3 hPa 0,0 l/m 13,0 km/h (3 Bft) W 267 0 min 0,000 mm 0,5 UV-I 102 W/m 4,9 C 10,5 C 16,1 km/h (3 Bft) 100,00 %
29.03.2016 16:56 13,8 C 56 % 1011,3 hPa 0,0 l/m 17,1 km/h (3 Bft) W 277 0 min 0,000 mm 0,3 UV-I 110 W/m 5,2 C 9,0 C 25,7 km/h (4 Bft) 100,00 %
29.03.2016 16:57 13,7 C 57 % 1011,4 hPa 0,0 l/m 15,2 km/h (3 Bft) W-SW 253 0 min 0,000 mm 0,3 UV-I 114 W/m 5,3 C 9,5 C 22,5 km/h (4 Bft) 100,00 %
29.03.2016 16:58 13,7 C 57 % 1011,4 hPa 0,0 l/m 14,7 km/h (3 Bft) W-SW 246 0 min 0,000 mm 0,1 UV-I 135 W/m 5,3 C 9,7 C 19,3 km/h (3 Bft) 100,00 %
29.03.2016 16:59 13,6 C 57 % 1011,4 hPa 0,0 l/m 16,6 km/h (3 Bft) W-SW 244 0 min 0,000 mm 0,4 UV-I 139 W/m 5,2 C 9,0 C 22,5 km/h (4 Bft) 100,00 %
29.03.2016 17:00 13,6 C 58 % 1011,4 hPa 0,0 l/m 14,3 km/h (3 Bft) S-SW 212 0 min 0,000 mm 0,5 UV-I 119 W/m 5,5 C 9,7 C 20,9 km/h (4 Bft) 100,00 %
29.03.2016 17:02 13,5 C 58 % 1011,3 hPa 0,0 l/m 16,3 km/h (3 Bft) S-SW 210 0 min 0,280 mm 0,2 UV-I 93 W/m 5,4 C 8,9 C 22,5 km/h (4 Bft) 97,87 %
29.03.2016 17:03 13,4 C 59 % 1011,3 hPa 0,0 l/m 12,1 km/h (2 Bft) SW 219 0 min 0,000 mm 0,0 UV-I 81 W/m 5,6 C 10,4 C 19,3 km/h (3 Bft) 100,00 %
29.03.2016 17:04 13,4 C 59 % 1011,3 hPa 0,0 l/m 15,0 km/h (3 Bft) SW 216 0 min 0,000 mm 0,0 UV-I 85 W/m 5,6 C 9,3 C 22,5 km/h (4 Bft) 100,00 %
29.03.2016 17:05 13,3 C 59 % 1011,4 hPa 0,0 l/m 15,3 km/h (3 Bft) W-SW 252 0 min 0,000 mm 0,0 UV-I 97 W/m 5,5 C 9,0 C 17,7 km/h (3 Bft) 98,56 %
29.03.2016 17:06 13,3 C 59 % 1011,5 hPa 0,0 l/m 15,0 km/h (3 Bft) SW 235 0 min 0,000 mm 0,0 UV-I 100 W/m 5,5 C 9,1 C 22,5 km/h (4 Bft) 100,00 %
29.03.2016 17:07 13,3 C 61 % 1011,7 hPa 0,0 l/m 15,8 km/h (3 Bft) W-SW 248 0 min 0,000 mm 0,0 UV-I 97 W/m 5,9 C 8,9 C 19,3 km/h (3 Bft) 100,00 %
29.03.2016 17:08 13,3 C 60 % 1011,5 hPa 0,0 l/m 13,2 km/h (3 Bft) W 273 0 min 0,000 mm 0,0 UV-I 90 W/m 5,7 C 9,8 C 20,9 km/h (4 Bft) 100,00 %
29.03.2016 17:09 13,3 C 58 % 1011,4 hPa 0,0 l/m 12,8 km/h (3 Bft) W-SW 250 0 min 0,000 mm 0,0 UV-I 80 W/m 5,2 C 10,0 C 20,9 km/h (4 Bft) 100,00 %
29.03.2016 17:10 13,3 C 57 % 1011,4 hPa 0,0 l/m 13,9 km/h (3 Bft) W 266 0 min 0,000 mm 0,0 UV-I 76 W/m 5,0 C 9,5 C 19,3 km/h (3 Bft) 100,00 %
29.03.2016 17:11 13,3 C 59 % 1011,4 hPa 0,0 l/m 10,9 km/h (2 Bft) W-SW 258 0 min 0,000 mm 0,0 UV-I 78 W/m 5,5 C 10,8 C 16,1 km/h (3 Bft) 100,00 %
29.03.2016 17:12 13,3 C 58 % 1011,5 hPa 0,0 l/m 10,1 km/h (2 Bft) W 259 0 min 0,000 mm 0,0 UV-I 82 W/m 5,2 C 11,2 C 17,7 km/h (3 Bft) 100,00 %
29.03.2016 17:13 13,3 C 59 % 1011,6 hPa 0,0 l/m 13,4 km/h (3 Bft) W-SW 252 0 min 0,000 mm 0,0 UV-I 86 W/m 5,5 C 9,7 C 16,1 km/h (3 Bft) 100,00 %
29.03.2016 17:14 13,2 C 58 % 1011,8 hPa 0,0 l/m 17,4 km/h (3 Bft) W-SW 253 0 min 0,000 mm 0,0 UV-I 100 W/m 5,1 C 8,2 C 24,1 km/h (4 Bft) 100,00 %
29.03.2016 17:15 13,3 C 58 % 1011,8 hPa 0,0 l/m 15,1 km/h (3 Bft) W 263 0 min 0,000 mm 0,0 UV-I 121 W/m 5,2 C 9,1 C 20,9 km/h (4 Bft) 100,00 %
29.03.2016 17:16 13,3 C 59 % 1011,8 hPa 0,0 l/m 12,8 km/h (3 Bft) W 267 0 min 0,000 mm 0,0 UV-I 122 W/m 5,5 C 10,0 C 16,1 km/h (3 Bft) 100,00 %
29.03.2016 17:17 13,3 C 58 % 1011,7 hPa 0,0 l/m 11,1 km/h (2 Bft) W-SW 253 0 min 0,000 mm 0,0 UV-I 115 W/m 5,2 C 10,7 C 14,5 km/h (3 Bft) 100,00 %
29.03.2016 17:18 13,3 C 59 % 1011,7 hPa 0,0 l/m 5,7 km/h (1 Bft) W-SW 255 0 min 0,000 mm 0,0 UV-I 100 W/m 5,5 C 13,3 C 11,3 km/h (2 Bft) 100,00 %
29.03.2016 17:19 13,3 C 59 % 1011,7 hPa 0,0 l/m 9,1 km/h (2 Bft) W 265 0 min 0,000 mm 0,0 UV-I 87 W/m 5,5 C 11,7 C 12,9 km/h (3 Bft) 100,00 %
29.03.2016 17:20 13,3 C 58 % 1011,7 hPa 0,0 l/m 6,4 km/h (2 Bft) W-SW 241 0 min 0,000 mm 0,0 UV-I 87 W/m 5,2 C 13,3 C 12,9 km/h (3 Bft) 100,00 %
29.03.2016 17:21 13,3 C 58 % 1011,7 hPa 0,0 l/m 8,2 km/h (2 Bft) W 271 0 min 0,000 mm 0,0 UV-I 100 W/m 5,2 C 12,2 C 11,3 km/h (2 Bft) 100,00 %
29.03.2016 17:22 13,2 C 61 % 1011,7 hPa 0,0 l/m 5,5 km/h (1 Bft) W 269 0 min 0,000 mm 0,0 UV-I 114 W/m 5,8 C 13,2 C 9,7 km/h (2 Bft) 100,00 %
29.03.2016 17:23 13,2 C 60 % 1011,8 hPa 0,0 l/m 10,4 km/h (2 Bft) W 261 0 min 0,000 mm 0,0 UV-I 121 W/m 5,6 C 10,9 C 20,9 km/h (4 Bft) 100,00 %
29.03.2016 17:24 13,2 C 57 % 1011,8 hPa 0,0 l/m 15,0 km/h (3 Bft) W-SW 257 0 min 0,000 mm 0,0 UV-I 124 W/m 4,9 C 9,0 C 19,3 km/h (3 Bft) 100,00 %
29.03.2016 17:25 13,2 C 57 % 1011,8 hPa 0,0 l/m 11,1 km/h (2 Bft) W 268 0 min 0,000 mm 0,0 UV-I 124 W/m 4,9 C 10,6 C 14,5 km/h (3 Bft) 100,00 %
29.03.2016 17:26 13,3 C 58 % 1011,8 hPa 0,0 l/m 12,2 km/h (2 Bft) W 259 0 min 0,000 mm 0,0 UV-I 117 W/m 5,2 C 10,2 C 24,1 km/h (4 Bft) 93,10 %
29.03.2016 17:27 13,3 C 58 % 1011,8 hPa 0,0 l/m 13,5 km/h (3 Bft) W 260 0 min 0,000 mm 0,0 UV-I 100 W/m 5,2 C 9,7 C 20,9 km/h (4 Bft) 100,00 %
29.03.2016 17:28 13,3 C 57 % 1011,8 hPa 0,0 l/m 16,8 km/h (3 Bft) W-SW 246 0 min 0,000 mm 0,0 UV-I 92 W/m 5,0 C 8,5 C 24,1 km/h (4 Bft) 100,00 %
29.03.2016 17:29 13,3 C 56 % 1011,7 hPa 0,0 l/m 9,3 km/h (2 Bft) W 273 0 min 0,000 mm 0,0 UV-I 104 W/m 4,7 C 11,6 C 12,9 km/h (3 Bft) 96,30 %
29.03.2016 17:30 13,3 C 57 % 1011,8 hPa 0,0 l/m 7,6 km/h (2 Bft) W-SW 249 0 min 0,000 mm 0,0 UV-I 128 W/m 5,0 C 12,6 C 12,9 km/h (3 Bft) 100,00 %
29.03.2016 17:31 13,3 C 56 % 1011,8 hPa 0,0 l/m 17,5 km/h (3 Bft) W 262 0 min 0,000 mm 0,0 UV-I 147 W/m 4,7 C 8,3 C 29,0 km/h (5 Bft) 100,00 %
29.03.2016 17:32 13,3 C 55 % 1011,8 hPa 0,0 l/m 12,9 km/h (3 Bft) W 265 0 min 0,000 mm 0,0 UV-I 141 W/m 4,5 C 9,9 C 17,7 km/h (3 Bft) 100,00 %
29.03.2016 17:33 13,3 C 55 % 1011,8 hPa 0,0 l/m 14,8 km/h (3 Bft) W-NW 299 0 min 0,000 mm 0,0 UV-I 125 W/m 4,5 C 9,2 C 19,3 km/h (3 Bft) 100,00 %
29.03.2016 17:34 13,3 C 55 % 1011,8 hPa 0,0 l/m 11,7 km/h (2 Bft) W-NW 286 0 min 0,000 mm 0,0 UV-I 110 W/m 4,5 C 10,4 C 17,7 km/h (3 Bft) 100,00 %
29.03.2016 17:35 13,3 C 56 % 1011,8 hPa 0,0 l/m 14,2 km/h (3 Bft) W 268 0 min 0,000 mm 0,0 UV-I 102 W/m 4,7 C 9,4 C 20,9 km/h (4 Bft) 100,00 %
29.03.2016 17:36 13,3 C 55 % 1011,8 hPa 0,0 l/m 12,9 km/h (3 Bft) W 281 0 min 0,000 mm 0,0 UV-I 101 W/m 4,5 C 9,9 C 24,1 km/h (4 Bft) 100,00 %
29.03.2016 17:37 13,3 C 56 % 1011,9 hPa 0,0 l/m 4,7 km/h (1 Bft) N-NW 328 0 min 0,000 mm 0,0 UV-I 107 W/m 4,7 C 13,3 C 8,0 km/h (2 Bft) 100,00 %
29.03.2016 17:38 13,3 C 56 % 1011,9 hPa 0,0 l/m 4,7 km/h (1 Bft) W-NW 287 0 min 0,000 mm 0,0 UV-I 124 W/m 4,7 C 13,3 C 11,3 km/h (2 Bft) 100,00 %
29.03.2016 17:39 13,3 C 56 % 1012,0 hPa 0,0 l/m 8,1 km/h (2 Bft) W 267 0 min 0,000 mm 0,0 UV-I 140 W/m 4,7 C 12,3 C 11,3 km/h (2 Bft) 100,00 %
29.03.2016 17:40 13,3 C 57 % 1011,9 hPa 0,0 l/m 8,0 km/h (2 Bft) W-SW 254 0 min 0,000 mm 0,0 UV-I 138 W/m 5,0 C 12,3 C 11,3 km/h (2 Bft) 100,00 %
29.03.2016 17:41 13,3 C 57 % 1011,9 hPa 0,0 l/m 6,2 km/h (2 Bft) W 259 0 min 0,000 mm 0,0 UV-I 137 W/m 5,0 C 13,3 C 8,0 km/h (2 Bft) 96,15 %
29.03.2016 17:42 13,3 C 57 % 1011,8 hPa 0,0 l/m 5,6 km/h (1 Bft) W-SW 248 0 min 0,000 mm 0,0 UV-I 141 W/m 5,0 C 13,3 C 9,7 km/h (2 Bft) 100,00 %
29.03.2016 17:43 13,3 C 58 % 1011,9 hPa 0,0 l/m 7,2 km/h (2 Bft) W 267 0 min 0,000 mm 0,0 UV-I 142 W/m 5,2 C 12,8 C 9,7 km/h (2 Bft) 91,30 %
29.03.2016 17:44 13,3 C 58 % 1011,8 hPa 0,0 l/m 7,0 km/h (2 Bft) W 262 1 min 0,000 mm 0,0 UV-I 245 W/m 5,2 C 12,9 C 11,3 km/h (2 Bft) 100,00 %
29.03.2016 17:45 13,3 C 57 % 1011,9 hPa 0,0 l/m 6,4 km/h (2 Bft) W-SW 244 1 min 0,000 mm 0,0 UV-I 260 W/m 5,0 C 13,3 C 16,1 km/h (3 Bft) 96,15 %
29.03.2016 17:46 13,4 C 56 % 1011,9 hPa 0,0 l/m 9,2 km/h (2 Bft) W 271 1 min 0,000 mm 0,0 UV-I 210 W/m 4,8 C 11,8 C 12,9 km/h (3 Bft) 100,00 %
29.03.2016 17:47 13,5 C 55 % 1011,9 hPa 0,0 l/m 6,2 km/h (2 Bft) W-SW 256 1 min 0,000 mm 0,0 UV-I 173 W/m 4,6 C 13,5 C 11,3 km/h (2 Bft) 92,86 %
29.03.2016 17:48 13,5 C 56 % 1011,9 hPa 0,0 l/m 7,9 km/h (2 Bft) W-NW 287 0 min 0,000 mm 0,0 UV-I 145 W/m 4,9 C 12,6 C 14,5 km/h (3 Bft) 100,00 %
29.03.2016 17:49 13,6 C 54 % 1011,9 hPa 0,0 l/m 13,9 km/h (3 Bft) W 279 1 min 0,000 mm 0,0 UV-I 152 W/m 4,5 C 9,9 C 20,9 km/h (4 Bft) 93,10 %
29.03.2016 17:50 13,6 C 55 % 1011,8 hPa 0,0 l/m 11,8 km/h (2 Bft) W-NW 288 1 min 0,000 mm 0,0 UV-I 192 W/m 4,7 C 10,7 C 16,1 km/h (3 Bft) 100,00 %
29.03.2016 17:51 13,6 C 55 % 1011,9 hPa 0,0 l/m 12,9 km/h (3 Bft) W 260 1 min 0,000 mm 0,0 UV-I 198 W/m 4,7 C 10,3 C 17,7 km/h (3 Bft) 95,65 %
29.03.2016 17:52 13,6 C 54 % 1011,8 hPa 0,0 l/m 15,0 km/h (3 Bft) W 264 1 min 0,000 mm 0,0 UV-I 192 W/m 4,5 C 9,5 C 17,7 km/h (3 Bft) 96,30 %
29.03.2016 17:53 13,6 C 54 % 1011,8 hPa 0,0 l/m 5,1 km/h (1 Bft) W 260 1 min 0,000 mm 0,0 UV-I 201 W/m 4,5 C 13,6 C 9,7 km/h (2 Bft) 100,00 %
29.03.2016 17:54 13,6 C 53 % 1011,9 hPa 0,0 l/m 7,9 km/h (2 Bft) W-NW 293 1 min 0,000 mm 0,0 UV-I 185 W/m 4,2 C 12,7 C 11,3 km/h (2 Bft) 93,33 %
29.03.2016 17:55 13,6 C 54 % 1011,9 hPa 0,0 l/m 8,2 km/h (2 Bft) W 260 0 min 0,000 mm 0,0 UV-I 118 W/m 4,5 C 12,5 C 12,9 km/h (3 Bft) 100,00 %
29.03.2016 17:56 13,6 C 53 % 1011,8 hPa 0,0 l/m 10,2 km/h (2 Bft) W 259 0 min 0,000 mm 0,0 UV-I 83 W/m 4,2 C 11,5 C 16,1 km/h (3 Bft) 96,15 %
29.03.2016 17:57 13,5 C 53 % 1011,8 hPa 0,0 l/m 6,2 km/h (2 Bft) W 261 0 min 0,000 mm 0,0 UV-I 79 W/m 4,1 C 13,5 C 8,0 km/h (2 Bft) 100,00 %
29.03.2016 17:58 13,5 C 54 % 1011,9 hPa 0,0 l/m 8,9 km/h (2 Bft) W-SW 248 0 min 0,000 mm 0,0 UV-I 81 W/m 4,4 C 12,0 C 17,7 km/h (3 Bft) 91,30 %
29.03.2016 17:59 13,4 C 54 % 1011,9 hPa 0,0 l/m 14,8 km/h (3 Bft) W-NW 298 0 min 0,000 mm 0,0 UV-I 90 W/m 4,3 C 9,3 C 19,3 km/h (3 Bft) 96,30 %
29.03.2016 18:00 13,4 C 55 % 1012,0 hPa 0,0 l/m 12,2 km/h (2 Bft) W 267 0 min 0,000 mm 0,0 UV-I 89 W/m 4,5 C 10,3 C 16,1 km/h (3 Bft) 100,00 %
29.03.2016 18:02 13,3 C 55 % 1012,0 hPa 0,0 l/m 9,7 km/h (2 Bft) W 263 0 min 0,127 mm 0,0 UV-I 77 W/m 4,5 C 11,4 C 12,9 km/h (3 Bft) 97,56 %
29.03.2016 18:03 13,3 C 54 % 1012,0 hPa 0,0 l/m 9,7 km/h (2 Bft) W-NW 293 0 min 0,000 mm 0,0 UV-I 70 W/m 4,2 C 11,4 C 12,9 km/h (3 Bft) 97,62 %
29.03.2016 18:04 13,2 C 54 % 1012,0 hPa 0,0 l/m 10,6 km/h (2 Bft) W-SW 257 0 min 0,000 mm 0,0 UV-I 71 W/m 4,1 C 10,8 C 12,9 km/h (3 Bft) 100,00 %
29.03.2016 18:05 13,2 C 54 % 1012,0 hPa 0,0 l/m 10,9 km/h (2 Bft) W-SW 244 0 min 0,000 mm 0,0 UV-I 74 W/m 4,1 C 10,7 C 16,1 km/h (3 Bft) 96,67 %
29.03.2016 18:06 13,2 C 54 % 1012,0 hPa 0,0 l/m 12,7 km/h (3 Bft) W 273 0 min 0,000 mm 0,0 UV-I 76 W/m 4,1 C 9,9 C 17,7 km/h (3 Bft) 96,15 %
29.03.2016 18:07 13,1 C 55 % 1012,0 hPa 0,0 l/m 8,0 km/h (2 Bft) W-SW 257 0 min 0,000 mm 0,0 UV-I 73 W/m 4,3 C 12,1 C 11,3 km/h (2 Bft) 100,00 %
29.03.2016 18:08 13,1 C 54 % 1012,0 hPa 0,0 l/m 4,9 km/h (1 Bft) W 264 0 min 0,000 mm 0,0 UV-I 69 W/m 4,0 C 13,1 C 9,7 km/h (2 Bft) 96,55 %
29.03.2016 18:09 13,1 C 54 % 1012,1 hPa 0,0 l/m 6,6 km/h (2 Bft) W 263 0 min 0,000 mm 0,0 UV-I 64 W/m 4,0 C 13,0 C 9,7 km/h (2 Bft) 100,00 %
29.03.2016 18:10 13,1 C 55 % 1012,1 hPa 0,0 l/m 9,7 km/h (2 Bft) W-SW 258 0 min 0,000 mm 0,0 UV-I 59 W/m 4,3 C 11,2 C 12,9 km/h (3 Bft) 96,15 %
29.03.2016 18:11 13,0 C 55 % 1012,2 hPa 0,0 l/m 13,2 km/h (3 Bft) W-NW 286 0 min 0,000 mm 0,0 UV-I 58 W/m 4,2 C 9,5 C 16,1 km/h (3 Bft) 100,00 %
29.03.2016 18:12 13,0 C 54 % 1012,1 hPa 0,0 l/m 10,5 km/h (2 Bft) W 265 0 min 0,000 mm 0,0 UV-I 64 W/m 3,9 C 10,7 C 12,9 km/h (3 Bft) 95,65 %
29.03.2016 18:13 12,9 C 56 % 1012,1 hPa 0,0 l/m 8,2 km/h (2 Bft) W 265 0 min 0,000 mm 0,0 UV-I 71 W/m 4,3 C 11,8 C 12,9 km/h (3 Bft) 95,83 %
29.03.2016 18:14 12,9 C 55 % 1012,1 hPa 0,0 l/m 7,2 km/h (2 Bft) W-SW 248 0 min 0,000 mm 0,0 UV-I 67 W/m 4,1 C 12,4 C 14,5 km/h (3 Bft) 91,67 %
29.03.2016 18:15 12,9 C 56 % 1012,1 hPa 0,0 l/m 13,1 km/h (3 Bft) W-SW 250 0 min 0,000 mm 0,0 UV-I 62 W/m 4,3 C 9,4 C 19,3 km/h (3 Bft) 100,00 %
29.03.2016 18:16 12,9 C 55 % 1012,2 hPa 0,0 l/m 11,2 km/h (2 Bft) W-SW 242 0 min 0,000 mm 0,0 UV-I 64 W/m 4,1 C 10,2 C 14,5 km/h (3 Bft) 95,83 %
29.03.2016 18:17 12,9 C 55 % 1012,2 hPa 0,0 l/m 16,1 km/h (3 Bft) W 267 0 min 0,000 mm 0,0 UV-I 74 W/m 4,1 C 8,3 C 20,9 km/h (4 Bft) 96,15 %
29.03.2016 18:18 12,9 C 54 % 1012,2 hPa 0,0 l/m 7,7 km/h (2 Bft) W 278 0 min 0,000 mm 0,0 UV-I 82 W/m 3,8 C 12,1 C 11,3 km/h (2 Bft) 91,67 %
29.03.2016 18:19 12,9 C 54 % 1012,2 hPa 0,0 l/m 5,9 km/h (2 Bft) W-SW 238 0 min 0,000 mm 0,0 UV-I 83 W/m 3,8 C 12,9 C 9,7 km/h (2 Bft) 95,65 %
29.03.2016 18:20 12,9 C 55 % 1012,2 hPa 0,0 l/m 8,7 km/h (2 Bft) SW 226 0 min 0,000 mm 0,0 UV-I 86 W/m 4,1 C 11,5 C 12,9 km/h (3 Bft) 100,00 %
29.03.2016 18:21 12,9 C 55 % 1012,1 hPa 0,0 l/m 9,7 km/h (2 Bft) W-SW 242 0 min 0,000 mm 0,0 UV-I 81 W/m 4,1 C 11,0 C 19,3 km/h (3 Bft) 100,00 %
29.03.2016 18:22 12,8 C 54 % 1012,2 hPa 0,0 l/m 16,6 km/h (3 Bft) W-SW 258 0 min 0,000 mm 0,0 UV-I 77 W/m 3,7 C 8,0 C 20,9 km/h (4 Bft) 96,30 %
29.03.2016 18:23 12,8 C 55 % 1012,2 hPa 0,0 l/m 12,8 km/h (3 Bft) SW 236 0 min 0,000 mm 0,0 UV-I 76 W/m 4,0 C 9,4 C 17,7 km/h (3 Bft) 95,65 %
29.03.2016 18:24 12,8 C 54 % 1012,2 hPa 0,0 l/m 10,5 km/h (2 Bft) W 270 0 min 0,000 mm 0,0 UV-I 79 W/m 3,7 C 10,4 C 12,9 km/h (3 Bft) 100,00 %
29.03.2016 18:25 12,8 C 54 % 1012,2 hPa 0,0 l/m 12,0 km/h (2 Bft) W-SW 244 0 min 0,000 mm 0,0 UV-I 81 W/m 3,7 C 9,7 C 16,1 km/h (3 Bft) 96,15 %
29.03.2016 18:26 12,8 C 55 % 1012,2 hPa 0,0 l/m 11,0 km/h (2 Bft) W-SW 250 0 min 0,000 mm 0,0 UV-I 84 W/m 4,0 C 10,2 C 14,5 km/h (3 Bft) 100,00 %
29.03.2016 18:27 12,8 C 54 % 1012,2 hPa 0,0 l/m 7,4 km/h (2 Bft) W 269 0 min 0,000 mm 0,0 UV-I 86 W/m 3,7 C 12,2 C 9,7 km/h (2 Bft) 95,65 %
29.03.2016 18:28 12,8 C 53 % 1012,2 hPa 0,0 l/m 13,1 km/h (3 Bft) W 280 0 min 0,000 mm 0,0 UV-I 86 W/m 3,5 C 9,3 C 17,7 km/h (3 Bft) 100,00 %
29.03.2016 18:29 12,8 C 54 % 1012,2 hPa 0,0 l/m 17,7 km/h (3 Bft) W 261 0 min 0,000 mm 0,0 UV-I 86 W/m 3,7 C 7,6 C 22,5 km/h (4 Bft) 96,15 %
29.03.2016 18:30 12,8 C 53 % 1012,2 hPa 0,0 l/m 11,6 km/h (2 Bft) W 263 0 min 0,000 mm 0,0 UV-I 86 W/m 3,5 C 9,9 C 16,1 km/h (3 Bft) 95,83 %
29.03.2016 18:31 12,8 C 53 % 1012,2 hPa 0,0 l/m 9,3 km/h (2 Bft) W-NW 282 0 min 0,000 mm 0,0 UV-I 84 W/m 3,5 C 11,1 C 12,9 km/h (3 Bft) 100,00 %
29.03.2016 18:32 12,8 C 53 % 1012,2 hPa 0,0 l/m 8,6 km/h (2 Bft) W 263 0 min 0,000 mm 0,0 UV-I 77 W/m 3,5 C 11,4 C 11,3 km/h (2 Bft) 100,00 %
29.03.2016 18:33 12,8 C 54 % 1012,1 hPa 0,0 l/m 8,4 km/h (2 Bft) W 262 0 min 0,000 mm 0,0 UV-I 74 W/m 3,7 C 11,6 C 12,9 km/h (3 Bft) 100,00 %
29.03.2016 18:34 12,8 C 54 % 1012,2 hPa 0,0 l/m 7,1 km/h (2 Bft) W 267 0 min 0,000 mm 0,0 UV-I 68 W/m 3,7 C 12,4 C 9,7 km/h (2 Bft) 100,00 %
29.03.2016 18:35 12,8 C 53 % 1012,2 hPa 0,0 l/m 9,3 km/h (2 Bft) W 270 0 min 0,000 mm 0,0 UV-I 64 W/m 3,5 C 11,1 C 14,5 km/h (3 Bft) 100,00 %
29.03.2016 18:36 12,7 C 54 % 1012,2 hPa 0,0 l/m 6,4 km/h (2 Bft) SW 234 0 min 0,000 mm 0,0 UV-I 59 W/m 3,6 C 12,7 C 9,7 km/h (2 Bft) 100,00 %
29.03.2016 18:37 12,7 C 53 % 1012,2 hPa 0,0 l/m 12,0 km/h (2 Bft) W 268 0 min 0,000 mm 0,0 UV-I 55 W/m 3,4 C 9,6 C 14,5 km/h (3 Bft) 100,00 %
29.03.2016 18:38 12,7 C 53 % 1012,1 hPa 0,0 l/m 10,5 km/h (2 Bft) SW 230 0 min 0,000 mm 0,0 UV-I 51 W/m 3,4 C 10,3 C 14,5 km/h (3 Bft) 100,00 %
29.03.2016 18:39 12,7 C 53 % 1012,1 hPa 0,0 l/m 9,3 km/h (2 Bft) W-SW 239 0 min 0,000 mm 0,0 UV-I 48 W/m 3,4 C 10,9 C 14,5 km/h (3 Bft) 98,54 %
29.03.2016 18:40 12,7 C 52 % 1012,1 hPa 0,0 l/m 11,3 km/h (2 Bft) W-SW 241 0 min 0,000 mm 0,0 UV-I 46 W/m 3,1 C 9,9 C 16,1 km/h (3 Bft) 100,00 %
29.03.2016 18:41 12,7 C 53 % 1012,2 hPa 0,0 l/m 7,7 km/h (2 Bft) W-SW 238 0 min 0,000 mm 0,0 UV-I 45 W/m 3,4 C 11,9 C 11,3 km/h (2 Bft) 100,00 %
29.03.2016 18:42 12,6 C 54 % 1012,2 hPa 0,0 l/m 8,2 km/h (2 Bft) W-SW 247 0 min 0,000 mm 0,0 UV-I 44 W/m 3,5 C 11,5 C 12,9 km/h (3 Bft) 100,00 %
29.03.2016 18:43 12,6 C 54 % 1012,3 hPa 0,0 l/m 10,9 km/h (2 Bft) W-SW 254 0 min 0,000 mm 0,0 UV-I 42 W/m 3,5 C 10,0 C 14,5 km/h (3 Bft) 100,00 %
29.03.2016 18:44 12,6 C 53 % 1012,4 hPa 0,0 l/m 16,6 km/h (3 Bft) SW 236 0 min 0,000 mm 0,0 UV-I 44 W/m 3,3 C 7,7 C 19,3 km/h (3 Bft) 96,55 %
29.03.2016 18:45 12,6 C 54 % 1012,4 hPa 0,0 l/m 12,3 km/h (3 Bft) W 265 0 min 0,000 mm 0,0 UV-I 46 W/m 3,5 C 9,4 C 14,5 km/h (3 Bft) 95,83 %
29.03.2016 18:46 12,5 C 54 % 1012,4 hPa 0,0 l/m 9,2 km/h (2 Bft) W 270 0 min 0,000 mm 0,0 UV-I 45 W/m 3,5 C 10,8 C 11,3 km/h (2 Bft) 100,00 %
29.03.2016 18:47 12,5 C 54 % 1012,4 hPa 0,0 l/m 6,1 km/h (2 Bft) W 262 0 min 0,000 mm 0,0 UV-I 41 W/m 3,5 C 12,5 C 6,4 km/h (2 Bft) 100,00 %
29.03.2016 18:48 12,5 C 55 % 1012,3 hPa 0,0 l/m 9,9 km/h (2 Bft) W-SW 257 0 min 0,000 mm 0,0 UV-I 38 W/m 3,7 C 10,4 C 14,5 km/h (3 Bft) 100,00 %
29.03.2016 18:49 12,4 C 55 % 1012,3 hPa 0,0 l/m 10,6 km/h (2 Bft) W 273 0 min 0,000 mm 0,0 UV-I 35 W/m 3,6 C 9,9 C 14,5 km/h (3 Bft) 100,00 %
29.03.2016 18:50 12,4 C 55 % 1012,3 hPa 0,0 l/m 7,5 km/h (2 Bft) SW 234 0 min 0,000 mm 0,0 UV-I 33 W/m 3,6 C 11,7 C 12,9 km/h (3 Bft) 100,00 %
29.03.2016 18:51 12,4 C 55 % 1012,3 hPa 0,0 l/m 10,4 km/h (2 Bft) W-SW 247 0 min 0,000 mm 0,0 UV-I 32 W/m 3,6 C 10,0 C 12,9 km/h (3 Bft) 94,44 %
29.03.2016 18:52 12,3 C 55 % 1012,3 hPa 0,0 l/m 6,5 km/h (2 Bft) W-SW 246 0 min 0,000 mm 0,0 UV-I 31 W/m 3,5 C 12,3 C 11,3 km/h (2 Bft) 100,00 %
29.03.2016 18:53 12,3 C 54 % 1012,2 hPa 0,0 l/m 10,9 km/h (2 Bft) W-SW 245 0 min 0,000 mm 0,0 UV-I 30 W/m 3,3 C 9,7 C 16,1 km/h (3 Bft) 100,00 %
29.03.2016 18:54 12,3 C 53 % 1012,3 hPa 0,0 l/m 14,1 km/h (3 Bft) W-SW 248 0 min 0,000 mm 0,0 UV-I 30 W/m 3,0 C 8,3 C 17,7 km/h (3 Bft) 92,31 %
29.03.2016 18:55 12,3 C 54 % 1012,3 hPa 0,0 l/m 8,4 km/h (2 Bft) W 278 0 min 0,000 mm 0,0 UV-I 30 W/m 3,3 C 11,0 C 14,5 km/h (3 Bft) 100,00 %
29.03.2016 18:56 12,3 C 54 % 1012,3 hPa 0,0 l/m 9,8 km/h (2 Bft) W 263 0 min 0,000 mm 0,0 UV-I 28 W/m 3,3 C 10,2 C 14,5 km/h (3 Bft) 100,00 %
29.03.2016 18:57 12,3 C 54 % 1012,3 hPa 0,0 l/m 11,1 km/h (2 Bft) W 261 0 min 0,000 mm 0,0 UV-I 28 W/m 3,3 C 9,6 C 14,5 km/h (3 Bft) 100,00 %
29.03.2016 18:58 12,3 C 54 % 1012,3 hPa 0,0 l/m 11,1 km/h (2 Bft) W 275 0 min 0,000 mm 0,0 UV-I 28 W/m 3,3 C 9,6 C 14,5 km/h (3 Bft) 95,83 %
29.03.2016 18:59 12,3 C 54 % 1012,3 hPa 0,0 l/m 7,4 km/h (2 Bft) W 259 0 min 0,000 mm 0,0 UV-I 28 W/m 3,3 C 11,6 C 11,3 km/h (2 Bft) 100,00 %
29.03.2016 19:00 12,2 C 53 % 1012,3 hPa 0,0 l/m 8,3 km/h (2 Bft) W-SW 245 0 min 0,000 mm 0,0 UV-I 28 W/m 2,9 C 11,0 C 12,9 km/h (3 Bft) 93,33 %
29.03.2016 19:02 12,2 C 56 % 1012,3 hPa 0,0 l/m 9,2 km/h (2 Bft) W 266 0 min 0,076 mm 0,0 UV-I 28 W/m 3,7 C 10,5 C 12,9 km/h (3 Bft) 100,00 %
29.03.2016 19:03 12,2 C 54 % 1012,3 hPa 0,0 l/m 7,9 km/h (2 Bft) W 261 0 min 0,000 mm 0,0 UV-I 27 W/m 3,2 C 11,2 C 9,7 km/h (2 Bft) 98,54 %
29.03.2016 19:04 12,2 C 55 % 1012,3 hPa 0,0 l/m 6,7 km/h (2 Bft) W-SW 256 0 min 0,000 mm 0,0 UV-I 26 W/m 3,4 C 12,0 C 11,3 km/h (2 Bft) 100,00 %
29.03.2016 19:05 12,2 C 55 % 1012,2 hPa 0,0 l/m 6,9 km/h (2 Bft) W 265 0 min 0,000 mm 0,0 UV-I 25 W/m 3,4 C 11,9 C 11,3 km/h (2 Bft) 97,56 %
29.03.2016 19:06 12,2 C 55 % 1012,2 hPa 0,0 l/m 6,8 km/h (2 Bft) W 261 0 min 0,000 mm 0,0 UV-I 24 W/m 3,4 C 11,9 C 11,3 km/h (2 Bft) 100,00 %
29.03.2016 19:07 12,1 C 56 % 1012,2 hPa 0,0 l/m 4,6 km/h (1 Bft) W 264 0 min 0,000 mm 0,0 UV-I 21 W/m 3,6 C 12,1 C 6,4 km/h (2 Bft) 100,00 %
29.03.2016 19:08 12,1 C 55 % 1012,2 hPa 0,0 l/m 9,2 km/h (2 Bft) W-SW 257 0 min 0,000 mm 0,0 UV-I 20 W/m 3,3 C 10,3 C 12,9 km/h (3 Bft) 100,00 %
29.03.2016 19:10 12,0 C 55 % 1012,3 hPa 0,0 l/m 5,8 km/h (2 Bft) W 274 0 min 0,000 mm 0,0 UV-I 17 W/m 3,2 C 12,0 C 11,3 km/h (2 Bft) 94,74 %
29.03.2016 19:11 11,9 C 57 % 1012,3 hPa 0,0 l/m 5,7 km/h (1 Bft) W-NW 283 0 min 0,000 mm 0,0 UV-I 14 W/m 3,7 C 11,9 C 6,4 km/h (2 Bft) 100,00 %
29.03.2016 19:12 11,9 C 58 % 1012,4 hPa 0,0 l/m 4,4 km/h (1 Bft) W 275 0 min 0,000 mm 0,0 UV-I 14 W/m 3,9 C 11,9 C 6,4 km/h (2 Bft) 100,00 %
29.03.2016 19:13 11,8 C 57 % 1012,4 hPa 0,0 l/m 6,6 km/h (2 Bft) W-SW 255 0 min 0,000 mm 0,0 UV-I 12 W/m 3,6 C 11,7 C 9,7 km/h (2 Bft) 100,00 %
29.03.2016 19:14 11,7 C 58 % 1012,3 hPa 0,0 l/m 5,0 km/h (1 Bft) W-NW 298 0 min 0,000 mm 0,0 UV-I 12 W/m 3,7 C 11,7 C 6,4 km/h (2 Bft) 100,00 %
29.03.2016 19:15 11,7 C 56 % 1012,3 hPa 0,0 l/m 6,6 km/h (2 Bft) W-SW 257 0 min 0,000 mm 0,0 UV-I 11 W/m 3,2 C 11,6 C 9,7 km/h (2 Bft) 93,33 %
29.03.2016 19:16 11,7 C 56 % 1012,3 hPa 0,0 l/m 5,9 km/h (2 Bft) W 264 0 min 0,000 mm 0,0 UV-I 10 W/m 3,2 C 11,7 C 9,7 km/h (2 Bft) 100,00 %
29.03.2016 19:17 11,7 C 56 % 1012,4 hPa 0,0 l/m 5,7 km/h (1 Bft) W-NW 286 0 min 0,000 mm 0,0 UV-I 9 W/m 3,2 C 11,7 C 9,7 km/h (2 Bft) 100,00 %
29.03.2016 19:18 11,7 C 56 % 1012,4 hPa 0,0 l/m 4,3 km/h (1 Bft) W 267 0 min 0,000 mm 0,0 UV-I 7 W/m 3,2 C 11,7 C 6,4 km/h (2 Bft) 100,00 %
29.03.2016 19:19 11,7 C 56 % 1012,4 hPa 0,0 l/m 5,6 km/h (1 Bft) W 260 0 min 0,000 mm 0,0 UV-I 7 W/m 3,2 C 11,7 C 9,7 km/h (2 Bft) 96,30 %
29.03.2016 19:20 11,7 C 56 % 1012,4 hPa 0,0 l/m 6,1 km/h (2 Bft) W-SW 252 0 min 0,000 mm 0,0 UV-I 6 W/m 3,2 C 11,7 C 8,0 km/h (2 Bft) 100,00 %
29.03.2016 19:21 11,7 C 56 % 1012,4 hPa 0,0 l/m 8,4 km/h (2 Bft) W-SW 248 0 min 0,000 mm 0,0 UV-I 5 W/m 3,2 C 10,4 C 11,3 km/h (2 Bft) 100,00 %
29.03.2016 19:22 11,7 C 57 % 1012,5 hPa 0,0 l/m 7,9 km/h (2 Bft) W-NW 286 0 min 0,000 mm 0,0 UV-I 5 W/m 3,5 C 10,7 C 11,3 km/h (2 Bft) 100,00 %
29.03.2016 19:23 11,7 C 56 % 1012,5 hPa 0,0 l/m 7,2 km/h (2 Bft) W 263 0 min 0,000 mm 0,0 UV-I 1 W/m 3,2 C 11,2 C 9,7 km/h (2 Bft) 100,00 %
29.03.2016 19:24 11,7 C 57 % 1012,5 hPa 0,0 l/m 5,2 km/h (1 Bft) W 267 0 min 0,000 mm 0,0 UV-I 0 W/m 3,5 C 11,7 C 6,4 km/h (2 Bft) 100,00 %
29.03.2016 19:25 11,7 C 57 % 1012,4 hPa 0,0 l/m 5,0 km/h (1 Bft) W-SW 254 0 min 0,000 mm 0,0 UV-I 0 W/m 3,5 C 11,7 C 6,4 km/h (2 Bft) 100,00 %
29.03.2016 19:26 11,7 C 57 % 1012,5 hPa 0,0 l/m 6,2 km/h (2 Bft) W 259 0 min 0,000 mm 0,0 UV-I 0 W/m 3,5 C 11,7 C 9,7 km/h (2 Bft) 95,65 %
29.03.2016 19:27 11,7 C 57 % 1012,5 hPa 0,0 l/m 7,0 km/h (2 Bft) W 262 0 min 0,000 mm 0,0 UV-I 0 W/m 3,5 C 11,3 C 12,9 km/h (3 Bft) 95,83 %
29.03.2016 19:28 11,7 C 57 % 1012,6 hPa 0,0 l/m 6,0 km/h (2 Bft) W 277 0 min 0,000 mm 0,0 UV-I 0 W/m 3,5 C 11,7 C 11,3 km/h (2 Bft) 100,00 %
29.03.2016 19:29 11,7 C 57 % 1012,4 hPa 0,0 l/m 4,3 km/h (1 Bft) W-SW 247 0 min 0,000 mm 0,0 UV-I 0 W/m 3,5 C 11,7 C 6,4 km/h (2 Bft) 100,00 %
29.03.2016 19:30 11,7 C 56 % 1012,6 hPa 0,0 l/m 5,2 km/h (1 Bft) W-SW 248 0 min 0,000 mm 0,0 UV-I 0 W/m 3,2 C 11,7 C 6,4 km/h (2 Bft) 100,00 %
29.03.2016 19:31 11,7 C 57 % 1012,6 hPa 0,0 l/m 5,2 km/h (1 Bft) SW 234 0 min 0,000 mm 0,0 UV-I 0 W/m 3,5 C 11,7 C 8,0 km/h (2 Bft) 100,00 %
29.03.2016 19:32 11,7 C 57 % 1012,7 hPa 0,0 l/m 6,0 km/h (2 Bft) W-SW 248 0 min 0,000 mm 0,0 UV-I 0 W/m 3,5 C 11,7 C 8,0 km/h (2 Bft) 96,15 %
29.03.2016 19:33 11,7 C 57 % 1012,6 hPa 0,0 l/m 3,6 km/h (1 Bft) NW 313 0 min 0,000 mm 0,0 UV-I 0 W/m 3,5 C 11,7 C 4,8 km/h (1 Bft) 100,00 %
29.03.2016 19:34 11,6 C 60 % 1012,6 hPa 0,0 l/m 5,7 km/h (1 Bft) W-NW 294 0 min 0,000 mm 0,0 UV-I 0 W/m 4,1 C 11,6 C 14,5 km/h (3 Bft) 100,00 %
29.03.2016 19:35 11,6 C 59 % 1012,6 hPa 0,0 l/m 8,5 km/h (2 Bft) W 277 0 min 0,000 mm 0,0 UV-I 0 W/m 3,9 C 10,2 C 16,1 km/h (3 Bft) 100,00 %
29.03.2016 19:36 11,6 C 57 % 1012,5 hPa 0,0 l/m 14,6 km/h (3 Bft) S-SW 192 0 min 0,000 mm 0,0 UV-I 0 W/m 3,4 C 7,2 C 24,1 km/h (4 Bft) 100,00 %
29.03.2016 19:37 11,6 C 59 % 1012,6 hPa 0,0 l/m 13,6 km/h (3 Bft) W-SW 250 0 min 0,000 mm 0,0 UV-I 0 W/m 3,9 C 7,6 C 17,7 km/h (3 Bft) 100,00 %
29.03.2016 19:38 11,6 C 58 % 1012,8 hPa 0,0 l/m 11,5 km/h (2 Bft) W-SW 245 0 min 0,000 mm 0,0 UV-I 0 W/m 3,6 C 8,6 C 16,1 km/h (3 Bft) 100,00 %
29.03.2016 19:39 11,6 C 58 % 1012,8 hPa 0,0 l/m 9,8 km/h (2 Bft) W 270 0 min 0,000 mm 0,0 UV-I 0 W/m 3,6 C 9,5 C 12,9 km/h (3 Bft) 100,00 %
29.03.2016 19:40 11,6 C 58 % 1012,9 hPa 0,0 l/m 7,1 km/h (2 Bft) W 273 0 min 0,000 mm 0,0 UV-I 0 W/m 3,6 C 11,1 C 11,3 km/h (2 Bft) 100,00 %
29.03.2016 19:41 11,6 C 59 % 1012,9 hPa 0,0 l/m 11,5 km/h (2 Bft) W 274 0 min 0,000 mm 0,0 UV-I 0 W/m 3,9 C 8,6 C 17,7 km/h (3 Bft) 100,00 %
29.03.2016 19:42 11,6 C 57 % 1012,8 hPa 0,0 l/m 14,7 km/h (3 Bft) W-NW 288 0 min 0,000 mm 0,0 UV-I 0 W/m 3,4 C 7,2 C 19,3 km/h (3 Bft) 100,00 %
29.03.2016 19:43 11,7 C 57 % 1012,7 hPa 0,0 l/m 12,2 km/h (2 Bft) W-SW 253 0 min 0,000 mm 0,0 UV-I 0 W/m 3,5 C 8,4 C 14,5 km/h (3 Bft) 100,00 %
29.03.2016 19:44 11,7 C 57 % 1012,8 hPa 0,0 l/m 11,5 km/h (2 Bft) W-SW 242 0 min 0,000 mm 0,0 UV-I 0 W/m 3,5 C 8,7 C 17,7 km/h (3 Bft) 100,00 %
29.03.2016 19:45 11,7 C 57 % 1012,9 hPa 0,0 l/m 11,7 km/h (2 Bft) W 265 0 min 0,000 mm 0,0 UV-I 0 W/m 3,5 C 8,6 C 16,1 km/h (3 Bft) 100,00 %
29.03.2016 19:46 11,7 C 57 % 1012,9 hPa 0,0 l/m 9,4 km/h (2 Bft) W 268 0 min 0,000 mm 0,0 UV-I 0 W/m 3,5 C 9,8 C 14,5 km/h (3 Bft) 96,30 %
29.03.2016 19:47 11,7 C 59 % 1013,0 hPa 0,0 l/m 6,5 km/h (2 Bft) W-SW 252 0 min 0,000 mm 0,0 UV-I 0 W/m 4,0 C 11,7 C 11,3 km/h (2 Bft) 96,15 %
29.03.2016 19:48 11,7 C 59 % 1013,0 hPa 0,0 l/m 3,1 km/h (1 Bft) W 262 0 min 0,000 mm 0,0 UV-I 0 W/m 4,0 C 11,7 C 6,4 km/h (2 Bft) 100,00 %
29.03.2016 19:49 11,7 C 59 % 1012,9 hPa 0,0 l/m 12,9 km/h (3 Bft) W-SW 254 0 min 0,000 mm 0,0 UV-I 0 W/m 4,0 C 8,1 C 17,7 km/h (3 Bft) 92,86 %
29.03.2016 19:50 11,7 C 58 % 1013,0 hPa 0,0 l/m 16,6 km/h (3 Bft) W-SW 248 0 min 0,000 mm 0,0 UV-I 0 W/m 3,7 C 6,6 C 27,4 km/h (4 Bft) 95,83 %
29.03.2016 19:51 11,7 C 58 % 1012,8 hPa 0,0 l/m 18,8 km/h (3 Bft) W-SW 246 0 min 0,000 mm 0,0 UV-I 0 W/m 3,7 C 5,9 C 25,7 km/h (4 Bft) 96,15 %
29.03.2016 19:52 11,7 C 58 % 1012,9 hPa 0,0 l/m 15,7 km/h (3 Bft) W 260 0 min 0,000 mm 0,0 UV-I 0 W/m 3,7 C 6,9 C 22,5 km/h (4 Bft) 96,30 %
29.03.2016 19:53 11,7 C 59 % 1012,9 hPa 0,0 l/m 24,4 km/h (4 Bft) W-NW 284 0 min 0,000 mm 0,0 UV-I 0 W/m 4,0 C 4,3 C 35,4 km/h (5 Bft) 100,00 %
29.03.2016 19:54 11,7 C 59 % 1013,0 hPa 0,0 l/m 21,0 km/h (4 Bft) S-SW 213 0 min 0,000 mm 0,0 UV-I 0 W/m 4,0 C 5,2 C 30,6 km/h (5 Bft) 91,30 %
29.03.2016 19:55 11,7 C 60 % 1013,0 hPa 0,0 l/m 18,6 km/h (3 Bft) W-SW 248 0 min 0,000 mm 0,0 UV-I 0 W/m 4,2 C 5,9 C 24,1 km/h (4 Bft) 96,30 %
29.03.2016 19:56 11,7 C 60 % 1013,0 hPa 0,0 l/m 20,6 km/h (4 Bft) W 267 0 min 0,000 mm 0,0 UV-I 0 W/m 4,2 C 5,3 C 25,7 km/h (4 Bft) 88,46 %
29.03.2016 19:57 11,7 C 59 % 1013,1 hPa 0,0 l/m 18,1 km/h (3 Bft) W-SW 246 0 min 0,000 mm 0,0 UV-I 0 W/m 4,0 C 6,1 C 24,1 km/h (4 Bft) 100,00 %
29.03.2016 19:58 11,6 C 60 % 1013,0 hPa 0,0 l/m 15,9 km/h (3 Bft) W-SW 256 0 min 0,000 mm 0,0 UV-I 0 W/m 4,1 C 6,7 C 24,1 km/h (4 Bft) 95,65 %
29.03.2016 19:59 11,6 C 59 % 1013,0 hPa 0,0 l/m 19,6 km/h (3 Bft) W-SW 246 0 min 0,000 mm 0,0 UV-I 0 W/m 3,9 C 5,5 C 27,4 km/h (4 Bft) 100,00 %
29.03.2016 20:00 11,6 C 59 % 1013,1 hPa 0,0 l/m 15,6 km/h (3 Bft) W 264 0 min 0,000 mm 0,0 UV-I 0 W/m 3,9 C 6,8 C 24,1 km/h (4 Bft) 96,15 %
29.03.2016 20:02 11,6 C 59 % 1013,1 hPa 0,0 l/m 17,6 km/h (3 Bft) W-SW 240 0 min 0,051 mm 0,0 UV-I 0 W/m 3,9 C 6,1 C 24,1 km/h (4 Bft) 96,43 %
29.03.2016 20:03 11,6 C 60 % 1013,1 hPa 0,0 l/m 19,4 km/h (3 Bft) W 273 0 min 0,000 mm 0,0 UV-I 0 W/m 4,1 C 5,5 C 24,1 km/h (4 Bft) 91,67 %
29.03.2016 20:04 11,6 C 60 % 1013,1 hPa 0,0 l/m 17,4 km/h (3 Bft) W-SW 250 0 min 0,000 mm 0,0 UV-I 0 W/m 4,1 C 6,2 C 24,1 km/h (4 Bft) 92,31 %
29.03.2016 20:05 11,6 C 59 % 1013,1 hPa 0,0 l/m 21,0 km/h (4 Bft) W 275 0 min 0,000 mm 0,0 UV-I 0 W/m 3,9 C 5,1 C 30,6 km/h (5 Bft) 96,97 %
29.03.2016 20:06 11,6 C 60 % 1013,2 hPa 0,0 l/m 18,0 km/h (3 Bft) W-SW 249 0 min 0,000 mm 0,0 UV-I 0 W/m 4,1 C 6,0 C 24,1 km/h (4 Bft) 90,91 %
29.03.2016 20:07 11,6 C 60 % 1013,1 hPa 0,0 l/m 19,0 km/h (3 Bft) W 263 0 min 0,000 mm 0,0 UV-I 0 W/m 4,1 C 5,7 C 25,7 km/h (4 Bft) 96,30 %
29.03.2016 20:08 11,6 C 60 % 1013,2 hPa 0,0 l/m 17,6 km/h (3 Bft) W-SW 256 0 min 0,000 mm 0,0 UV-I 0 W/m 4,1 C 6,1 C 22,5 km/h (4 Bft) 100,00 %
29.03.2016 20:09 11,5 C 60 % 1013,1 hPa 0,0 l/m 19,1 km/h (3 Bft) SW 215 0 min 0,000 mm 0,0 UV-I 0 W/m 4,0 C 5,5 C 29,0 km/h (5 Bft) 95,83 %
29.03.2016 20:10 11,5 C 60 % 1013,1 hPa 0,0 l/m 20,0 km/h (4 Bft) W-SW 255 0 min 0,000 mm 0,0 UV-I 0 W/m 4,0 C 5,2 C 29,0 km/h (5 Bft) 95,65 %
29.03.2016 20:11 11,5 C 61 % 1013,1 hPa 0,0 l/m 21,1 km/h (4 Bft) W-SW 248 0 min 0,000 mm 0,0 UV-I 0 W/m 4,2 C 4,9 C 27,4 km/h (4 Bft) 100,00 %
29.03.2016 20:12 11,5 C 61 % 1013,2 hPa 0,0 l/m 16,3 km/h (3 Bft) W 269 0 min 0,000 mm 0,0 UV-I 0 W/m 4,2 C 6,5 C 24,1 km/h (4 Bft) 96,15 %
29.03.2016 20:13 11,5 C 60 % 1013,2 hPa 0,0 l/m 16,1 km/h (3 Bft) W-SW 248 0 min 0,000 mm 0,0 UV-I 0 W/m 4,0 C 6,5 C 19,3 km/h (3 Bft) 100,00 %
29.03.2016 20:14 11,5 C 61 % 1013,3 hPa 0,0 l/m 23,0 km/h (4 Bft) W 261 0 min 0,000 mm 0,0 UV-I 0 W/m 4,2 C 4,4 C 30,6 km/h (5 Bft) 93,33 %
29.03.2016 20:15 11,5 C 61 % 1013,1 hPa 0,0 l/m 23,1 km/h (4 Bft) W-SW 249 0 min 0,000 mm 0,0 UV-I 0 W/m 4,2 C 4,3 C 30,6 km/h (5 Bft) 100,00 %
29.03.2016 20:16 11,5 C 61 % 1013,1 hPa 0,0 l/m 18,4 km/h (3 Bft) W-SW 253 0 min 0,000 mm 0,0 UV-I 0 W/m 4,2 C 5,7 C 25,7 km/h (4 Bft) 96,15 %
29.03.2016 20:17 11,4 C 62 % 1013,1 hPa 0,0 l/m 13,1 km/h (3 Bft) W-SW 242 0 min 0,000 mm 0,0 UV-I 0 W/m 4,4 C 7,6 C 19,3 km/h (3 Bft) 100,00 %
29.03.2016 20:18 11,4 C 62 % 1013,1 hPa 0,0 l/m 14,6 km/h (3 Bft) W-SW 251 0 min 0,000 mm 0,0 UV-I 0 W/m 4,4 C 7,0 C 20,9 km/h (4 Bft) 96,30 %
29.03.2016 20:19 11,4 C 63 % 1013,1 hPa 0,0 l/m 15,8 km/h (3 Bft) W 263 0 min 0,000 mm 0,0 UV-I 0 W/m 4,6 C 6,5 C 24,1 km/h (4 Bft) 96,15 %
29.03.2016 20:20 11,3 C 63 % 1013,1 hPa 0,0 l/m 16,1 km/h (3 Bft) W-NW 292 0 min 0,000 mm 0,0 UV-I 0 W/m 4,5 C 6,3 C 22,5 km/h (4 Bft) 100,00 %
29.03.2016 20:21 11,2 C 62 % 1013,0 hPa 0,0 l/m 12,5 km/h (3 Bft) W-SW 255 0 min 0,000 mm 0,0 UV-I 0 W/m 4,2 C 7,7 C 20,9 km/h (4 Bft) 100,00 %
29.03.2016 20:22 11,2 C 62 % 1013,0 hPa 0,0 l/m 18,0 km/h (3 Bft) W 268 0 min 0,000 mm 0,0 UV-I 0 W/m 4,2 C 5,5 C 25,7 km/h (4 Bft) 97,44 %
29.03.2016 20:23 11,2 C 61 % 1012,9 hPa 0,0 l/m 18,1 km/h (3 Bft) W 263 0 min 0,000 mm 0,0 UV-I 0 W/m 4,0 C 5,5 C 24,1 km/h (4 Bft) 100,00 %
29.03.2016 20:24 11,2 C 61 % 1012,9 hPa 0,0 l/m 14,3 km/h (3 Bft) W-SW 252 0 min 0,000 mm 0,0 UV-I 0 W/m 4,0 C 6,9 C 17,7 km/h (3 Bft) 100,00 %
29.03.2016 20:25 11,2 C 61 % 1012,8 hPa 0,0 l/m 13,7 km/h (3 Bft) W-NW 284 0 min 0,000 mm 0,0 UV-I 0 W/m 4,0 C 7,1 C 17,7 km/h (3 Bft) 100,00 %
29.03.2016 20:26 11,2 C 61 % 1012,8 hPa 0,0 l/m 11,8 km/h (2 Bft) W-SW 258 0 min 0,000 mm 0,0 UV-I 0 W/m 4,0 C 8,0 C 16,1 km/h (3 Bft) 100,00 %
29.03.2016 20:27 11,1 C 62 % 1012,8 hPa 0,0 l/m 9,9 km/h (2 Bft) W 259 0 min 0,000 mm 0,0 UV-I 0 W/m 4,1 C 8,9 C 12,9 km/h (3 Bft) 96,15 %
29.03.2016 20:28 11,1 C 62 % 1012,8 hPa 0,0 l/m 10,5 km/h (2 Bft) W-SW 248 0 min 0,000 mm 0,0 UV-I 0 W/m 4,1 C 8,5 C 12,9 km/h (3 Bft) 100,00 %
29.03.2016 20:29 11,1 C 62 % 1012,8 hPa 0,0 l/m 9,5 km/h (2 Bft) W 271 0 min 0,000 mm 0,0 UV-I 0 W/m 4,1 C 9,1 C 14,5 km/h (3 Bft) 100,00 %
29.03.2016 20:30 11,0 C 62 % 1012,8 hPa 0,0 l/m 9,7 km/h (2 Bft) W-SW 249 0 min 0,000 mm 0,0 UV-I 0 W/m 4,0 C 8,9 C 14,5 km/h (3 Bft) 92,59 %
29.03.2016 20:31 11,0 C 62 % 1012,7 hPa 0,0 l/m 6,7 km/h (2 Bft) W 275 0 min 0,000 mm 0,0 UV-I 0 W/m 4,0 C 10,8 C 11,3 km/h (2 Bft) 100,00 %
29.03.2016 20:32 10,9 C 61 % 1012,7 hPa 0,0 l/m 10,8 km/h (2 Bft) W-SW 257 0 min 0,000 mm 0,0 UV-I 0 W/m 3,7 C 8,2 C 14,5 km/h (3 Bft) 100,00 %
29.03.2016 20:33 10,9 C 62 % 1012,7 hPa 0,0 l/m 6,8 km/h (2 Bft) W-SW 248 0 min 0,000 mm 0,0 UV-I 0 W/m 3,9 C 10,6 C 9,7 km/h (2 Bft) 100,00 %
29.03.2016 20:34 10,9 C 62 % 1012,7 hPa 0,0 l/m 8,7 km/h (2 Bft) W 263 0 min 0,000 mm 0,0 UV-I 0 W/m 3,9 C 9,4 C 11,3 km/h (2 Bft) 100,00 %
29.03.2016 20:35 10,8 C 63 % 1012,7 hPa 0,0 l/m 7,2 km/h (2 Bft) W 263 0 min 0,000 mm 0,0 UV-I 0 W/m 4,0 C 10,2 C 9,7 km/h (2 Bft) 100,00 %
29.03.2016 20:36 10,8 C 62 % 1012,7 hPa 0,0 l/m 10,9 km/h (2 Bft) W 266 0 min 0,000 mm 0,0 UV-I 0 W/m 3,8 C 8,0 C 14,5 km/h (3 Bft) 95,65 %
29.03.2016 20:37 10,8 C 62 % 1012,7 hPa 0,0 l/m 7,3 km/h (2 Bft) W 265 0 min 0,000 mm 0,0 UV-I 0 W/m 3,8 C 10,2 C 9,7 km/h (2 Bft) 100,00 %
29.03.2016 20:38 10,8 C 63 % 1012,7 hPa 0,0 l/m 7,0 km/h (2 Bft) W-SW 250 0 min 0,000 mm 0,0 UV-I 0 W/m 4,0 C 10,4 C 11,3 km/h (2 Bft) 100,00 %
29.03.2016 20:39 10,7 C 63 % 1012,7 hPa 0,0 l/m 8,1 km/h (2 Bft) W-SW 245 0 min 0,000 mm 0,0 UV-I 0 W/m 3,9 C 9,5 C 11,3 km/h (2 Bft) 100,00 %
29.03.2016 20:40 10,7 C 63 % 1012,7 hPa 0,0 l/m 7,2 km/h (2 Bft) W 274 0 min 0,000 mm 0,0 UV-I 0 W/m 3,9 C 10,1 C 11,3 km/h (2 Bft) 100,00 %
29.03.2016 20:41 10,7 C 63 % 1012,6 hPa 0,0 l/m 6,6 km/h (2 Bft) W 260 0 min 0,000 mm 0,0 UV-I 0 W/m 3,9 C 10,6 C 11,3 km/h (2 Bft) 100,00 %
29.03.2016 20:42 10,6 C 64 % 1012,6 hPa 0,0 l/m 7,6 km/h (2 Bft) W-SW 257 0 min 0,000 mm 0,0 UV-I 0 W/m 4,1 C 9,8 C 11,3 km/h (2 Bft) 100,00 %
29.03.2016 20:43 10,6 C 63 % 1012,6 hPa 0,0 l/m 6,9 km/h (2 Bft) W-SW 257 0 min 0,000 mm 0,0 UV-I 0 W/m 3,9 C 10,3 C 9,7 km/h (2 Bft) 100,00 %
29.03.2016 20:44 10,5 C 63 % 1012,7 hPa 0,0 l/m 8,5 km/h (2 Bft) W-SW 248 0 min 0,000 mm 0,0 UV-I 0 W/m 3,8 C 9,1 C 11,3 km/h (2 Bft) 100,00 %
29.03.2016 20:45 10,5 C 63 % 1012,7 hPa 0,0 l/m 6,8 km/h (2 Bft) W-SW 252 0 min 0,000 mm 0,0 UV-I 0 W/m 3,8 C 10,2 C 9,7 km/h (2 Bft) 100,00 %
29.03.2016 20:46 10,5 C 64 % 1012,7 hPa 0,0 l/m 7,0 km/h (2 Bft) W-SW 244 0 min 0,000 mm 0,0 UV-I 0 W/m 4,0 C 10,1 C 11,3 km/h (2 Bft) 100,00 %
29.03.2016 20:47 10,5 C 64 % 1012,7 hPa 0,0 l/m 6,2 km/h (2 Bft) W-SW 238 0 min 0,000 mm 0,0 UV-I 0 W/m 4,0 C 10,5 C 8,0 km/h (2 Bft) 100,00 %
29.03.2016 20:48 10,4 C 64 % 1012,7 hPa 0,0 l/m 7,6 km/h (2 Bft) W 262 0 min 0,000 mm 0,0 UV-I 0 W/m 3,9 C 9,5 C 12,9 km/h (3 Bft) 100,00 %
29.03.2016 20:49 10,4 C 64 % 1012,6 hPa 0,0 l/m 7,2 km/h (2 Bft) W-SW 250 0 min 0,000 mm 0,0 UV-I 0 W/m 3,9 C 9,8 C 11,3 km/h (2 Bft) 100,00 %
29.03.2016 20:50 10,4 C 64 % 1012,6 hPa 0,0 l/m 8,2 km/h (2 Bft) SW 225 0 min 0,000 mm 0,0 UV-I 0 W/m 3,9 C 9,1 C 11,3 km/h (2 Bft) 100,00 %
29.03.2016 20:51 10,3 C 64 % 1012,6 hPa 0,0 l/m 5,5 km/h (1 Bft) W-SW 248 0 min 0,000 mm 0,0 UV-I 0 W/m 3,8 C 10,3 C 6,4 km/h (2 Bft) 100,00 %
29.03.2016 20:52 10,3 C 65 % 1012,6 hPa 0,0 l/m 6,9 km/h (2 Bft) W-SW 257 0 min 0,000 mm 0,0 UV-I 0 W/m 4,0 C 9,9 C 11,3 km/h (2 Bft) 100,00 %
29.03.2016 20:53 10,3 C 64 % 1012,6 hPa 0,0 l/m 5,0 km/h (1 Bft) W-SW 255 0 min 0,000 mm 0,0 UV-I 0 W/m 3,8 C 10,3 C 6,4 km/h (2 Bft) 100,00 %
29.03.2016 20:54 10,3 C 65 % 1012,5 hPa 0,0 l/m 5,7 km/h (1 Bft) SW 215 0 min 0,000 mm 0,0 UV-I 0 W/m 4,0 C 10,3 C 8,0 km/h (2 Bft) 100,00 %
29.03.2016 20:55 10,3 C 65 % 1012,6 hPa 0,0 l/m 4,2 km/h (1 Bft) SW 220 0 min 0,000 mm 0,0 UV-I 0 W/m 4,0 C 10,3 C 6,4 km/h (2 Bft) 100,00 %
29.03.2016 20:56 10,2 C 65 % 1012,5 hPa 0,0 l/m 4,3 km/h (1 Bft) SW 223 0 min 0,000 mm 0,0 UV-I 0 W/m 3,9 C 10,2 C 4,8 km/h (1 Bft) 96,67 %
29.03.2016 20:57 10,1 C 66 % 1012,5 hPa 0,0 l/m 2,9 km/h (1 Bft) SW 223 0 min 0,000 mm 0,0 UV-I 0 W/m 4,0 C 10,1 C 3,2 km/h (1 Bft) 100,00 %
29.03.2016 20:58 10,1 C 66 % 1012,6 hPa 0,0 l/m 3,4 km/h (1 Bft) SW 223 0 min 0,000 mm 0,0 UV-I 0 W/m 4,0 C 10,1 C 4,8 km/h (1 Bft) 100,00 %
29.03.2016 20:59 9,9 C 66 % 1012,5 hPa 0,0 l/m 3,4 km/h (1 Bft) SW 225 0 min 0,000 mm 0,0 UV-I 0 W/m 3,9 C 9,9 C 4,8 km/h (1 Bft) 100,00 %
29.03.2016 21:00 9,9 C 67 % 1012,6 hPa 0,0 l/m 2,4 km/h (1 Bft) SW 225 0 min 0,000 mm 0,0 UV-I 0 W/m 4,1 C 9,9 C 3,2 km/h (1 Bft) 100,00 %
29.03.2016 21:02 9,8 C 68 % 1012,6 hPa 0,0 l/m 3,8 km/h (1 Bft) SW 221 0 min 0,051 mm 0,0 UV-I 0 W/m 4,2 C 9,8 C 4,8 km/h (1 Bft) 100,00 %
29.03.2016 21:03 9,7 C 68 % 1012,7 hPa 0,0 l/m 3,2 km/h (1 Bft) SW 221 0 min 0,000 mm 0,0 UV-I 0 W/m 4,1 C 9,7 C 4,8 km/h (1 Bft) 100,00 %
29.03.2016 21:04 9,7 C 68 % 1012,7 hPa 0,0 l/m 3,6 km/h (1 Bft) SW 219 0 min 0,000 mm 0,0 UV-I 0 W/m 4,1 C 9,7 C 4,8 km/h (1 Bft) 95,83 %
29.03.2016 21:05 9,6 C 69 % 1012,7 hPa 0,0 l/m 2,3 km/h (1 Bft) SW 215 0 min 0,000 mm 0,0 UV-I 0 W/m 4,2 C 9,6 C 4,8 km/h (1 Bft) 100,00 %
29.03.2016 21:06 9,5 C 70 % 1012,7 hPa 0,0 l/m 3,8 km/h (1 Bft) S-SW 192 0 min 0,000 mm 0,0 UV-I 0 W/m 4,3 C 9,5 C 6,4 km/h (2 Bft) 95,83 %
29.03.2016 21:07 9,3 C 71 % 1012,7 hPa 0,0 l/m 2,3 km/h (1 Bft) S-SW 192 0 min 0,000 mm 0,0 UV-I 0 W/m 4,3 C 9,3 C 4,8 km/h (1 Bft) 100,00 %
29.03.2016 21:08 9,2 C 71 % 1012,7 hPa 0,0 l/m 1,0 km/h (0 Bft) S-SW 192 0 min 0,000 mm 0,0 UV-I 0 W/m 4,2 C 9,2 C 1,6 km/h (1 Bft) 100,00 %
29.03.2016 21:09 9,1 C 72 % 1012,8 hPa 0,0 l/m 1,4 km/h (1 Bft) S-SW 192 0 min 0,000 mm 0,0 UV-I 0 W/m 4,3 C 9,1 C 3,2 km/h (1 Bft) 100,00 %
29.03.2016 21:10 9,0 C 72 % 1012,8 hPa 0,0 l/m 1,0 km/h (0 Bft) S-SW 192 0 min 0,000 mm 0,0 UV-I 0 W/m 4,2 C 9,0 C 3,2 km/h (1 Bft) 100,00 %
29.03.2016 21:11 8,9 C 72 % 1012,8 hPa 0,0 l/m 0,7 km/h (0 Bft) S-SW 192 0 min 0,000 mm 0,0 UV-I 0 W/m 4,1 C 8,9 C 1,6 km/h (1 Bft) 100,00 %
29.03.2016 21:12 8,9 C 72 % 1012,8 hPa 0,0 l/m 1,7 km/h (1 Bft) S-SW 192 0 min 0,000 mm 0,0 UV-I 0 W/m 4,1 C 8,9 C 3,2 km/h (1 Bft) 96,15 %
29.03.2016 21:13 8,8 C 73 % 1012,9 hPa 0,0 l/m 1,9 km/h (1 Bft) S-SW 192 0 min 0,000 mm 0,0 UV-I 0 W/m 4,2 C 8,8 C 3,2 km/h (1 Bft) 100,00 %
29.03.2016 21:14 8,8 C 72 % 1012,8 hPa 0,0 l/m 0,3 km/h (0 Bft) S-SW 192 0 min 0,000 mm 0,0 UV-I 0 W/m 4,0 C 8,8 C 1,6 km/h (1 Bft) 100,00 %
29.03.2016 21:15 8,8 C 72 % 1012,8 hPa 0,0 l/m 0,5 km/h (0 Bft) S-SW 192 0 min 0,000 mm 0,0 UV-I 0 W/m 4,0 C 8,8 C 1,6 km/h (1 Bft) 100,00 %
29.03.2016 21:16 8,8 C 72 % 1012,8 hPa 0,0 l/m 1,4 km/h (1 Bft) S-SW 192 0 min 0,000 mm 0,0 UV-I 0 W/m 4,0 C 8,8 C 3,2 km/h (1 Bft) 96,15 %
29.03.2016 21:17 8,8 C 73 % 1012,8 hPa 0,0 l/m 2,1 km/h (1 Bft) S-SW 192 0 min 0,000 mm 0,0 UV-I 0 W/m 4,2 C 8,8 C 3,2 km/h (1 Bft) 98,54 %
29.03.2016 21:18 8,8 C 73 % 1012,8 hPa 0,0 l/m 1,1 km/h (1 Bft) S-SW 192 0 min 0,000 mm 0,0 UV-I 0 W/m 4,2 C 8,8 C 1,6 km/h (1 Bft) 100,00 %
29.03.2016 21:19 8,8 C 72 % 1012,7 hPa 0,0 l/m 1,3 km/h (1 Bft) S 189 0 min 0,000 mm 0,0 UV-I 0 W/m 4,0 C 8,8 C 1,6 km/h (1 Bft) 100,00 %
29.03.2016 21:20 8,8 C 72 % 1012,8 hPa 0,0 l/m 1,3 km/h (1 Bft) S 189 0 min 0,000 mm 0,0 UV-I 0 W/m 4,0 C 8,8 C 1,6 km/h (1 Bft) 100,00 %
29.03.2016 21:21 8,8 C 72 % 1012,8 hPa 0,0 l/m 1,4 km/h (1 Bft) S 189 0 min 0,000 mm 0,0 UV-I 0 W/m 4,0 C 8,8 C 3,2 km/h (1 Bft) 95,83 %
29.03.2016 21:22 8,8 C 72 % 1012,8 hPa 0,0 l/m 1,3 km/h (1 Bft) S 189 0 min 0,000 mm 0,0 UV-I 0 W/m 4,0 C 8,8 C 3,2 km/h (1 Bft) 95,65 %
29.03.2016 21:23 8,8 C 73 % 1012,8 hPa 0,0 l/m 1,7 km/h (1 Bft) S-SO 157 0 min 0,000 mm 0,0 UV-I 0 W/m 4,2 C 8,8 C 3,2 km/h (1 Bft) 100,00 %
29.03.2016 21:24 8,7 C 73 % 1012,8 hPa 0,0 l/m 3,0 km/h (1 Bft) S-SO 155 0 min 0,000 mm 0,0 UV-I 0 W/m 4,1 C 8,7 C 4,8 km/h (1 Bft) 100,00 %
29.03.2016 21:25 8,7 C 73 % 1012,7 hPa 0,0 l/m 2,2 km/h (1 Bft) S-SO 159 0 min 0,000 mm 0,0 UV-I 0 W/m 4,1 C 8,7 C 4,8 km/h (1 Bft) 100,00 %
29.03.2016 21:26 8,6 C 74 % 1012,8 hPa 0,0 l/m 4,1 km/h (1 Bft) S 176 0 min 0,000 mm 0,0 UV-I 0 W/m 4,2 C 8,6 C 6,4 km/h (2 Bft) 100,00 %
29.03.2016 21:27 8,4 C 74 % 1012,8 hPa 0,0 l/m 5,1 km/h (1 Bft) S 171 0 min 0,000 mm 0,0 UV-I 0 W/m 4,0 C 8,4 C 8,0 km/h (2 Bft) 100,00 %
29.03.2016 21:28 8,3 C 75 % 1012,8 hPa 0,0 l/m 1,9 km/h (1 Bft) S-SO 168 0 min 0,000 mm 0,0 UV-I 0 W/m 4,1 C 8,3 C 3,2 km/h (1 Bft) 100,00 %
29.03.2016 21:29 8,2 C 75 % 1012,8 hPa 0,0 l/m 2,5 km/h (1 Bft) S-SO 149 0 min 0,000 mm 0,0 UV-I 0 W/m 4,0 C 8,2 C 6,4 km/h (2 Bft) 100,00 %
29.03.2016 21:30 8,2 C 75 % 1012,8 hPa 0,0 l/m 3,4 km/h (1 Bft) S 182 0 min 0,000 mm 0,0 UV-I 0 W/m 4,0 C 8,2 C 6,4 km/h (2 Bft) 100,00 %
29.03.2016 21:31 8,2 C 75 % 1012,7 hPa 0,0 l/m 3,0 km/h (1 Bft) S 178 0 min 0,000 mm 0,0 UV-I 0 W/m 4,0 C 8,2 C 4,8 km/h (1 Bft) 94,74 %
29.03.2016 21:32 8,2 C 76 % 1012,8 hPa 0,0 l/m 3,9 km/h (1 Bft) S 182 0 min 0,000 mm 0,0 UV-I 0 W/m 4,2 C 8,2 C 6,4 km/h (2 Bft) 100,00 %
29.03.2016 21:33 8,2 C 75 % 1012,8 hPa 0,0 l/m 4,0 km/h (1 Bft) S 182 0 min 0,000 mm 0,0 UV-I 0 W/m 4,0 C 8,2 C 6,4 km/h (2 Bft) 100,00 %
29.03.2016 21:34 8,3 C 75 % 1012,8 hPa 0,0 l/m 5,1 km/h (1 Bft) S 177 0 min 0,000 mm 0,0 UV-I 0 W/m 4,1 C 8,3 C 6,4 km/h (2 Bft) 100,00 %
29.03.2016 21:35 8,3 C 74 % 1012,9 hPa 0,0 l/m 3,1 km/h (1 Bft) S 177 0 min 0,000 mm 0,0 UV-I 0 W/m 3,9 C 8,3 C 4,8 km/h (1 Bft) 100,00 %
29.03.2016 21:36 8,4 C 74 % 1012,8 hPa 0,0 l/m 2,6 km/h (1 Bft) S 177 0 min 0,000 mm 0,0 UV-I 0 W/m 4,0 C 8,4 C 4,8 km/h (1 Bft) 100,00 %
29.03.2016 21:37 8,4 C 74 % 1012,8 hPa 0,0 l/m 2,7 km/h (1 Bft) S 176 0 min 0,000 mm 0,0 UV-I 0 W/m 4,0 C 8,4 C 3,2 km/h (1 Bft) 100,00 %
29.03.2016 21:38 8,5 C 74 % 1012,8 hPa 0,0 l/m 3,6 km/h (1 Bft) S 176 0 min 0,000 mm 0,0 UV-I 0 W/m 4,1 C 8,5 C 4,8 km/h (1 Bft) 100,00 %
29.03.2016 21:39 8,5 C 74 % 1012,8 hPa 0,0 l/m 3,2 km/h (1 Bft) S 176 0 min 0,000 mm 0,0 UV-I 0 W/m 4,1 C 8,5 C 4,8 km/h (1 Bft) 100,00 %
29.03.2016 21:40 8,5 C 75 % 1012,8 hPa 0,0 l/m 2,4 km/h (1 Bft) S 176 0 min 0,000 mm 0,0 UV-I 0 W/m 4,3 C 8,5 C 3,2 km/h (1 Bft) 100,00 %
29.03.2016 21:41 8,4 C 75 % 1012,8 hPa 0,0 l/m 1,9 km/h (1 Bft) S 176 0 min 0,000 mm 0,0 UV-I 0 W/m 4,2 C 8,4 C 3,2 km/h (1 Bft) 100,00 %
29.03.2016 21:42 8,4 C 74 % 1012,8 hPa 0,0 l/m 1,1 km/h (1 Bft) S 176 0 min 0,000 mm 0,0 UV-I 0 W/m 4,0 C 8,4 C 3,2 km/h (1 Bft) 100,00 %
29.03.2016 21:43 8,3 C 74 % 1012,8 hPa 0,0 l/m 2,2 km/h (1 Bft) S 176 0 min 0,000 mm 0,0 UV-I 0 W/m 3,9 C 8,3 C 3,2 km/h (1 Bft) 100,00 %
29.03.2016 21:44 8,3 C 74 % 1012,9 hPa 0,0 l/m 3,1 km/h (1 Bft) S 176 0 min 0,000 mm 0,0 UV-I 0 W/m 3,9 C 8,3 C 4,8 km/h (1 Bft) 100,00 %
29.03.2016 21:45 8,3 C 75 % 1012,9 hPa 0,0 l/m 2,6 km/h (1 Bft) S 176 0 min 0,000 mm 0,0 UV-I 0 W/m 4,1 C 8,3 C 4,8 km/h (1 Bft) 100,00 %
29.03.2016 21:46 8,3 C 75 % 1012,8 hPa 0,0 l/m 1,7 km/h (1 Bft) S 176 0 min 0,000 mm 0,0 UV-I 0 W/m 4,1 C 8,3 C 3,2 km/h (1 Bft) 100,00 %
29.03.2016 21:47 8,3 C 75 % 1012,8 hPa 0,0 l/m 2,4 km/h (1 Bft) S 176 0 min 0,000 mm 0,0 UV-I 0 W/m 4,1 C 8,3 C 3,2 km/h (1 Bft) 100,00 %
29.03.2016 21:48 8,3 C 75 % 1012,8 hPa 0,0 l/m 2,3 km/h (1 Bft) S 174 0 min 0,000 mm 0,0 UV-I 0 W/m 4,1 C 8,3 C 3,2 km/h (1 Bft) 100,00 %
29.03.2016 21:49 8,3 C 75 % 1012,8 hPa 0,0 l/m 1,7 km/h (1 Bft) S-SO 159 0 min 0,000 mm 0,0 UV-I 0 W/m 4,1 C 8,3 C 3,2 km/h (1 Bft) 95,65 %
29.03.2016 21:50 8,3 C 75 % 1012,8 hPa 0,0 l/m 1,4 km/h (1 Bft) S-SO 159 0 min 0,000 mm 0,0 UV-I 0 W/m 4,1 C 8,3 C 3,2 km/h (1 Bft) 100,00 %
29.03.2016 21:51 8,3 C 75 % 1012,8 hPa 0,0 l/m 0,2 km/h (0 Bft) S-SO 159 0 min 0,000 mm 0,0 UV-I 0 W/m 4,1 C 8,3 C 1,6 km/h (1 Bft) 95,83 %
29.03.2016 21:52 8,4 C 75 % 1012,9 hPa 0,0 l/m 3,6 km/h (1 Bft) W-NW 284 0 min 0,000 mm 0,0 UV-I 0 W/m 4,2 C 8,4 C 4,8 km/h (1 Bft) 96,55 %
29.03.2016 21:53 8,4 C 75 % 1013,0 hPa 0,0 l/m 3,5 km/h (1 Bft) W-NW 298 0 min 0,000 mm 0,0 UV-I 0 W/m 4,2 C 8,4 C 4,8 km/h (1 Bft) 100,00 %
29.03.2016 21:54 8,3 C 76 % 1013,0 hPa 0,0 l/m 1,5 km/h (1 Bft) W-NW 298 0 min 0,000 mm 0,0 UV-I 0 W/m 4,3 C 8,3 C 3,2 km/h (1 Bft) 93,33 %
29.03.2016 21:55 8,2 C 78 % 1013,0 hPa 0,0 l/m 1,1 km/h (1 Bft) W-NW 292 0 min 0,000 mm 0,0 UV-I 0 W/m 4,6 C 8,2 C 3,2 km/h (1 Bft) 100,00 %
29.03.2016 21:56 8,1 C 78 % 1012,9 hPa 0,0 l/m 3,4 km/h (1 Bft) S-SO 149 0 min 0,000 mm 0,0 UV-I 0 W/m 4,5 C 8,1 C 6,4 km/h (2 Bft) 95,65 %
29.03.2016 21:57 8,1 C 78 % 1012,9 hPa 0,0 l/m 2,8 km/h (1 Bft) S-SO 158 0 min 0,000 mm 0,0 UV-I 0 W/m 4,5 C 8,1 C 4,8 km/h (1 Bft) 100,00 %
29.03.2016 21:58 8,0 C 78 % 1012,9 hPa 0,0 l/m 2,1 km/h (1 Bft) S-SO 158 0 min 0,000 mm 0,0 UV-I 0 W/m 4,4 C 8,0 C 3,2 km/h (1 Bft) 96,55 %
29.03.2016 21:59 8,0 C 77 % 1012,9 hPa 0,0 l/m 3,6 km/h (1 Bft) S 176 0 min 0,000 mm 0,0 UV-I 0 W/m 4,2 C 8,0 C 6,4 km/h (2 Bft) 91,67 %
29.03.2016 22:00 8,1 C 77 % 1012,9 hPa 0,0 l/m 3,8 km/h (1 Bft) S 177 0 min 0,000 mm 0,0 UV-I 0 W/m 4,3 C 8,1 C 4,8 km/h (1 Bft) 100,00 %
29.03.2016 22:02 8,1 C 77 % 1013,0 hPa 0,0 l/m 3,4 km/h (1 Bft) S-SW 195 0 min 0,000 mm 0,0 UV-I 0 W/m 4,3 C 8,1 C 4,8 km/h (1 Bft) 97,87 %
29.03.2016 22:03 8,2 C 77 % 1013,0 hPa 0,0 l/m 2,3 km/h (1 Bft) S-SW 195 0 min 0,000 mm 0,0 UV-I 0 W/m 4,4 C 8,2 C 3,2 km/h (1 Bft) 95,83 %
29.03.2016 22:04 8,2 C 77 % 1013,0 hPa 0,0 l/m 1,9 km/h (1 Bft) S-SW 195 0 min 0,000 mm 0,0 UV-I 0 W/m 4,4 C 8,2 C 3,2 km/h (1 Bft) 100,00 %
29.03.2016 22:05 8,1 C 78 % 1013,0 hPa 0,0 l/m 1,1 km/h (1 Bft) S 175 0 min 0,000 mm 0,0 UV-I 0 W/m 4,5 C 8,1 C 3,2 km/h (1 Bft) 95,83 %
29.03.2016 22:06 8,1 C 77 % 1012,9 hPa 0,0 l/m 3,1 km/h (1 Bft) S-SO 150 0 min 0,000 mm 0,0 UV-I 0 W/m 4,3 C 8,1 C 6,4 km/h (2 Bft) 100,00 %
29.03.2016 22:07 8,1 C 78 % 1012,8 hPa 0,0 l/m 5,7 km/h (1 Bft) SO 138 0 min 0,000 mm 0,0 UV-I 0 W/m 4,5 C 8,1 C 8,0 km/h (2 Bft) 92,31 %
29.03.2016 22:08 8,0 C 80 % 1012,8 hPa 0,0 l/m 4,8 km/h (1 Bft) SO 138 0 min 0,000 mm 0,0 UV-I 0 W/m 4,8 C 8,0 C 6,4 km/h (2 Bft) 100,00 %
29.03.2016 22:09 7,9 C 79 % 1012,8 hPa 0,0 l/m 1,0 km/h (0 Bft) SO 138 0 min 0,000 mm 0,0 UV-I 0 W/m 4,5 C 7,9 C 3,2 km/h (1 Bft) 95,65 %
29.03.2016 22:10 7,8 C 79 % 1013,0 hPa 0,0 l/m 3,7 km/h (1 Bft) W-NW 296 0 min 0,000 mm 0,0 UV-I 0 W/m 4,4 C 7,8 C 4,8 km/h (1 Bft) 100,00 %
29.03.2016 22:11 7,8 C 79 % 1013,1 hPa 0,0 l/m 2,7 km/h (1 Bft) W-NW 296 0 min 0,000 mm 0,0 UV-I 0 W/m 4,4 C 7,8 C 3,2 km/h (1 Bft) 90,91 %
29.03.2016 22:12 7,9 C 79 % 1013,2 hPa 0,0 l/m 1,9 km/h (1 Bft) W-NW 296 0 min 0,000 mm 0,0 UV-I 0 W/m 4,5 C 7,9 C 3,2 km/h (1 Bft) 95,12 %
29.03.2016 22:13 7,9 C 80 % 1013,3 hPa 0,0 l/m 2,3 km/h (1 Bft) W-NW 296 0 min 0,000 mm 0,0 UV-I 0 W/m 4,7 C 7,9 C 3,2 km/h (1 Bft) 100,00 %
29.03.2016 22:14 7,9 C 79 % 1013,2 hPa 0,0 l/m 3,8 km/h (1 Bft) S 186 0 min 0,000 mm 0,0 UV-I 0 W/m 4,5 C 7,9 C 4,8 km/h (1 Bft) 91,67 %
29.03.2016 22:15 7,9 C 78 % 1013,1 hPa 0,0 l/m 2,5 km/h (1 Bft) S-SO 150 0 min 0,000 mm 0,0 UV-I 0 W/m 4,3 C 7,9 C 3,2 km/h (1 Bft) 100,00 %
29.03.2016 22:16 7,9 C 79 % 1013,1 hPa 0,0 l/m 5,0 km/h (1 Bft) S-SO 155 0 min 0,000 mm 0,0 UV-I 0 W/m 4,5 C 7,9 C 8,0 km/h (2 Bft) 95,83 %
29.03.2016 22:17 7,9 C 79 % 1013,1 hPa 0,0 l/m 4,3 km/h (1 Bft) SO 146 0 min 0,000 mm 0,0 UV-I 0 W/m 4,5 C 7,9 C 8,0 km/h (2 Bft) 100,00 %
29.03.2016 22:18 7,9 C 79 % 1013,1 hPa 0,0 l/m 1,9 km/h (1 Bft) S-SO 148 0 min 0,000 mm 0,0 UV-I 0 W/m 4,5 C 7,9 C 4,8 km/h (1 Bft) 98,52 %
29.03.2016 22:19 7,9 C 79 % 1013,1 hPa 0,0 l/m 0,6 km/h (0 Bft) S-SO 148 0 min 0,000 mm 0,0 UV-I 0 W/m 4,5 C 7,9 C 1,6 km/h (1 Bft) 98,21 %
29.03.2016 22:20 7,9 C 79 % 1013,2 hPa 0,0 l/m 2,2 km/h (1 Bft) S-SO 157 0 min 0,000 mm 0,0 UV-I 0 W/m 4,5 C 7,9 C 3,2 km/h (1 Bft) 96,30 %
29.03.2016 22:21 7,9 C 79 % 1013,1 hPa 0,0 l/m 2,7 km/h (1 Bft) S-SO 159 0 min 0,000 mm 0,0 UV-I 0 W/m 4,5 C 7,9 C 6,4 km/h (2 Bft) 100,00 %
29.03.2016 22:22 8,0 C 78 % 1013,1 hPa 0,0 l/m 1,5 km/h (1 Bft) S-SO 159 0 min 0,000 mm 0,0 UV-I 0 W/m 4,4 C 8,0 C 3,2 km/h (1 Bft) 95,83 %
29.03.2016 22:23 8,1 C 79 % 1012,9 hPa 0,0 l/m 0,7 km/h (0 Bft) S-SO 159 0 min 0,000 mm 0,0 UV-I 0 W/m 4,7 C 8,1 C 1,6 km/h (1 Bft) 95,65 %
29.03.2016 22:24 8,1 C 78 % 1013,0 hPa 0,0 l/m 1,3 km/h (1 Bft) S-SO 159 0 min 0,000 mm 0,0 UV-I 0 W/m 4,5 C 8,1 C 3,2 km/h (1 Bft) 100,00 %
29.03.2016 22:25 8,1 C 78 % 1013,0 hPa 0,0 l/m 5,5 km/h (1 Bft) S-SO 163 0 min 0,000 mm 0,0 UV-I 0 W/m 4,5 C 8,1 C 8,0 km/h (2 Bft) 94,12 %
29.03.2016 22:26 8,2 C 78 % 1013,0 hPa 0,0 l/m 5,6 km/h (1 Bft) S-SO 161 0 min 0,000 mm 0,0 UV-I 0 W/m 4,6 C 8,2 C 8,0 km/h (2 Bft) 100,00 %
29.03.2016 22:27 8,2 C 78 % 1012,9 hPa 0,0 l/m 5,8 km/h (2 Bft) SO 144 0 min 0,000 mm 0,0 UV-I 0 W/m 4,6 C 8,2 C 8,0 km/h (2 Bft) 94,44 %
29.03.2016 22:28 8,2 C 77 % 1012,8 hPa 0,0 l/m 9,7 km/h (2 Bft) SO 136 0 min 0,000 mm 0,0 UV-I 0 W/m 4,4 C 5,8 C 12,9 km/h (3 Bft) 100,00 %
29.03.2016 22:29 8,2 C 77 % 1012,7 hPa 0,0 l/m 11,9 km/h (2 Bft) O-SO 120 0 min 0,000 mm 0,0 UV-I 0 W/m 4,4 C 4,5 C 12,9 km/h (3 Bft) 100,00 %
29.03.2016 22:30 8,2 C 78 % 1012,6 hPa 0,0 l/m 9,2 km/h (2 Bft) SO 138 0 min 0,000 mm 0,0 UV-I 0 W/m 4,6 C 6,1 C 12,9 km/h (3 Bft) 100,00 %
29.03.2016 22:31 8,2 C 78 % 1012,6 hPa 0,0 l/m 4,5 km/h (1 Bft) SO 136 0 min 0,000 mm 0,0 UV-I 0 W/m 4,6 C 8,2 C 6,4 km/h (2 Bft) 100,00 %
29.03.2016 22:32 8,2 C 77 % 1012,7 hPa 0,0 l/m 3,0 km/h (1 Bft) W-SW 240 0 min 0,000 mm 0,0 UV-I 0 W/m 4,4 C 8,2 C 4,8 km/h (1 Bft) 95,45 %
29.03.2016 22:33 8,3 C 76 % 1012,8 hPa 0,0 l/m 6,1 km/h (2 Bft) W-NW 285 0 min 0,000 mm 0,0 UV-I 0 W/m 4,3 C 8,3 C 9,7 km/h (2 Bft) 100,00 %
29.03.2016 22:34 8,3 C 77 % 1012,9 hPa 0,0 l/m 4,1 km/h (1 Bft) NW 309 0 min 0,000 mm 0,0 UV-I 0 W/m 4,5 C 8,3 C 6,4 km/h (2 Bft) 100,00 %
29.03.2016 22:35 8,3 C 78 % 1012,9 hPa 0,0 l/m 3,1 km/h (1 Bft) NW 307 0 min 0,000 mm 0,0 UV-I 0 W/m 4,7 C 8,3 C 4,8 km/h (1 Bft) 100,00 %
29.03.2016 22:36 8,2 C 78 % 1012,9 hPa 0,0 l/m 1,3 km/h (1 Bft) NW 307 0 min 0,000 mm 0,0 UV-I 0 W/m 4,6 C 8,2 C 1,6 km/h (1 Bft) 96,55 %
29.03.2016 22:37 8,1 C 79 % 1012,9 hPa 0,0 l/m 1,7 km/h (1 Bft) W-NW 290 0 min 0,000 mm 0,0 UV-I 0 W/m 4,7 C 8,1 C 3,2 km/h (1 Bft) 100,00 %
29.03.2016 22:38 7,9 C 80 % 1012,8 hPa 0,0 l/m 1,2 km/h (1 Bft) S-SW 196 0 min 0,000 mm 0,0 UV-I 0 W/m 4,7 C 7,9 C 1,6 km/h (1 Bft) 100,00 %
29.03.2016 22:39 7,9 C 79 % 1012,8 hPa 0,0 l/m 1,9 km/h (1 Bft) S 187 0 min 0,000 mm 0,0 UV-I 0 W/m 4,5 C 7,9 C 3,2 km/h (1 Bft) 100,00 %
29.03.2016 22:40 7,9 C 79 % 1012,8 hPa 0,0 l/m 2,2 km/h (1 Bft) S 186 0 min 0,000 mm 0,0 UV-I 0 W/m 4,5 C 7,9 C 3,2 km/h (1 Bft) 100,00 %
29.03.2016 22:41 7,9 C 79 % 1012,8 hPa 0,0 l/m 1,9 km/h (1 Bft) S 186 0 min 0,000 mm 0,0 UV-I 0 W/m 4,5 C 7,9 C 3,2 km/h (1 Bft) 100,00 %
29.03.2016 22:42 7,8 C 80 % 1012,8 hPa 0,0 l/m 1,6 km/h (1 Bft) S 186 0 min 0,000 mm 0,0 UV-I 0 W/m 4,6 C 7,8 C 3,2 km/h (1 Bft) 100,00 %
29.03.2016 22:43 7,8 C 79 % 1012,8 hPa 0,0 l/m 0,6 km/h (0 Bft) S 186 0 min 0,000 mm 0,0 UV-I 0 W/m 4,4 C 7,8 C 3,2 km/h (1 Bft) 95,83 %
29.03.2016 22:44 7,8 C 79 % 1012,9 hPa 0,0 l/m 2,3 km/h (1 Bft) W-SW 246 0 min 0,000 mm 0,0 UV-I 0 W/m 4,4 C 7,8 C 4,8 km/h (1 Bft) 92,31 %
29.03.2016 22:45 7,8 C 80 % 1013,0 hPa 0,0 l/m 2,9 km/h (1 Bft) W-SW 246 0 min 0,000 mm 0,0 UV-I 0 W/m 4,6 C 7,8 C 3,2 km/h (1 Bft) 100,00 %
29.03.2016 22:46 7,8 C 80 % 1013,0 hPa 0,0 l/m 1,9 km/h (1 Bft) W-SW 246 0 min 0,000 mm 0,0 UV-I 0 W/m 4,6 C 7,8 C 3,2 km/h (1 Bft) 100,00 %
29.03.2016 22:47 7,7 C 80 % 1013,0 hPa 0,0 l/m 0,2 km/h (0 Bft) W-SW 246 0 min 0,000 mm 0,0 UV-I 0 W/m 4,5 C 7,7 C 1,6 km/h (1 Bft) 100,00 %
29.03.2016 22:48 7,7 C 80 % 1013,0 hPa 0,0 l/m 0,3 km/h (0 Bft) W-SW 246 0 min 0,000 mm 0,0 UV-I 0 W/m 4,5 C 7,7 C 1,6 km/h (1 Bft) 100,00 %
29.03.2016 22:49 7,7 C 80 % 1013,0 hPa 0,0 l/m 0,2 km/h (0 Bft) W-SW 246 0 min 0,000 mm 0,0 UV-I 0 W/m 4,5 C 7,7 C 1,6 km/h (1 Bft) 95,65 %
29.03.2016 22:50 7,7 C 80 % 1012,9 hPa 0,0 l/m 0,9 km/h (0 Bft) W-SW 246 0 min 0,000 mm 0,0 UV-I 0 W/m 4,5 C 7,7 C 1,6 km/h (1 Bft) 100,00 %
29.03.2016 22:51 7,7 C 79 % 1012,9 hPa 0,0 l/m 1,4 km/h (1 Bft) W-SW 246 0 min 0,000 mm 0,0 UV-I 0 W/m 4,3 C 7,7 C 1,6 km/h (1 Bft) 100,00 %
29.03.2016 22:52 7,8 C 79 % 1012,9 hPa 0,0 l/m 2,3 km/h (1 Bft) W-SW 246 0 min 0,000 mm 0,0 UV-I 0 W/m 4,4 C 7,8 C 3,2 km/h (1 Bft) 100,00 %
29.03.2016 22:53 7,8 C 79 % 1012,9 hPa 0,0 l/m 1,9 km/h (1 Bft) W-SW 246 0 min 0,000 mm 0,0 UV-I 0 W/m 4,4 C 7,8 C 3,2 km/h (1 Bft) 100,00 %
29.03.2016 22:54 7,8 C 79 % 1012,8 hPa 0,0 l/m 0,8 km/h (0 Bft) W-SW 246 0 min 0,000 mm 0,0 UV-I 0 W/m 4,4 C 7,8 C 3,2 km/h (1 Bft) 100,00 %
29.03.2016 22:55 7,8 C 80 % 1012,8 hPa 0,0 l/m 0,0 km/h (0 Bft) W-SW 246 0 min 0,000 mm 0,0 UV-I 0 W/m 4,6 C 7,8 C 0,0 km/h (0 Bft) 100,00 %
29.03.2016 22:56 7,8 C 80 % 1012,8 hPa 0,0 l/m 0,2 km/h (0 Bft) W-SW 246 0 min 0,000 mm 0,0 UV-I 0 W/m 4,6 C 7,8 C 1,6 km/h (1 Bft) 100,00 %
29.03.2016 22:57 7,8 C 80 % 1012,8 hPa 0,0 l/m 0,0 km/h (0 Bft) W-SW 246 0 min 0,000 mm 0,0 UV-I 0 W/m 4,6 C 7,8 C 0,0 km/h (0 Bft) 100,00 %
29.03.2016 22:58 7,8 C 79 % 1012,7 hPa 0,0 l/m 1,1 km/h (1 Bft) W-SW 246 0 min 0,000 mm 0,0 UV-I 0 W/m 4,4 C 7,8 C 3,2 km/h (1 Bft) 96,43 %
29.03.2016 22:59 7,8 C 79 % 1012,6 hPa 0,0 l/m 2,9 km/h (1 Bft) W-SW 244 0 min 0,000 mm 0,0 UV-I 0 W/m 4,4 C 7,8 C 3,2 km/h (1 Bft) 100,00 %
29.03.2016 23:00 7,8 C 79 % 1012,6 hPa 0,0 l/m 3,2 km/h (1 Bft) W-SW 244 0 min 0,000 mm 0,0 UV-I 0 W/m 4,4 C 7,8 C 3,2 km/h (1 Bft) 100,00 %
29.03.2016 23:02 7,8 C 79 % 1012,7 hPa 0,0 l/m 2,1 km/h (1 Bft) W-SW 244 0 min 0,000 mm 0,0 UV-I 0 W/m 4,4 C 7,8 C 3,2 km/h (1 Bft) 100,00 %
29.03.2016 23:03 7,8 C 79 % 1012,7 hPa 0,0 l/m 0,1 km/h (0 Bft) W-SW 244 0 min 0,000 mm 0,0 UV-I 0 W/m 4,4 C 7,8 C 1,6 km/h (1 Bft) 100,00 %
29.03.2016 23:04 7,8 C 81 % 1012,7 hPa 0,0 l/m 0,0 km/h (0 Bft) W-SW 244 0 min 0,000 mm 0,0 UV-I 0 W/m 4,7 C 7,8 C 0,0 km/h (0 Bft) 100,00 %
29.03.2016 23:05 7,7 C 81 % 1012,6 hPa 0,0 l/m 0,6 km/h (0 Bft) W-SW 244 0 min 0,000 mm 0,0 UV-I 0 W/m 4,7 C 7,7 C 1,6 km/h (1 Bft) 100,00 %
29.03.2016 23:06 7,7 C 80 % 1012,6 hPa 0,0 l/m 0,1 km/h (0 Bft) W-SW 244 0 min 0,000 mm 0,0 UV-I 0 W/m 4,5 C 7,7 C 1,6 km/h (1 Bft) 100,00 %
29.03.2016 23:07 7,7 C 80 % 1012,6 hPa 0,0 l/m 0,0 km/h (0 Bft) W-SW 244 0 min 0,000 mm 0,0 UV-I 0 W/m 4,5 C 7,7 C 0,0 km/h (0 Bft) 100,00 %
29.03.2016 23:08 7,7 C 80 % 1012,7 hPa 0,0 l/m 0,0 km/h (0 Bft) W-SW 244 0 min 0,000 mm 0,0 UV-I 0 W/m 4,5 C 7,7 C 0,0 km/h (0 Bft) 95,83 %
29.03.2016 23:09 7,7 C 80 % 1012,7 hPa 0,0 l/m 0,0 km/h (0 Bft) W-SW 244 0 min 0,000 mm 0,0 UV-I 0 W/m 4,5 C 7,7 C 0,0 km/h (0 Bft) 100,00 %
29.03.2016 23:10 7,8 C 80 % 1012,7 hPa 0,0 l/m 0,1 km/h (0 Bft) W-SW 244 0 min 0,000 mm 0,0 UV-I 0 W/m 4,6 C 7,8 C 1,6 km/h (1 Bft) 100,00 %
29.03.2016 23:11 7,8 C 81 % 1012,7 hPa 0,0 l/m 1,9 km/h (1 Bft) W-SW 244 0 min 0,000 mm 0,0 UV-I 0 W/m 4,7 C 7,8 C 3,2 km/h (1 Bft) 100,00 %
29.03.2016 23:12 7,7 C 80 % 1012,7 hPa 0,0 l/m 1,4 km/h (1 Bft) W-SW 244 0 min 0,000 mm 0,0 UV-I 0 W/m 4,5 C 7,7 C 1,6 km/h (1 Bft) 100,00 %
29.03.2016 23:13 7,7 C 81 % 1012,7 hPa 0,0 l/m 0,2 km/h (0 Bft) W-SW 244 0 min 0,000 mm 0,0 UV-I 0 W/m 4,7 C 7,7 C 1,6 km/h (1 Bft) 100,00 %
29.03.2016 23:14 7,7 C 81 % 1012,8 hPa 0,0 l/m 0,0 km/h (0 Bft) W-SW 244 0 min 0,000 mm 0,0 UV-I 0 W/m 4,7 C 7,7 C 0,0 km/h (0 Bft) 100,00 %
29.03.2016 23:15 7,6 C 82 % 1012,8 hPa 0,0 l/m 0,0 km/h (0 Bft) W-SW 244 0 min 0,000 mm 0,0 UV-I 0 W/m 4,7 C 7,6 C 0,0 km/h (0 Bft) 100,00 %
29.03.2016 23:16 7,5 C 83 % 1012,8 hPa 0,0 l/m 0,0 km/h (0 Bft) W-SW 244 0 min 0,000 mm 0,0 UV-I 0 W/m 4,8 C 7,5 C 0,0 km/h (0 Bft) 95,65 %
29.03.2016 23:17 7,4 C 83 % 1012,8 hPa 0,0 l/m 0,1 km/h (0 Bft) W-SW 244 0 min 0,000 mm 0,0 UV-I 0 W/m 4,7 C 7,4 C 1,6 km/h (1 Bft) 100,00 %
29.03.2016 23:18 7,4 C 83 % 1012,9 hPa 0,0 l/m 1,9 km/h (1 Bft) W-SW 244 0 min 0,000 mm 0,0 UV-I 0 W/m 4,7 C 7,4 C 3,2 km/h (1 Bft) 96,15 %
29.03.2016 23:19 7,4 C 83 % 1012,9 hPa 0,0 l/m 2,1 km/h (1 Bft) W-SW 244 0 min 0,000 mm 0,0 UV-I 0 W/m 4,7 C 7,4 C 3,2 km/h (1 Bft) 100,00 %
29.03.2016 23:20 7,4 C 83 % 1012,9 hPa 0,0 l/m 1,4 km/h (1 Bft) W-SW 244 0 min 0,000 mm 0,0 UV-I 0 W/m 4,7 C 7,4 C 3,2 km/h (1 Bft) 96,15 %
29.03.2016 23:21 7,4 C 84 % 1013,0 hPa 0,0 l/m 0,5 km/h (0 Bft) W-SW 244 0 min 0,000 mm 0,0 UV-I 0 W/m 4,9 C 7,4 C 1,6 km/h (1 Bft) 100,00 %
29.03.2016 23:22 7,3 C 84 % 1013,0 hPa 0,0 l/m 0,0 km/h (0 Bft) W-SW 244 0 min 0,000 mm 0,0 UV-I 0 W/m 4,8 C 7,3 C 0,0 km/h (0 Bft) 100,00 %
29.03.2016 23:23 7,3 C 85 % 1013,0 hPa 0,0 l/m 0,0 km/h (0 Bft) W-SW 244 0 min 0,000 mm 0,0 UV-I 0 W/m 4,9 C 7,3 C 0,0 km/h (0 Bft) 100,00 %
29.03.2016 23:24 7,3 C 84 % 1013,1 hPa 0,0 l/m 0,2 km/h (0 Bft) W-SW 244 0 min 0,000 mm 0,0 UV-I 0 W/m 4,8 C 7,3 C 1,6 km/h (1 Bft) 100,00 %
29.03.2016 23:25 7,3 C 84 % 1013,2 hPa 0,0 l/m 2,4 km/h (1 Bft) W-SW 244 0 min 0,000 mm 0,0 UV-I 0 W/m 4,8 C 7,3 C 3,2 km/h (1 Bft) 100,00 %
29.03.2016 23:26 7,3 C 85 % 1013,3 hPa 0,0 l/m 3,5 km/h (1 Bft) W-SW 244 0 min 0,000 mm 0,0 UV-I 0 W/m 4,9 C 7,3 C 4,8 km/h (1 Bft) 100,00 %
29.03.2016 23:27 7,3 C 84 % 1013,3 hPa 0,0 l/m 4,0 km/h (1 Bft) W-SW 244 0 min 0,000 mm 0,0 UV-I 0 W/m 4,8 C 7,3 C 4,8 km/h (1 Bft) 100,00 %
29.03.2016 23:28 7,3 C 83 % 1013,3 hPa 0,0 l/m 5,1 km/h (1 Bft) S 182 0 min 0,000 mm 0,0 UV-I 0 W/m 4,6 C 7,3 C 6,4 km/h (2 Bft) 100,00 %
29.03.2016 23:29 7,4 C 84 % 1013,4 hPa 0,0 l/m 6,8 km/h (2 Bft) S 171 0 min 0,000 mm 0,0 UV-I 0 W/m 4,9 C 7,1 C 8,0 km/h (2 Bft) 100,00 %
29.03.2016 23:30 7,4 C 84 % 1013,4 hPa 0,0 l/m 4,6 km/h (1 Bft) S-SO 168 0 min 0,000 mm 0,0 UV-I 0 W/m 4,9 C 7,4 C 8,0 km/h (2 Bft) 95,65 %
29.03.2016 23:31 7,4 C 84 % 1013,5 hPa 0,0 l/m 1,9 km/h (1 Bft) S-SO 167 0 min 0,000 mm 0,0 UV-I 0 W/m 4,9 C 7,4 C 4,8 km/h (1 Bft) 98,55 %
29.03.2016 23:32 7,4 C 83 % 1013,5 hPa 0,0 l/m 0,2 km/h (0 Bft) S-SO 168 0 min 0,000 mm 0,0 UV-I 0 W/m 4,7 C 7,4 C 1,6 km/h (1 Bft) 100,00 %
29.03.2016 23:33 7,5 C 83 % 1013,6 hPa 0,0 l/m 2,9 km/h (1 Bft) S-SW 202 0 min 0,000 mm 0,0 UV-I 0 W/m 4,8 C 7,5 C 4,8 km/h (1 Bft) 100,00 %
29.03.2016 23:34 7,5 C 83 % 1013,7 hPa 0,0 l/m 5,6 km/h (1 Bft) S 178 0 min 0,000 mm 0,0 UV-I 0 W/m 4,8 C 7,5 C 6,4 km/h (2 Bft) 100,00 %
29.03.2016 23:35 7,5 C 83 % 1013,7 hPa 0,0 l/m 5,7 km/h (1 Bft) S-SO 161 0 min 0,000 mm 0,0 UV-I 0 W/m 4,8 C 7,5 C 9,7 km/h (2 Bft) 95,65 %
29.03.2016 23:36 7,6 C 83 % 1013,8 hPa 0,0 l/m 2,4 km/h (1 Bft) S-SO 161 0 min 0,000 mm 0,0 UV-I 0 W/m 4,9 C 7,6 C 6,4 km/h (2 Bft) 100,00 %
29.03.2016 23:37 7,6 C 84 % 1013,9 hPa 0,0 l/m 6,0 km/h (2 Bft) W-SW 251 0 min 0,000 mm 0,0 UV-I 0 W/m 5,1 C 7,6 C 8,0 km/h (2 Bft) 100,00 %
29.03.2016 23:38 7,6 C 84 % 1014,0 hPa 0,0 l/m 4,0 km/h (1 Bft) W-SW 251 0 min 0,000 mm 0,0 UV-I 0 W/m 5,1 C 7,6 C 6,4 km/h (2 Bft) 100,00 %
29.03.2016 23:39 7,6 C 84 % 1013,9 hPa 0,0 l/m 4,0 km/h (1 Bft) S 177 0 min 0,000 mm 0,0 UV-I 0 W/m 5,1 C 7,6 C 11,3 km/h (2 Bft) 100,00 %
29.03.2016 23:40 7,6 C 85 % 1014,1 hPa 0,2 l/m 7,5 km/h (2 Bft) S 170 0 min 0,000 mm 0,0 UV-I 0 W/m 5,2 C 6,7 C 14,5 km/h (3 Bft) 100,00 %
29.03.2016 23:41 7,6 C 85 % 1014,1 hPa 0,0 l/m 6,1 km/h (2 Bft) W 271 0 min 0,000 mm 0,0 UV-I 0 W/m 5,2 C 7,6 C 14,5 km/h (3 Bft) 96,55 %
29.03.2016 23:42 7,6 C 85 % 1014,3 hPa 0,0 l/m 16,2 km/h (3 Bft) W 260 0 min 0,000 mm 0,0 UV-I 0 W/m 5,2 C 1,7 C 29,0 km/h (5 Bft) 96,67 %
29.03.2016 23:43 7,6 C 84 % 1014,3 hPa 0,0 l/m 16,5 km/h (3 Bft) W 265 0 min 0,000 mm 0,0 UV-I 0 W/m 5,1 C 1,6 C 20,9 km/h (4 Bft) 100,00 %
29.03.2016 23:44 7,7 C 84 % 1014,3 hPa 0,0 l/m 9,1 km/h (2 Bft) W 261 0 min 0,000 mm 0,0 UV-I 0 W/m 5,2 C 5,6 C 12,9 km/h (3 Bft) 100,00 %
29.03.2016 23:45 7,8 C 84 % 1014,3 hPa 0,0 l/m 8,5 km/h (2 Bft) W-SW 248 0 min 0,000 mm 0,0 UV-I 0 W/m 5,3 C 6,2 C 12,9 km/h (3 Bft) 100,00 %
29.03.2016 23:46 7,8 C 85 % 1014,3 hPa 0,0 l/m 7,4 km/h (2 Bft) SW 233 0 min 0,000 mm 0,0 UV-I 0 W/m 5,4 C 7,0 C 11,3 km/h (2 Bft) 100,00 %
29.03.2016 23:47 7,9 C 84 % 1014,3 hPa 0,2 l/m 7,6 km/h (2 Bft) S-SW 209 0 min 0,000 mm 0,0 UV-I 0 W/m 5,4 C 7,0 C 11,3 km/h (2 Bft) 100,00 %
29.03.2016 23:48 8,0 C 84 % 1014,3 hPa 0,0 l/m 9,4 km/h (2 Bft) W-SW 247 0 min 0,000 mm 0,0 UV-I 0 W/m 5,5 C 5,8 C 14,5 km/h (3 Bft) 100,00 %
29.03.2016 23:49 8,1 C 84 % 1014,3 hPa 0,0 l/m 8,5 km/h (2 Bft) W 272 0 min 0,000 mm 0,0 UV-I 0 W/m 5,6 C 6,5 C 11,3 km/h (2 Bft) 100,00 %
29.03.2016 23:50 8,1 C 84 % 1014,4 hPa 0,0 l/m 9,0 km/h (2 Bft) W-SW 246 0 min 0,000 mm 0,0 UV-I 0 W/m 5,6 C 6,1 C 14,5 km/h (3 Bft) 100,00 %
29.03.2016 23:51 8,1 C 84 % 1014,5 hPa 0,0 l/m 8,0 km/h (2 Bft) W-SW 256 0 min 0,000 mm 0,0 UV-I 0 W/m 5,6 C 6,9 C 11,3 km/h (2 Bft) 100,00 %
29.03.2016 23:52 8,1 C 85 % 1014,5 hPa 0,0 l/m 8,0 km/h (2 Bft) W 263 0 min 0,000 mm 0,0 UV-I 0 W/m 5,7 C 6,9 C 12,9 km/h (3 Bft) 100,00 %
29.03.2016 23:53 8,1 C 85 % 1014,6 hPa 0,0 l/m 8,4 km/h (2 Bft) W-SW 252 0 min 0,000 mm 0,0 UV-I 0 W/m 5,7 C 6,6 C 11,3 km/h (2 Bft) 100,00 %
29.03.2016 23:54 8,1 C 85 % 1014,6 hPa 0,0 l/m 9,2 km/h (2 Bft) W-SW 252 0 min 0,000 mm 0,0 UV-I 0 W/m 5,7 C 6,0 C 14,5 km/h (3 Bft) 100,00 %
29.03.2016 23:55 8,1 C 85 % 1014,6 hPa 0,0 l/m 11,6 km/h (2 Bft) W-SW 252 0 min 0,000 mm 0,0 UV-I 0 W/m 5,7 C 4,5 C 14,5 km/h (3 Bft) 100,00 %
29.03.2016 23:56 8,1 C 84 % 1014,6 hPa 0,0 l/m 12,2 km/h (2 Bft) W 262 0 min 0,000 mm 0,0 UV-I 0 W/m 5,6 C 4,2 C 16,1 km/h (3 Bft) 85,71 %
29.03.2016 23:57 8,1 C 84 % 1014,7 hPa 0,2 l/m 11,1 km/h (2 Bft) W-SW 247 0 min 0,000 mm 0,0 UV-I 0 W/m 5,6 C 4,8 C 14,5 km/h (3 Bft) 96,30 %
29.03.2016 23:58 8,1 C 84 % 1014,7 hPa 0,0 l/m 12,3 km/h (3 Bft) W-SW 248 0 min 0,000 mm 0,0 UV-I 0 W/m 5,6 C 4,2 C 14,5 km/h (3 Bft) 95,65 %
29.03.2016 23:59 8,1 C 84 % 1014,7 hPa 0,0 l/m 12,4 km/h (3 Bft) W 261 0 min 0,000 mm 0,0 UV-I 0 W/m 5,6 C 4,1 C 16,1 km/h (3 Bft) 100,00 %
_ Min-Zeit 07:02 18:40 00:00 - 22:55 - - - - - - 19:00 23:43 22:55 23:56
Minimum _ 6,6 C 52 % 1006,9 hPa - 0,0 km/h (0 Bft) - - - - - - 2,9 C 1,6 C 0,0 km/h (0 Bft) 85,71 %
_ Max-Zeit 16:51 00:00 23:57 13:37 13:36 - - 07:02 16:00 13:10 13:06 15:03 13:15 13:36 00:02
Maximum _ 14,1 C 88 % 1014,7 hPa 0,2 l/m 34,9 km/h
W (5 Bft)
- - 2 min 0,330 mm 3,3 UV-I 915 W/m 7,7 C 13,9 C 49,9 km/h
W-SW (6 Bft)
100,00 %
Durchschnitt _ 9,9 C 72 % 1011,1 hPa #4,0 l/m 9,8 km/h (2 Bft) W-SW - #4:48 h #2,515 mm 1,6 UV-I 275 W/m 5,0 C 7,7 C 14,5 km/h (3 Bft) 98,50 %